[[{"header":{"parameterUnit":"m.s-1","parameterCategory":1,"la1":31.0,"la2":29.5877,"lo1":-88.7671,"lo2":-86.6584,"dy":0.0162,"dx":0.0185,"nx":115,"ny":88,"refTime":"2024-06-27T06:00:00:Z","depth":0,"parameterNumber":2,"parameterNumberName":"U-component_of_WINDS"},"data":[0.0,0.0,0.0,0.0,0.0,0.0,0.0,0.0,0.0,0.0,0.0,0.0,0.0,0.0,0.0,0.0,0.0,0.0,0.0,0.0,0.0,0.0,0.0,0.0,0.0,0.0,0.0,0.0,0.0,0.0,0.0,0.0,0.0,0.0,0.0,0.0,0.0,0.0,0.0,0.0,0.0,0.0,0.0,0.0,0.0,0.0,0.0,0.0,0.0,0.0,0.0,0.0,0.0,0.0,0.0,0.0,0.0,0.0,0.0,0.0,0.0,0.0,0.0,0.0,0.0,0.0,0.0,0.0,0.0,0.0,0.0,0.0,0.0,0.0,0.0,0.0,0.0,0.0,0.0,0.0,0.0,0.0,0.0,0.0,0.0,0.0,0.0,0.0,0.0,0.0,0.0,0.0,0.0,0.0,0.0,0.0,0.0,0.0,0.0,0.0,0.0,0.0,0.0,0.0,0.0,0.0,0.0,0.0,0.0,0.0,0.0,0.0,0.0,0.0,0.0,0.0,0.0,0.0,0.0,0.0,0.0,0.0,0.0,0.0,0.0,0.0,0.0,0.0,0.0,0.0,0.0,0.0,0.0,0.0,0.0,0.0,0.0,0.0,0.0,0.0,0.0,0.0,0.0,0.0,0.0,0.0,0.0,0.0,0.0,0.0,0.0,0.0,0.0,0.0,0.0,0.0,0.0,0.0,0.0,0.0,0.0,0.0,0.0,0.0,0.0,0.0,0.0,0.0,0.0,0.0,0.0,0.0,0.0,0.0,0.0,0.0,0.0,0.0,0.0,0.0,0.0,0.0,0.0,0.0,0.0,0.0,0.0,0.0,0.0,0.0,0.0,0.0,0.0,0.0,0.0,0.0,0.0,0.0,0.0,0.0,0.0,0.0,0.0,0.0,0.0,0.0,0.0,0.0,0.0,0.0,0.0,0.0,0.0,0.0,0.0,0.0,0.0,0.0,0.0,0.0,0.0,0.0,0.0,0.0,0.0,0.0,0.0,0.0,0.0,0.0,0.0,0.0,0.0,0.0,0.0,0.0,0.0,0.0,0.0,0.0,0.0,0.0,0.0,0.0,0.0,0.0,0.0,0.0,0.0,0.0,0.0,0.0,0.0,0.0,0.0,0.0,0.0,0.0,0.0,0.0,0.0,0.0,0.0,0.0,0.0,0.0,0.0,0.0,0.0,0.0,0.0,0.0,0.0,0.0,0.0,0.0,0.0,0.0,0.0,0.0,0.0,0.0,0.0,0.0,0.0,0.0,0.0,0.0,0.0,0.0,0.0,0.0,0.0,0.0,0.0,0.0,0.0,0.0,0.0,0.0,0.0,0.0,0.0,0.0,0.0,0.0,0.0,0.0,0.0,0.0,0.0,0.0,0.0,0.0,0.0,0.0,0.0,0.0,0.0,0.0,0.0,0.0,0.0,0.0,0.0,0.0,0.0,0.0,0.0,0.0,0.0,0.0,0.0,0.0,0.0,0.0,0.0,0.0,0.0,0.0,0.0,0.0,0.0,0.0,0.0,0.0,0.0,0.0,0.0,0.0,0.0,0.0,0.0,0.0,0.0,0.0,0.0,0.0,0.0,0.0,0.0,0.0,0.0,0.0,0.0,0.0,0.0,0.0,0.0,0.0,0.0,0.0,0.0,0.0,0.0,0.0,0.0,0.0,0.0,0.0,0.0,0.0,0.0,0.0,0.0,0.0,0.0,0.0,0.0,0.0,0.0,0.0,0.0,0.0,0.0,0.0,0.0,0.0,0.0,0.0,0.0,0.0,0.0,0.0,0.0,0.0,0.0,0.0,0.0,0.0,0.0,0.0,0.0,0.0,0.0,0.0,0.0,0.0,0.0,0.0,0.0,0.0,0.0,0.0,0.0,0.0,0.0,0.0,0.0,0.0,0.0,0.0,0.0,0.0,0.0,0.0,0.0,0.0,0.0,0.0,0.0,0.0,0.0,0.0,0.0,0.0,0.0,0.0,0.0,0.0,0.0,0.0,0.0,0.0,0.0,0.0,0.0,0.0,0.0,0.0,0.0,0.0,0.0,0.0,0.0,0.0,0.0,0.0,0.0,0.0,0.0,0.0,0.0,0.0,0.0,0.0,0.0,0.0,0.0,0.0,0.0,0.0,0.0,0.0,0.0,0.0,0.0,0.0,0.0,0.0,0.0,0.0,0.0,0.0,0.0,0.0,0.0,0.0,0.0,0.0,0.0,0.0,0.0,0.0,0.0,0.0,0.0,0.0,0.0,0.0,0.0,0.0,0.0,0.0,0.0,0.0,0.0,0.0,0.0,0.0,0.0,0.0,0.0,0.0,0.0,0.0,0.0,0.0,0.0,0.0,0.0,0.0,0.0,0.0,0.0,0.0,0.0,0.0,0.0,0.0,0.0,0.0,0.0,0.0,0.0,0.0,0.0,0.0,0.0,0.0,0.0,0.0,0.0,0.0,0.0,0.0,0.0,0.0,0.0,0.0,0.0,0.0,0.0,0.0,0.0,0.0,0.0,0.0,0.0,0.0,0.0,0.0,0.0,0.0,0.0,0.0,0.0,0.0,0.0,0.0,0.0,0.0,0.0,0.0,0.0,0.0,0.0,0.0,0.0,0.0,0.0,0.0,0.0,0.0,0.0,0.0,0.0,0.0,0.0,0.0,0.0,0.0,0.0,0.0,0.0,0.0,0.0,0.0,0.0,0.0,0.0,0.0,0.0,0.0,0.0,0.0,0.0,0.0,0.0,0.0,0.0,0.0,0.0,0.0,0.0,0.0,0.0,0.0,0.0,0.0,0.0,0.0,0.0,0.0,0.0,0.0,0.0,0.0,0.0,0.0,0.0,0.0,0.0,0.0,0.0,0.0,0.0,0.0,0.0,0.0,0.0,0.0,0.0,0.0,0.0,0.0,0.0,0.0,0.0,0.0,0.0,0.0,0.0,0.0,0.0,0.0,0.0,0.0,0.0,0.0,0.0,0.0,0.0,0.0,0.0,0.0,0.0,0.0,0.0,0.0,0.0,0.0,0.0,0.0,0.0,0.0,0.0,0.0,0.0,0.0,0.0,0.0,0.0,0.0,0.0,0.0,0.0,0.0,0.0,0.0,0.0,0.0,0.0,0.0,0.0,0.0,0.0,0.0,0.0,0.0,0.0,0.0,0.0,0.0,0.0,0.0,0.0,0.0,0.0,0.0,0.0,0.0,0.0,0.0,0.0,0.0,0.0,0.0,0.0,0.0,0.0,0.0,0.0,0.0,0.0,0.0,0.0,0.0,0.0,0.0,0.0,0.0,0.0,0.0,0.0,0.0,0.0,0.0,0.0,0.0,0.0,0.0,0.0,0.0,0.0,0.0,0.0,0.0,0.0,0.0,0.0,0.0,0.0,0.0,0.0,0.0,0.0,0.0,0.0,0.0,0.0,0.0,0.0,0.0,0.0,0.0,0.0,0.0,0.0,0.0,0.0,0.0,0.0,0.0,0.0,0.0,0.0,0.0,0.0,0.0,0.0,0.0,0.0,0.0,0.0,0.0,0.0,0.0,0.0,0.0,0.0,0.0,0.0,0.0,0.0,0.0,0.0,0.0,0.0,0.0,0.0,0.0,0.0,0.0,0.0,0.0,0.0,0.0,0.0,0.0,0.0,0.0,0.0,0.0,0.0,0.0,0.0,0.0,0.0,0.0,0.0,0.0,0.0,0.0,0.0,0.0,0.0,0.0,0.0,0.0,0.0,0.0,0.0,0.0,0.0,0.0,0.0,0.0,0.0,0.0,0.0,0.0,0.0,0.0,0.0,0.0,0.0,0.0,0.0,0.0,0.0,0.0,0.0,0.0,0.0,0.0,0.0,0.0,0.0,0.0,0.0,0.0,0.0,0.0,0.0,0.0,0.0,0.0,0.0,0.0,0.0,0.0,0.0,0.0,0.0,0.0,0.0,0.0,0.0,0.0,0.0,0.0,0.0,0.0,0.0,0.0,0.0,0.0,0.0,0.0,0.0,0.0,0.0,0.0,0.0,0.0,0.0,0.0,0.0,0.0,0.0,0.0,0.0,0.0,0.0,0.0,0.0,0.0,0.0,0.0,0.0,0.0,0.0,0.0,0.0,0.0,0.0,0.0,0.0,0.0,0.0,0.0,0.0,0.0,0.0,0.0,0.0,0.0,0.0,0.0,0.0,0.0,0.0,0.0,0.0,0.0,0.0,0.0,0.0,0.0,0.0,0.0,0.0,0.0,0.0,0.0,0.0,0.0,0.0,0.0,0.0,0.0,0.0,0.0,0.0,0.0,-2.3625,0.0,0.0,0.0,0.0,0.0,0.0,0.0,0.0,0.0,0.0,0.0,0.0,0.0,0.0,0.0,0.0,0.0,0.0,0.0,0.0,0.0,0.0,0.0,0.0,0.0,0.0,0.0,0.0,0.0,0.0,0.0,0.0,0.0,0.0,0.0,0.0,0.0,0.0,0.0,0.0,0.0,0.0,0.0,0.0,0.0,0.0,0.0,0.0,0.0,0.0,0.0,0.0,0.0,0.0,0.0,0.0,0.0,0.0,0.0,0.0,0.0,0.0,0.0,0.0,0.0,0.0,0.0,0.0,0.0,0.0,0.0,0.0,0.0,0.0,0.0,0.0,0.0,0.0,0.0,0.0,0.0,0.0,0.0,0.0,0.0,0.0,0.0,0.0,0.0,0.0,0.0,0.0,0.0,0.0,0.0,0.0,0.0,0.0,0.0,0.0,0.0,0.0,0.0,0.0,0.0,0.0,0.0,0.0,0.0,0.0,-2.4455,-2.4141,-2.467,-2.4672,-2.4019,0.0,0.0,0.0,0.0,0.0,0.0,0.0,0.0,0.0,0.0,0.0,0.0,0.0,0.0,0.0,0.0,0.0,0.0,0.0,0.0,0.0,0.0,0.0,0.0,0.0,0.0,0.0,0.0,0.0,0.0,0.0,0.0,0.0,0.0,0.0,0.0,0.0,0.0,0.0,0.0,0.0,0.0,0.0,0.0,0.0,0.0,0.0,0.0,0.0,0.0,0.0,0.0,0.0,0.0,0.0,0.0,0.0,0.0,0.0,0.0,0.0,0.0,0.0,0.0,0.0,0.0,0.0,0.0,0.0,0.0,0.0,0.0,0.0,0.0,0.0,0.0,0.0,0.0,0.0,0.0,0.0,0.0,0.0,0.0,0.0,0.0,0.0,0.0,0.0,0.0,0.0,0.0,0.0,0.0,0.0,0.0,0.0,0.0,0.0,0.0,0.0,0.0,0.0,0.0,0.0,0.0,0.0,0.0,0.0,0.0,0.0,0.0,-2.5737,-2.5741,-2.4852,0.0,0.0,0.0,0.0,0.0,0.0,0.0,0.0,0.0,0.0,0.0,0.0,0.0,0.0,0.0,0.0,0.0,0.0,0.0,0.0,0.0,0.0,0.0,0.0,0.0,0.0,0.0,0.0,0.0,0.0,0.0,0.0,0.0,0.0,0.0,0.0,0.0,0.0,0.0,0.0,0.0,0.0,0.0,0.0,0.0,0.0,0.0,0.0,0.0,0.0,0.0,0.0,0.0,0.0,0.0,0.0,0.0,0.0,0.0,0.0,0.0,0.0,0.0,0.0,0.0,0.0,0.0,0.0,0.0,0.0,0.0,0.0,0.0,0.0,0.0,0.0,0.0,0.0,0.0,0.0,0.0,0.0,0.0,0.0,0.0,0.0,0.0,0.0,0.0,0.0,0.0,0.0,0.0,0.0,0.0,0.0,0.0,0.0,0.0,0.0,0.0,0.0,0.0,0.0,0.0,0.0,0.0,0.0,0.0,0.0,-2.6181,-2.6083,-2.784,0.0,-2.6448,0.0,0.0,0.0,0.0,0.0,0.0,0.0,0.0,0.0,0.0,0.0,0.0,0.0,0.0,0.0,0.0,0.0,0.0,0.0,0.0,0.0,0.0,0.0,0.0,0.0,0.0,0.0,0.0,0.0,0.0,0.0,0.0,0.0,0.0,0.0,0.0,0.0,0.0,0.0,0.0,0.0,0.0,0.0,0.0,0.0,0.0,0.0,0.0,0.0,0.0,0.0,0.0,0.0,0.0,0.0,0.0,0.0,0.0,0.0,0.0,0.0,0.0,0.0,0.0,0.0,0.0,0.0,0.0,0.0,0.0,0.0,0.0,0.0,0.0,0.0,0.0,0.0,0.0,0.0,0.0,0.0,0.0,0.0,0.0,0.0,0.0,0.0,0.0,0.0,0.0,0.0,0.0,0.0,0.0,0.0,0.0,0.0,0.0,0.0,0.0,0.0,0.0,0.0,0.0,0.0,0.0,0.0,0.0,0.0,0.0,0.0,-2.7973,-2.8204,-2.7977,0.0,0.0,0.0,0.0,0.0,0.0,0.0,0.0,0.0,0.0,0.0,0.0,0.0,0.0,0.0,0.0,0.0,0.0,0.0,0.0,0.0,0.0,0.0,0.0,0.0,0.0,0.0,0.0,0.0,0.0,0.0,0.0,0.0,0.0,0.0,0.0,0.0,0.0,0.0,0.0,0.0,0.0,0.0,0.0,0.0,0.0,0.0,0.0,0.0,0.0,0.0,0.0,0.0,0.0,0.0,0.0,0.0,0.0,0.0,0.0,0.0,0.0,0.0,0.0,0.0,0.0,0.0,0.0,0.0,0.0,0.0,0.0,0.0,0.0,0.0,0.0,0.0,0.0,0.0,0.0,0.0,0.0,0.0,0.0,0.0,0.0,0.0,0.0,0.0,0.0,0.0,0.0,0.0,0.0,0.0,0.0,0.0,0.0,0.0,0.0,0.0,0.0,0.0,0.0,0.0,0.0,0.0,0.0,0.0,0.0,-2.8065,0.0,-2.9743,-2.8967,-2.8225,-2.7733,0.0,0.0,0.0,0.0,0.0,0.0,0.0,0.0,0.0,0.0,0.0,0.0,0.0,0.0,0.0,0.0,0.0,0.0,0.0,0.0,0.0,0.0,0.0,0.0,0.0,0.0,0.0,0.0,0.0,0.0,0.0,0.0,0.0,0.0,0.0,0.0,0.0,0.0,0.0,0.0,0.0,0.0,0.0,0.0,0.0,0.0,0.0,0.0,0.0,0.0,0.0,0.0,0.0,0.0,0.0,0.0,0.0,0.0,0.0,0.0,0.0,0.0,0.0,0.0,0.0,0.0,0.0,0.0,0.0,0.0,0.0,0.0,0.0,0.0,0.0,0.0,0.0,0.0,0.0,0.0,0.0,0.0,0.0,0.0,0.0,0.0,0.0,0.0,0.0,0.0,0.0,0.0,0.0,0.0,0.0,0.0,0.0,0.0,0.0,0.0,0.0,0.0,0.0,0.0,0.0,0.0,0.0,0.0,0.0,-2.8865,-2.9652,-3.1412,-3.0761,-2.9543,0.0,0.0,0.0,0.0,0.0,0.0,0.0,0.0,0.0,0.0,0.0,0.0,0.0,0.0,0.0,0.0,0.0,0.0,0.0,0.0,0.0,0.0,0.0,0.0,0.0,0.0,0.0,0.0,0.0,0.0,0.0,0.0,0.0,0.0,0.0,0.0,0.0,0.0,0.0,0.0,0.0,0.0,0.0,0.0,0.0,0.0,0.0,0.0,0.0,0.0,0.0,0.0,0.0,0.0,0.0,0.0,0.0,0.0,0.0,0.0,0.0,0.0,0.0,0.0,0.0,0.0,0.0,0.0,0.0,0.0,0.0,0.0,0.0,0.0,0.0,0.0,0.0,0.0,0.0,0.0,0.0,0.0,0.0,0.0,0.0,0.0,0.0,0.0,0.0,0.0,0.0,0.0,0.0,0.0,0.0,0.0,0.0,0.0,0.0,0.0,0.0,0.0,0.0,0.0,0.0,0.0,0.0,0.0,0.0,-2.8567,-2.9915,-3.1369,-3.2878,-3.0919,-2.97,0.0,0.0,0.0,0.0,0.0,0.0,0.0,0.0,0.0,0.0,0.0,0.0,0.0,0.0,0.0,0.0,0.0,0.0,0.0,0.0,0.0,0.0,0.0,0.0,0.0,0.0,0.0,0.0,0.0,0.0,0.0,0.0,0.0,0.0,0.0,0.0,0.0,0.0,0.0,0.0,0.0,0.0,0.0,0.0,0.0,0.0,0.0,0.0,0.0,0.0,0.0,0.0,0.0,0.0,0.0,0.0,0.0,0.0,0.0,0.0,0.0,0.0,0.0,0.0,0.0,0.0,0.0,0.0,0.0,0.0,0.0,0.0,0.0,0.0,0.0,0.0,0.0,0.0,0.0,0.0,0.0,0.0,0.0,0.0,0.0,0.0,0.0,0.0,0.0,0.0,0.0,0.0,0.0,0.0,0.0,0.0,0.0,0.0,0.0,0.0,0.0,0.0,0.0,0.0,0.0,0.0,0.0,0.0,0.0,-2.9036,0.0,-3.2216,0.0,-3.0824,-2.9562,0.0,0.0,0.0,0.0,0.0,0.0,0.0,0.0,0.0,0.0,0.0,0.0,0.0,0.0,0.0,0.0,0.0,0.0,0.0,0.0,0.0,0.0,0.0,0.0,0.0,0.0,0.0,0.0,0.0,0.0,0.0,0.0,0.0,0.0,0.0,0.0,0.0,0.0,0.0,0.0,0.0,0.0,0.0,0.0,0.0,0.0,0.0,0.0,0.0,0.0,0.0,0.0,0.0,0.0,0.0,0.0,0.0,0.0,0.0,0.0,0.0,0.0,0.0,0.0,0.0,0.0,0.0,0.0,0.0,0.0,0.0,0.0,0.0,0.0,0.0,0.0,0.0,0.0,0.0,0.0,0.0,0.0,0.0,0.0,0.0,0.0,0.0,0.0,0.0,0.0,0.0,0.0,0.0,0.0,0.0,0.0,0.0,0.0,0.0,0.0,0.0,0.0,0.0,0.0,0.0,0.0,0.0,0.0,-2.7212,-3.0352,-3.1901,-3.205,-3.0638,-3.0522,-2.9165,0.0,0.0,0.0,0.0,0.0,0.0,0.0,0.0,0.0,0.0,0.0,0.0,0.0,0.0,0.0,0.0,0.0,0.0,0.0,0.0,0.0,0.0,0.0,0.0,0.0,0.0,0.0,0.0,0.0,0.0,0.0,0.0,0.0,0.0,0.0,0.0,0.0,0.0,0.0,0.0,0.0,0.0,0.0,0.0,0.0,0.0,0.0,0.0,0.0,0.0,0.0,0.0,0.0,0.0,0.0,0.0,0.0,0.0,0.0,0.0,0.0,0.0,0.0,0.0,0.0,0.0,0.0,0.0,0.0,0.0,0.0,0.0,0.0,0.0,0.0,0.0,0.0,0.0,0.0,0.0,0.0,0.0,0.0,0.0,0.0,0.0,0.0,0.0,0.0,0.0,0.0,0.0,0.0,0.0,0.0,0.0,0.0,0.0,0.0,0.0,0.0,0.0,0.0,0.0,0.0,0.0,0.0,0.0,0.0,-3.0489,-3.1934,-3.2729,-3.2696,-3.0808,-2.9562,0.0,0.0,0.0,0.0,0.0,0.0,0.0,0.0,0.0,0.0,0.0,0.0,0.0,0.0,0.0,0.0,0.0,0.0,0.0,0.0,0.0,0.0,0.0,0.0,0.0,0.0,0.0,0.0,0.0,0.0,0.0,0.0,0.0,0.0,0.0,0.0,0.0,0.0,0.0,0.0,0.0,0.0,0.0,0.0,0.0,0.0,0.0,0.0,0.0,0.0,0.0,0.0,0.0,0.0,0.0,0.0,0.0,0.0,0.0,0.0,0.0,0.0,0.0,0.0,0.0,0.0,0.0,0.0,0.0,0.0,0.0,0.0,0.0,0.0,0.0,0.0,0.0,0.0,0.0,0.0,0.0,0.0,0.0,0.0,0.0,0.0,0.0,0.0,0.0,0.0,0.0,0.0,0.0,0.0,0.0,0.0,0.0,0.0,0.0,0.0,0.0,0.0,0.0,0.0,0.0,0.0,0.0,0.0,0.0,-3.1785,-3.2895,-3.3458,-3.3375,-3.1321,-3.0059,-2.9698,0.0,0.0,0.0,0.0,0.0,0.0,0.0,0.0,0.0,0.0,0.0,0.0,0.0,0.0,0.0,0.0,0.0,0.0,0.0,0.0,0.0,0.0,0.0,0.0,0.0,0.0,0.0,0.0,0.0,0.0,0.0,0.0,0.0,0.0,0.0,0.0,0.0,0.0,0.0,0.0,0.0,0.0,0.0,0.0,0.0,0.0,0.0,0.0,0.0,0.0,0.0,0.0,0.0,0.0,0.0,0.0,0.0,0.0,0.0,0.0,0.0,0.0,0.0,0.0,0.0,0.0,0.0,0.0,0.0,0.0,0.0,0.0,0.0,0.0,0.0,0.0,0.0,0.0,0.0,0.0,0.0,0.0,0.0,0.0,0.0,0.0,0.0,0.0,0.0,0.0,0.0,0.0,0.0,0.0,0.0,0.0,0.0,0.0,0.0,0.0,0.0,0.0,0.0,0.0,0.0,0.0,0.0,0.0,-3.3796,-3.4518,-3.422,-3.2901,-3.2034,-3.0621,0.0,0.0,0.0,0.0,0.0,0.0,0.0,0.0,0.0,0.0,0.0,0.0,0.0,0.0,0.0,0.0,0.0,0.0,0.0,0.0,0.0,0.0,0.0,0.0,0.0,0.0,0.0,0.0,0.0,0.0,0.0,0.0,0.0,0.0,0.0,0.0,0.0,0.0,0.0,0.0,0.0,0.0,0.0,0.0,0.0,0.0,0.0,0.0,0.0,0.0,0.0,0.0,0.0,0.0,0.0,0.0,0.0,0.0,0.0,0.0,0.0,0.0,0.0,0.0,0.0,0.0,0.0,0.0,0.0,0.0,0.0,0.0,0.0,0.0,0.0,0.0,0.0,0.0,0.0,0.0,0.0,0.0,0.0,0.0,0.0,0.0,0.0,0.0,0.0,0.0,0.0,0.0,0.0,0.0,0.0,0.0,0.0,0.0,0.0,0.0,0.0,0.0,0.0,0.0,0.0,0.0,0.0,0.0,0.0,-3.3812,-3.4518,-3.47,-3.4303,-3.2541,-3.1085,0.0,0.0,0.0,0.0,0.0,0.0,0.0,0.0,0.0,0.0,0.0,0.0,0.0,0.0,0.0,0.0,0.0,0.0,0.0,0.0,0.0,0.0,0.0,0.0,0.0,0.0,0.0,0.0,0.0,0.0,0.0,0.0,0.0,0.0,0.0,0.0,0.0,0.0,0.0,0.0,0.0,0.0,0.0,0.0,0.0,0.0,0.0,0.0,0.0,0.0,0.0,0.0,0.0,0.0,0.0,0.0,0.0,0.0,0.0,0.0,0.0,0.0,0.0,0.0,0.0,0.0,0.0,0.0,0.0,0.0,0.0,0.0,0.0,0.0,0.0,0.0,0.0,0.0,0.0,0.0,0.0,0.0,0.0,0.0,0.0,0.0,0.0,0.0,0.0,0.0,0.0,0.0,0.0,0.0,0.0,0.0,0.0,0.0,0.0,0.0,0.0,0.0,0.0,0.0,0.0,0.0,0.0,0.0,-3.3955,-3.4253,-3.4684,-3.4899,-3.4899,-3.3375,-3.2028,0.0,0.0,0.0,0.0,0.0,0.0,0.0,0.0,0.0,0.0,0.0,0.0,0.0,0.0,0.0,0.0,0.0,0.0,0.0,0.0,0.0,0.0,0.0,0.0,0.0,0.0,0.0,0.0,0.0,0.0,0.0,0.0,0.0,0.0,0.0,0.0,0.0,0.0,0.0,0.0,0.0,0.0,0.0,0.0,0.0,0.0,0.0,0.0,0.0,0.0,0.0,0.0,0.0,0.0,0.0,0.0,0.0,0.0,0.0,0.0,0.0,0.0,0.0,0.0,0.0,0.0,0.0,0.0,0.0,0.0,0.0,0.0,0.0,0.0,0.0,0.0,0.0,0.0,0.0,0.0,0.0,0.0,0.0,0.0,0.0,0.0,0.0,0.0,0.0,0.0,0.0,0.0,0.0,0.0,0.0,0.0,0.0,0.0,0.0,0.0,0.0,0.0,0.0,0.0,0.0,0.0,0.0,0.0,-3.422,-3.4883,-3.4899,-3.4899,-3.4906,-3.417,-3.311,0.0,0.0,0.0,0.0,0.0,0.0,0.0,0.0,0.0,0.0,0.0,0.0,0.0,0.0,0.0,0.0,0.0,0.0,0.0,0.0,0.0,0.0,0.0,0.0,0.0,0.0,0.0,0.0,0.0,0.0,0.0,0.0,0.0,0.0,0.0,0.0,0.0,0.0,0.0,0.0,0.0,0.0,0.0,0.0,0.0,0.0,0.0,0.0,0.0,0.0,0.0,0.0,0.0,0.0,0.0,0.0,0.0,0.0,0.0,0.0,0.0,0.0,0.0,0.0,0.0,0.0,0.0,0.0,0.0,0.0,0.0,0.0,0.0,0.0,0.0,0.0,0.0,0.0,0.0,0.0,0.0,0.0,0.0,0.0,0.0,0.0,0.0,0.0,0.0,0.0,0.0,0.0,0.0,0.0,0.0,0.0,0.0,0.0,0.0,0.0,0.0,0.0,0.0,0.0,0.0,0.0,0.0,0.0,-3.4733,-3.4899,-3.4899,-3.4899,-3.4883,-3.4187,-3.311,0.0,0.0,0.0,0.0,0.0,0.0,0.0,0.0,0.0,0.0,0.0,0.0,0.0,0.0,0.0,0.0,0.0,0.0,0.0,0.0,0.0,0.0,0.0,0.0,0.0,0.0,0.0,0.0,0.0,0.0,0.0,0.0,0.0,0.0,0.0,0.0,0.0,0.0,0.0,0.0,0.0,0.0,0.0,0.0,0.0,0.0,0.0,0.0,-2.9892,0.0,0.0,0.0,0.0,0.0,0.0,0.0,0.0,0.0,0.0,0.0,0.0,0.0,0.0,0.0,0.0,0.0,0.0,0.0,0.0,0.0,0.0,0.0,0.0,0.0,0.0,0.0,0.0,0.0,0.0,0.0,0.0,0.0,0.0,0.0,0.0,0.0,0.0,0.0,0.0,0.0,0.0,0.0,0.0,0.0,0.0,0.0,0.0,0.0,0.0,0.0,0.0,0.0,0.0,0.0,0.0,0.0,0.0,0.0,-3.4899,-3.4899,-3.4899,-3.4899,-3.4883,-3.4518,-3.3624,0.0,0.0,0.0,0.0,0.0,0.0,0.0,0.0,0.0,0.0,0.0,0.0,0.0,0.0,0.0,0.0,0.0,0.0,0.0,0.0,0.0,0.0,0.0,0.0,0.0,0.0,0.0,0.0,0.0,0.0,0.0,0.0,0.0,0.0,0.0,0.0,0.0,0.0,0.0,0.0,0.0,0.0,0.0,0.0,0.0,0.0,0.0,0.0,0.0,0.0,0.0,0.0,0.0,0.0,0.0,0.0,0.0,0.0,0.0,0.0,0.0,0.0,0.0,0.0,0.0,0.0,0.0,0.0,0.0,0.0,0.0,0.0,0.0,0.0,0.0,0.0,0.0,0.0,0.0,0.0,0.0,0.0,0.0,0.0,0.0,0.0,0.0,0.0,0.0,0.0,0.0,0.0,0.0,0.0,0.0,0.0,0.0,0.0,0.0,0.0,0.0,0.0,0.0,0.0,0.0,0.0,0.0,-3.4087,-3.4783,-3.4883,-3.4899,-3.4899,-3.4899,-3.4899,-3.4227,-3.2752,0.0,0.0,0.0,0.0,0.0,0.0,0.0,0.0,0.0,0.0,0.0,0.0,0.0,0.0,0.0,0.0,0.0,0.0,0.0,0.0,0.0,0.0,0.0,0.0,0.0,0.0,0.0,0.0,0.0,0.0,0.0,0.0,0.0,0.0,0.0,0.0,0.0,0.0,-2.9943,-3.1623,0.0,0.0,0.0,0.0,0.0,0.0,0.0,0.0,-3.2453,0.0,0.0,0.0,0.0,0.0,0.0,0.0,0.0,0.0,0.0,0.0,0.0,0.0,0.0,0.0,0.0,0.0,0.0,0.0,0.0,0.0,0.0,0.0,0.0,0.0,0.0,0.0,0.0,0.0,0.0,0.0,0.0,0.0,0.0,0.0,0.0,0.0,0.0,0.0,0.0,0.0,0.0,0.0,0.0,0.0,0.0,0.0,0.0,0.0,0.0,0.0,0.0,0.0,0.0,0.0,0.0,-3.3613,-3.3879,-3.427,-3.4883,-3.4899,-3.4899,-3.4899,-3.4899,-3.4203,-3.2768,0.0,0.0,0.0,0.0,0.0,0.0,0.0,0.0,0.0,0.0,0.0,0.0,0.0,0.0,0.0,0.0,0.0,0.0,0.0,0.0,0.0,0.0,0.0,0.0,0.0,0.0,0.0,0.0,0.0,0.0,0.0,0.0,0.0,0.0,0.0,0.0,0.0,0.0,0.0,-3.2959,-3.324,0.0,0.0,0.0,0.0,0.0,0.0,0.0,0.0,-3.237,0.0,0.0,0.0,0.0,0.0,0.0,0.0,0.0,0.0,0.0,0.0,0.0,0.0,0.0,0.0,0.0,0.0,0.0,0.0,0.0,0.0,0.0,0.0,0.0,0.0,0.0,0.0,0.0,0.0,0.0,0.0,0.0,0.0,0.0,0.0,0.0,0.0,0.0,0.0,0.0,0.0,0.0,0.0,0.0,0.0,0.0,0.0,0.0,0.0,0.0,0.0,0.0,0.0,0.0,0.0,-3.3232,-3.3972,-3.4535,-3.4883,-3.4899,-3.4899,-3.4883,-3.4518,-3.3806,0.0,0.0,0.0,0.0,0.0,0.0,0.0,0.0,0.0,0.0,0.0,0.0,0.0,0.0,0.0,0.0,0.0,0.0,0.0,0.0,0.0,0.0,0.0,0.0,0.0,0.0,0.0,0.0,0.0,0.0,0.0,0.0,0.0,0.0,0.0,0.0,0.0,0.0,0.0,0.0,-3.3917,-3.4415,-3.4497,0.0,0.0,0.0,0.0,0.0,0.0,-3.3188,-3.2722,0.0,0.0,0.0,0.0,0.0,0.0,0.0,0.0,0.0,0.0,0.0,0.0,0.0,0.0,0.0,0.0,0.0,0.0,0.0,0.0,0.0,0.0,0.0,0.0,0.0,0.0,0.0,0.0,0.0,0.0,0.0,0.0,0.0,0.0,0.0,0.0,0.0,0.0,0.0,0.0,0.0,0.0,0.0,0.0,0.0,0.0,0.0,0.0,0.0,0.0,0.0,0.0,0.0,0.0,0.0,-3.2752,-3.4005,-3.475,-3.4883,-3.4899,-3.4899,-3.4883,-3.417,-3.3352,0.0,0.0,0.0,0.0,0.0,0.0,0.0,0.0,0.0,0.0,0.0,0.0,0.0,0.0,0.0,0.0,0.0,0.0,0.0,0.0,0.0,0.0,0.0,0.0,0.0,0.0,0.0,0.0,0.0,0.0,0.0,0.0,0.0,0.0,0.0,0.0,0.0,0.0,0.0,0.0,0.0,-3.5342,-3.4958,-3.5413,0.0,0.0,0.0,0.0,-3.4325,-3.3774,0.0,0.0,0.0,0.0,0.0,0.0,0.0,0.0,0.0,0.0,0.0,0.0,0.0,0.0,0.0,0.0,0.0,0.0,0.0,0.0,0.0,0.0,0.0,0.0,0.0,0.0,0.0,0.0,0.0,0.0,0.0,0.0,0.0,0.0,0.0,0.0,0.0,0.0,0.0,0.0,0.0,0.0,0.0,0.0,0.0,0.0,0.0,0.0,0.0,0.0,0.0,0.0,0.0,0.0,0.0,0.0,-3.2646,-3.3508,-3.4253,-3.4866,-3.4899,-3.4899,-3.4883,-3.4187,-3.2991,0.0,0.0,0.0,0.0,0.0,0.0,0.0,0.0,0.0,0.0,0.0,0.0,0.0,0.0,0.0,0.0,0.0,0.0,0.0,0.0,0.0,0.0,0.0,0.0,0.0,0.0,0.0,0.0,0.0,0.0,0.0,0.0,0.0,0.0,0.0,0.0,0.0,0.0,0.0,0.0,0.0,-3.4975,-3.4916,-3.4949,-3.4982,0.0,0.0,-3.4875,-3.4828,-3.4349,0.0,0.0,0.0,0.0,0.0,0.0,0.0,0.0,0.0,0.0,0.0,0.0,0.0,0.0,0.0,0.0,0.0,0.0,0.0,0.0,0.0,0.0,0.0,0.0,0.0,0.0,0.0,0.0,0.0,0.0,0.0,0.0,0.0,0.0,0.0,0.0,0.0,0.0,0.0,0.0,0.0,0.0,0.0,0.0,0.0,0.0,0.0,0.0,0.0,0.0,0.0,0.0,0.0,0.0,0.0,-3.1653,-3.2702,-3.3822,-3.4584,-3.4883,-3.4899,-3.4899,-3.4899,-3.3773,-3.2506,0.0,0.0,0.0,0.0,0.0,0.0,0.0,0.0,0.0,0.0,0.0,0.0,0.0,0.0,0.0,0.0,0.0,0.0,0.0,0.0,0.0,0.0,0.0,0.0,0.0,0.0,0.0,0.0,0.0,0.0,0.0,0.0,0.0,0.0,0.0,0.0,0.0,0.0,0.0,0.0,0.0,0.0,-3.4949,-3.5247,0.0,0.0,0.0,-3.4899,-3.4899,0.0,0.0,0.0,0.0,0.0,0.0,0.0,0.0,0.0,0.0,0.0,0.0,0.0,0.0,0.0,0.0,0.0,0.0,0.0,0.0,0.0,0.0,0.0,0.0,0.0,0.0,0.0,0.0,0.0,0.0,0.0,0.0,0.0,0.0,0.0,0.0,0.0,0.0,0.0,0.0,0.0,0.0,0.0,0.0,0.0,0.0,0.0,0.0,0.0,0.0,0.0,0.0,0.0,0.0,0.0,0.0,0.0,-3.268,-3.4177,-3.4899,-3.4899,-3.4899,-3.4793,-3.453,-3.3182,0.0,0.0,0.0,0.0,0.0,0.0,0.0,0.0,0.0,0.0,0.0,0.0,0.0,0.0,0.0,0.0,0.0,0.0,0.0,0.0,0.0,0.0,0.0,0.0,0.0,0.0,0.0,-2.2301,0.0,0.0,0.0,0.0,0.0,0.0,0.0,0.0,0.0,0.0,0.0,0.0,0.0,0.0,-3.5528,-3.4982,-3.5379,-3.5528,0.0,0.0,-3.4899,-3.4899,-3.4554,-3.425,0.0,0.0,0.0,0.0,0.0,0.0,0.0,0.0,0.0,0.0,0.0,0.0,0.0,0.0,0.0,0.0,0.0,0.0,0.0,0.0,0.0,0.0,0.0,0.0,0.0,0.0,0.0,0.0,0.0,0.0,0.0,0.0,0.0,0.0,0.0,0.0,0.0,0.0,0.0,0.0,0.0,0.0,0.0,0.0,0.0,0.0,0.0,0.0,0.0,0.0,0.0,0.0,0.0,0.0,0.0,-3.268,-3.4137,-3.4899,-3.4899,-3.4899,-3.4473,-3.3609,-3.2478,-3.0629,0.0,0.0,0.0,0.0,0.0,0.0,0.0,0.0,0.0,0.0,0.0,0.0,0.0,0.0,0.0,0.0,0.0,0.0,0.0,0.0,0.0,0.0,0.0,0.0,0.0,0.0,0.0,0.0,0.0,0.0,0.0,0.0,0.0,0.0,0.0,0.0,0.0,0.0,0.0,0.0,0.0,-3.4965,-3.4916,-3.4932,-3.4965,0.0,0.0,-3.4899,-3.4899,-3.4875,-3.4683,-3.4176,0.0,0.0,0.0,0.0,0.0,0.0,0.0,0.0,0.0,0.0,0.0,0.0,0.0,0.0,0.0,0.0,0.0,0.0,0.0,0.0,0.0,0.0,0.0,0.0,0.0,0.0,0.0,0.0,0.0,0.0,0.0,0.0,0.0,0.0,0.0,0.0,0.0,0.0,0.0,0.0,0.0,0.0,0.0,0.0,0.0,0.0,0.0,0.0,0.0,0.0,0.0,0.0,0.0,-3.0986,-3.2034,-3.3922,-3.4899,-3.4899,-3.4899,-3.4352,-3.3273,-3.2303,-3.0425,0.0,0.0,0.0,0.0,0.0,0.0,0.0,0.0,0.0,0.0,0.0,0.0,0.0,0.0,0.0,0.0,0.0,0.0,0.0,0.0,0.0,0.0,0.0,0.0,0.0,0.0,0.0,0.0,-2.3722,-2.3871,-2.4212,0.0,0.0,0.0,0.0,0.0,0.0,0.0,0.0,0.0,0.0,-3.5413,-3.4965,-3.5297,0.0,0.0,-3.5297,-3.5429,-3.4965,-3.528,-3.5243,-3.4266,-3.3892,0.0,0.0,0.0,0.0,0.0,0.0,0.0,0.0,0.0,0.0,0.0,0.0,0.0,0.0,0.0,0.0,0.0,0.0,0.0,0.0,0.0,0.0,0.0,0.0,0.0,0.0,0.0,0.0,0.0,0.0,0.0,0.0,0.0,0.0,0.0,0.0,0.0,0.0,0.0,0.0,0.0,0.0,0.0,0.0,0.0,0.0,0.0,0.0,0.0,0.0,0.0,0.0,-3.0986,-3.1896,-3.3889,-3.4899,-3.4899,-3.4899,-3.4158,-3.266,-3.1887,-2.999,0.0,0.0,0.0,0.0,0.0,0.0,0.0,0.0,0.0,0.0,0.0,0.0,0.0,0.0,0.0,0.0,0.0,0.0,0.0,0.0,0.0,0.0,0.0,0.0,0.0,0.0,0.0,0.0,-2.4631,-2.4912,-2.558,0.0,0.0,0.0,0.0,0.0,0.0,0.0,0.0,0.0,0.0,-3.5515,-3.4975,-3.5346,-3.5562,-3.5263,-3.5479,-3.5562,-3.5263,-3.5678,-3.5589,-3.432,0.0,0.0,0.0,0.0,0.0,0.0,0.0,0.0,0.0,0.0,0.0,0.0,0.0,0.0,0.0,0.0,0.0,0.0,0.0,0.0,0.0,0.0,0.0,0.0,0.0,0.0,0.0,0.0,0.0,0.0,-2.6185,0.0,0.0,0.0,0.0,0.0,0.0,0.0,0.0,0.0,0.0,0.0,0.0,0.0,0.0,0.0,0.0,0.0,0.0,0.0,0.0,0.0,0.0,-3.1201,-3.263,-3.4097,-3.4899,-3.4875,-3.4899,-3.3752,-3.1541,-3.1038,-2.9126,-2.558,0.0,0.0,0.0,0.0,0.0,0.0,0.0,0.0,0.0,0.0,0.0,0.0,0.0,0.0,0.0,0.0,0.0,0.0,0.0,0.0,0.0,0.0,0.0,0.0,0.0,0.0,-2.4215,-2.4238,-2.5026,0.0,0.0,0.0,0.0,0.0,0.0,0.0,0.0,0.0,0.0,-3.4658,-3.5015,-3.4903,-3.4932,-3.5256,-3.5893,-3.5413,-3.5197,-3.5893,-3.6009,-3.5603,0.0,0.0,0.0,0.0,0.0,0.0,0.0,0.0,0.0,0.0,0.0,0.0,0.0,0.0,0.0,0.0,0.0,0.0,0.0,0.0,0.0,0.0,0.0,0.0,0.0,0.0,0.0,-2.8075,-2.768,0.0,0.0,0.0,0.0,0.0,0.0,0.0,0.0,0.0,0.0,0.0,-2.8528,-2.928,0.0,0.0,0.0,0.0,0.0,0.0,0.0,0.0,0.0,0.0,0.0,0.0,-3.0647,-3.155,-3.3371,-3.4218,-3.3935,-3.3894,-3.28,-3.0556,-3.0268,-2.853,-2.5111,0.0,0.0,0.0,0.0,0.0,0.0,0.0,0.0,0.0,0.0,0.0,0.0,0.0,0.0,0.0,0.0,0.0,0.0,0.0,0.0,0.0,0.0,0.0,0.0,0.0,-2.5411,0.0,0.0,0.0,0.0,0.0,0.0,0.0,0.0,0.0,0.0,0.0,-3.4232,-3.4186,-3.5492,-3.6135,-3.5172,-3.585,-3.6492,0.0,0.0,0.0,0.0,0.0,0.0,0.0,0.0,0.0,0.0,0.0,0.0,0.0,0.0,-3.4547,-3.3664,-3.3305,-3.323,-3.344,0.0,0.0,0.0,0.0,0.0,0.0,0.0,0.0,0.0,0.0,0.0,0.0,0.0,0.0,-2.9301,0.0,-2.8873,0.0,0.0,0.0,0.0,0.0,0.0,0.0,0.0,-3.0273,-3.0305,-2.9505,-3.0432,-3.0505,0.0,-3.0345,-2.9936,0.0,0.0,0.0,0.0,0.0,0.0,0.0,0.0,-3.0729,-3.1421,-3.3021,-3.363,-3.3193,-3.2956,-3.192,-2.9974,-2.8937,-2.7384,-2.5212,-2.4143,-2.349,0.0,0.0,0.0,0.0,0.0,0.0,0.0,0.0,0.0,0.0,0.0,0.0,0.0,0.0,0.0,0.0,0.0,0.0,0.0,0.0,0.0,0.0,0.0,-2.6046,0.0,0.0,0.0,0.0,0.0,0.0,0.0,0.0,0.0,-3.307,-3.3812,-3.4328,-3.4248,-3.5784,-3.6548,-3.5586,0.0,0.0,0.0,0.0,0.0,0.0,0.0,-3.7362,-3.5899,-3.5638,-3.5485,-3.4931,-3.5564,-3.5878,-3.4996,0.0,0.0,-3.4397,-3.4008,-3.3903,-3.4158,-3.4008,-3.3844,-3.3829,-3.3829,-3.3769,0.0,0.0,0.0,0.0,0.0,0.0,0.0,0.0,-2.9893,-2.9976,0.0,-2.9843,0.0,0.0,0.0,0.0,0.0,0.0,0.0,0.0,-3.2064,-3.1981,-3.0983,-3.1418,-3.127,-3.0649,-3.1715,-3.1658,-3.0494,-2.933,0.0,0.0,0.0,0.0,0.0,0.0,-3.1325,-3.2209,-3.2948,-3.313,-3.2656,-3.2059,-3.1113,-2.9713,-2.7225,-2.5876,-2.5789,-2.5197,-2.4588,-2.392,-2.3862,0.0,0.0,0.0,0.0,0.0,0.0,0.0,0.0,0.0,0.0,0.0,0.0,0.0,0.0,0.0,0.0,0.0,0.0,0.0,0.0,-2.5727,0.0,0.0,0.0,0.0,0.0,0.0,0.0,0.0,0.0,0.0,-3.2706,-3.3741,-3.4483,-3.4328,0.0,0.0,0.0,0.0,-3.7331,-3.8025,-3.8183,-3.8169,-3.8169,-3.8714,-3.8499,-3.6616,0.0,0.0,-3.5797,-3.6507,-3.6881,-3.5729,-3.5983,-3.6252,-3.5594,-3.4936,-3.4711,-3.5295,-3.4936,-3.4578,-3.4533,-3.4548,-3.4352,-3.3822,0.0,0.0,0.0,0.0,-3.1835,-3.2166,-3.2845,-3.263,-3.2365,-3.205,-3.1835,0.0,0.0,0.0,0.0,0.0,0.0,-3.1022,-3.1029,-3.1741,-3.1851,-3.1451,-3.2368,-3.2363,-3.154,-3.2187,-3.216,-3.1479,-3.0652,-2.9865,-2.9075,0.0,0.0,0.0,0.0,-3.068,-3.1309,-3.1986,-3.213,-3.1709,-3.1059,-2.9939,-2.8326,-2.7144,-2.6286,-2.5792,-2.5643,-2.5033,-2.3972,-2.39,0.0,0.0,0.0,0.0,0.0,0.0,0.0,0.0,0.0,0.0,0.0,0.0,0.0,0.0,0.0,0.0,0.0,0.0,0.0,-2.5825,-2.6056,-2.6651,0.0,0.0,0.0,0.0,0.0,0.0,0.0,0.0,0.0,-3.3964,-3.4622,-3.4958,0.0,0.0,-3.618,-3.5671,-3.6162,-3.6819,-3.7518,0.0,0.0,0.0,-3.7367,-3.6995,-3.6461,-3.6373,-3.6137,-3.5597,-3.5804,-3.5938,-3.5564,-3.5654,-3.5714,-3.5549,-3.5355,-3.528,-3.5444,-3.534,-3.5205,-3.5205,-3.5205,-3.516,-3.5661,-3.4402,-3.3822,-3.3746,-3.3988,-3.4028,-3.4435,-3.5065,-3.48,-3.4402,-3.3972,-3.369,-3.2746,-3.1371,-3.1068,0.0,0.0,0.0,-3.1454,-3.1467,-3.1647,-3.1646,-3.1555,-3.235,-3.237,-3.1709,-3.2104,-3.2198,-3.2014,-3.1608,-3.1101,-3.0445,0.0,0.0,-2.9955,-3.0315,-3.0661,-3.1065,-3.1471,-3.1466,-3.1029,-3.013,-2.893,-2.7403,-2.6982,-2.6617,-2.6224,-2.6184,-2.573,-2.4713,-2.4399,-2.3978,0.0,0.0,0.0,0.0,0.0,0.0,0.0,0.0,0.0,0.0,0.0,-2.4824,-2.4839,0.0,0.0,0.0,-2.4639,-2.5761,-2.6457,-2.7259,0.0,0.0,0.0,0.0,0.0,0.0,0.0,-3.341,-3.4322,-3.4771,-3.4548,-3.5059,-3.5305,-3.494,-3.5748,-3.6245,-3.5845,0.0,-3.6936,-3.734,-3.7636,-3.772,-3.7448,-3.7294,-3.7111,-3.685,-3.6308,-3.5893,-3.5893,-3.6088,-3.6163,-3.5968,-3.5893,-3.5893,-3.5878,-3.5684,-3.5489,-3.5489,-3.5489,-3.5489,-3.5489,-3.5489,-3.5489,-3.7284,-3.7152,-3.576,-3.5495,-3.5992,-3.6009,-3.634,-3.6854,-3.6208,-3.5926,-3.586,-3.5197,-3.417,-3.2934,-3.2133,0.0,-3.2743,-3.2147,-3.2016,-3.2198,-3.1722,-3.1408,-3.1322,-3.1709,-3.1667,-3.1263,-3.1667,-3.191,-3.2049,-3.2049,-3.216,-3.2312,-3.0741,-3.041,-3.1247,-3.1013,-3.0994,-3.1234,-3.1248,-3.0999,-3.051,-2.9348,-2.8128,-2.6922,-2.6835,-2.682,-2.6806,-2.6806,-2.6471,-2.5759,-2.5129,-2.4491,-2.3847,0.0,0.0,0.0,0.0,0.0,0.0,0.0,0.0,0.0,0.0,0.0,0.0,0.0,0.0,0.0,-2.535,0.0,-2.7184,-2.8937,0.0,0.0,0.0,-3.1615,-3.1735,-3.2841,-3.3589,-3.3634,0.0,0.0,-3.4683,0.0,-3.5489,-3.5489,-3.5958,-3.6337,-3.6305,-3.6799,-3.7251,-3.7161,-3.777,-3.7965,-3.723,-3.7612,-3.7739,-3.7154,-3.6776,-3.6357,-3.6357,-3.6746,-3.6926,-3.6417,-3.6402,-3.6372,-3.6402,-3.5878,-3.5489,-3.5489,-3.5489,-3.5489,-3.5489,-3.5489,-3.5489,-3.8785,-3.8702,-3.7798,-3.6887,-3.6009,-3.6009,-3.5777,-3.5413,-3.523,-3.5148,-3.5148,-3.4982,-3.4998,-3.5157,-3.403,-3.351,-3.3473,-3.2376,-3.1784,-3.1537,-3.1423,-3.1336,-3.1336,-3.1724,-3.1508,-3.0836,-3.1204,-3.1264,-3.1011,-3.0981,-3.0993,-3.1019,-3.0631,-3.0778,-3.1396,-3.0925,-3.0705,-3.0762,-3.0791,-3.0484,-2.9842,-2.9201,-2.8469,-2.7667,-2.7185,-2.6951,-2.6937,-2.6846,-2.6257,-2.5114,-2.4897,-2.4302,-2.32,-2.2556,0.0,0.0,0.0,0.0,0.0,0.0,0.0,0.0,0.0,-2.5357,-2.4921,0.0,-2.5612,0.0,-2.6323,-2.7661,-2.9476,-2.9709,0.0,0.0,-3.2064,-3.2677,-3.3664,-3.4068,-3.4442,-3.4981,-3.531,-3.5444,-3.5265,-3.54,-3.5489,-3.5489,-3.5619,-3.5701,-3.5733,-3.5829,-3.5941,-3.5988,-3.6142,-3.6152,-3.6069,-3.6094,-3.6213,-3.5986,-3.5848,-3.5744,-3.5729,-3.5848,-3.5893,-3.5759,-3.5744,-3.5729,-3.5759,-3.5594,-3.5504,-3.5489,-3.5489,-3.5489,-3.5489,-3.5489,-3.5489,-3.8311,-3.8261,-3.788,-3.7069,-3.6025,-3.6357,-3.6257,-3.5876,-3.5876,-3.5694,-3.5363,-3.5032,-3.5114,-3.5455,-3.475,-3.4101,-3.338,-3.2616,-3.1836,-3.1087,-3.1014,-3.0984,-3.0984,-3.1204,-3.1058,-3.0628,-3.0866,-3.0983,-3.0988,-3.0988,-3.1148,-3.1424,-3.1134,-3.1163,-3.1467,-3.0887,-3.0612,-3.0612,-3.0612,-3.0292,-2.961,-2.9157,-2.8542,-2.7831,-2.7351,-2.7041,-2.6925,-2.6899,-2.6392,-2.5313,-2.5019,-2.4554,-2.3795,-2.3308,-2.3118,0.0,0.0,0.0,0.0,0.0,0.0,0.0,0.0,0.0,0.0,0.0,-2.6436,-2.6634,-2.7759,-2.9106,-3.0609,-3.129,-3.199,-3.2871,-3.3484,-3.4008,-3.4474,-3.4741,-3.5085,-3.5459,-3.5489,-3.5489,-3.5489,-3.5489,-3.5489,-3.5489,-3.5489,-3.5489,-3.5489,-3.5489,-3.5489,-3.5489,-3.5489,-3.5489,-3.5489,-3.5489,-3.5489,-3.5489,-3.5489,-3.5489,-3.5489,-3.5489,-3.5489,-3.5489,-3.5489,-3.5489,-3.5489,-3.5489,-3.5489,-3.5489,-3.5489,-3.5489,-3.5489,-3.5489,-3.5489,-3.7119,-3.7102,-3.7003,-3.6589,-3.6042,-3.6605,-3.682,-3.6837,-3.682,-3.6456,-3.5827,-3.5181,-3.4965,-3.5032,-3.4908,-3.4201,-3.3096,-3.2788,-3.1959,-3.0777,-3.0642,-3.0612,-3.0612,-3.0612,-3.0612,-3.0612,-3.0612,-3.0888,-3.138,-3.1395,-3.1669,-3.2191,-3.1654,-3.1395,-3.138,-3.0874,-3.0612,-3.0612,-3.0612,-3.0351,-2.9755,-2.933,-2.8702,-2.7935,-2.7548,-2.7192,-2.6884,-2.6951,-2.6645,-2.5897,-2.5393,-2.5043,-2.4883,-2.4564,-2.4317,0.0,-2.4163,0.0,0.0,0.0,0.0,0.0,0.0,0.0,0.0,-2.7202,-2.7559,-2.8112,-2.9589,-3.0777,-3.1486,-3.3177,-3.4105,-3.3858,-3.4786,-3.5265,-3.4711,-3.5145,-3.5489,-3.5489,-3.5489,-3.5489,-3.5489,-3.5489,-3.5489,-3.5489,-3.5489,-3.5489,-3.5489,-3.5489,-3.5489,-3.5489,-3.5489,-3.5489,-3.5489,-3.5489,-3.5489,-3.5489,-3.5489,-3.5489,-3.5489,-3.5489,-3.5489,-3.5489,-3.5489,-3.5489,-3.5489,-3.5489,-3.5489,-3.5489,-3.5489,-3.5489,-3.5489,-3.5489,-3.5489,-3.7119,-3.7069,-3.6456,-3.6141,-3.5976,-3.5512,-3.5313,-3.5313,-3.5313,-3.523,-3.5098,-3.4949,-3.5214,-3.5703,-3.493,-3.4249,-3.3591,-3.2745,-3.1749,-3.0642,-3.0598,-3.0612,-3.0612,-3.0612,-3.0612,-3.0612,-3.0612,-3.067,-3.0756,-3.0756,-3.0814,-3.0945,-3.0814,-3.0756,-3.0786,0.0,0.0,0.0,-3.0702,-3.0703,-3.0572,-3.0219,-2.9696,-2.9005,-2.8462,0.0,-2.7328,-2.7093,-2.6707,-2.6153,-2.5941,0.0,0.0,0.0,0.0,0.0,0.0,0.0,0.0,0.0,0.0,0.0,-2.77,-2.7398,-2.7117,-2.889,-3.025,-3.0614,-3.1886,-3.3016,-3.3796,-3.4201,-3.4605,-3.5085,-3.534,-3.5444,-3.531,-3.5429,-3.5489,-3.5489,-3.5489,-3.5489,-3.5489,-3.5489,-3.5489,-3.5489,-3.5489,-3.5489,-3.5489,-3.5489,-3.5489,-3.5489,-3.5489,-3.5489,-3.5489,-3.5489,-3.5489,-3.5489,-3.5489,-3.5489,-3.5489,-3.5489,-3.5489,-3.5489,-3.5489,-3.5489,-3.5489,-3.5489,-3.5489,-3.5489,-3.5489,-3.5489,-3.5489,-3.5489,-3.5489,-3.6025,0.0,-3.5611,-3.5462,0.0,-3.5065,-3.4899,-3.4899,-3.4899,-3.4899,-3.4899,-3.4899,-3.5098,-3.5446,-3.4921,-3.4413,-3.3906,-3.3036,-3.2142,-3.1233,-3.0866,-3.0672,-3.0612,-3.0612,-3.0612,-3.0612,-3.0612,-3.0612,-3.0612,-3.0612,-3.0612,-3.0612,-3.0612,-3.0612,-3.0612,-3.0732,-3.0821,-3.0866,-3.0821,-3.0866,-3.0925,-3.0539,-3.0093,-2.9696,0.0,0.0,0.0,0.0,0.0,0.0,0.0,0.0,0.0,0.0,0.0,-2.6686,-2.6731,-2.6996,-2.7576,-2.7728,-2.8062,-2.8744,-2.9072,-2.9047,-2.8559,-3.0467,-3.1694,-3.1694,-3.2986,-3.4019,-3.4301,-3.4754,-3.5115,-3.5459,-3.5489,-3.5489,-3.5489,-3.5489,-3.5489,-3.5489,-3.5489,-3.5489,-3.5489,-3.5489,-3.5489,-3.5489,-3.5489,-3.5489,-3.5489,-3.5489,-3.5489,-3.5489,-3.5489,-3.5489,-3.5489,-3.5489,-3.5489,-3.5489,-3.5489,-3.5489,-3.5489,-3.5489,-3.5489,-3.5489,-3.5489,-3.5489,-3.5489,-3.5489,-3.5489,-3.5489,-3.5489,-3.5489,-3.5489,-3.5489,-3.5489,-3.4899,-3.4899,-3.4899,-3.4899,-3.4899,-3.4899,-3.4899,-3.4899,0.0,0.0,0.0,-3.4899,-3.4899,-3.4899,-3.4899,-3.4594,-3.4018,-3.3423,-3.2703,-3.189,-3.1248,-3.0851,-3.0642,-3.0642,-3.0642,-3.0612,-3.0642,-3.0628,-3.0612,-3.0642,-3.0642,-3.0642,-3.0657,-3.0702,-3.0732,-3.0821,-3.0955,-3.1132,-3.0984,-3.0984,-3.1117,-3.0715,-3.0343,-3.0021,-2.9739,-2.9352,-2.8825,-2.8444,-2.7969,-2.7476,-2.6994,-2.6713,-2.6638,-2.6822,-2.7265,-2.8032,-2.8281,-2.8622,-2.9136,-2.9451,-2.9652,-2.9756,-3.025,-3.0462,-3.0333,-3.1752,-3.2526,-3.2239,-3.3718,-3.462,-3.4446,-3.5049,-3.5489,-3.5489,-3.5489,-3.5489,-3.5489,-3.5489,-3.5489,-3.5489,-3.5489,-3.5489,-3.5489,-3.5489,-3.5489,-3.5489,-3.5489,-3.5489,-3.5489,-3.5489,-3.5489,-3.5489,-3.5489,-3.5489,-3.5489,-3.5489,-3.5489,-3.5489,-3.5489,-3.5489,-3.5489,-3.5489,-3.5489,-3.5489,-3.5489,-3.5489,-3.5489,-3.5489,-3.5489,-3.5489,-3.5489,-3.5489,-3.5489,-3.54,-3.534,-3.4899,-3.4899,-3.4899,-3.4899,-3.4899,-3.4899,-3.4899,-3.4899,-3.4899,-3.4899,-3.4899,-3.4899,-3.4899,-3.4899,-3.4899,-3.4513,-3.3853,-3.3735,-3.3061,0.0,-3.1679,-3.1277,-3.0791,-3.0762,-3.0702,-3.0598,-3.0732,-3.0702,-3.0628,-3.0732,-3.0762,-3.0791,-3.0955,-3.1073,-3.1205,-3.1102,-3.119,-3.1453,-3.1322,-3.1263,-3.1263,-3.1319,-3.0795,-2.9762,-2.9639,-2.9011,-2.7878,-2.7671,-2.7809,-2.8349,-2.8222,-2.8152,-2.8256,-2.8133,-2.7999,-2.7733,-2.8133,-2.8729,-2.948,-3.0046,-3.0599,-3.1123,-3.1287,-3.1275,-3.1188,-3.2392,-3.318,-3.3179,-3.4452,-3.5355,-3.5337,-3.5397,-3.5489,-3.5489,-3.5489,-3.5489,-3.5489,-3.5489,-3.5489,-3.5489,-3.5489,-3.5489,-3.5489,-3.5489,-3.5489,-3.5489,-3.5489,-3.5489,-3.5489,-3.5489,-3.5489,-3.5489,-3.5489,-3.5489,-3.5489,-3.5489,-3.5489,-3.5489,-3.5489,-3.5489,-3.5489,-3.5489,-3.5489,-3.5489,-3.5489,-3.5489,-3.5489,-3.5489,-3.5489,-3.5489,-3.5474,-3.5444,-3.54,-3.5026,-3.4801,-3.4899,-3.4899,-3.4899,-3.4899,-3.4866,-3.4468,-3.4054,-3.3707,-3.369,-3.4154,-3.4866,-3.4899,-3.4899,-3.4899,-3.4899,-3.4739,-3.4399,-3.4086,-3.3588,-3.2928,-3.2238,-3.1751,-3.1422,-3.1102,-3.0925,-3.0881,-3.091,-3.091,-3.0895,-3.0925,-3.0984,-3.0955,-3.1058,-3.1146,-3.1176,-3.1205,-3.1278,-3.138,-3.1351,-3.1351,-3.1409,-3.1123,-3.0687,-3.0088,-2.9774,-2.9337,-2.8723,-2.8286,-2.8241,-2.8592,-2.8181,-2.7972,-2.8053,-2.8013,-2.8017,-2.8128,-2.836,-2.8823,-2.9562,-3.0148,-3.0806,-3.1436,-3.1496,-3.1482,-3.1409,-3.2288,-3.2989,-3.3407,-3.4366,-3.5115,-3.5444,-3.5489,-3.5489,-3.5489,-3.5489,-3.5489,-3.5489,-3.5489,-3.5489,-3.5489,-3.5489,-3.5489,-3.5489,-3.5489,-3.5489,-3.5489,-3.5489,-3.5489,-3.5489,-3.5489,-3.5489,-3.5489,-3.5489,-3.5489,-3.5489,-3.5489,-3.5489,-3.5489,-3.5489,-3.5489,-3.5489,-3.5489,-3.5489,-3.5489,-3.5489,-3.5489,-3.5489,-3.5489,-3.5489,-3.5459,-3.516,-3.4996,-3.4861,-3.4444,-3.4113,-3.475,-3.4899,-3.4717,-3.4651,-3.4601,-3.4038,-3.3398,-3.2718,-3.2702,-3.3348,-3.4336,-3.4568,-3.475,-3.4899,-3.4899,-3.4899,-3.4851,-3.4472,-3.4118,-3.3777,-3.2917,-3.2293,-3.1934,-3.1523,-3.116,-3.091,-3.0925,-3.0881,-3.0881,-3.0925,-3.1028,-3.1146,-3.119,-3.1205,-3.119,-3.1292,-3.1336,-3.1336,-3.1202,-3.1185,-3.1256,-3.0748,-3.0372,-3.0043,-2.9609,-2.9295,-2.9116,-2.8637,-2.8442,-2.8562,-2.8083,-2.7809,-2.7824,-2.7824,-2.8004,-2.8338,-2.8517,-2.8951,-2.9729,-3.0223,-3.0791,-3.1436,-3.1496,-3.1496,-3.154,-3.1959,-3.2527,-3.3215,-3.3858,-3.4472,-3.4876,-3.4996,-3.504,-3.5055,-3.519,-3.5235,-3.528,-3.54,-3.5489,-3.5489,-3.5489,-3.5489,-3.5489,-3.5489,-3.5489,-3.5489,-3.5489,-3.5489,-3.5489,-3.5489,-3.5489,-3.5489,-3.5489,-3.5489,-3.5489,-3.5489,-3.5489,-3.5489,-3.5489,-3.5489,-3.5489,-3.5489,-3.5489,-3.5489,-3.5489,-3.5489,-3.5489,-3.5489,-3.5489,-3.5459,-3.5043,-3.4444,-3.4039,-3.3634,-3.338,-3.4303,-3.475,-3.4203,-3.3905,-3.3856,-3.3812,-3.3332,-3.2702,-3.2669,-3.2752,-3.2978,-3.3591,-3.4253,-3.4849,-3.4866,-3.489,-3.4883,-3.4851,-3.4546,-3.4093,-3.3793,-3.3072,-3.2158,-3.2018,-3.1379,-3.0363,-3.0361,-3.0375,-3.0217,-3.0346,-3.0757,-3.1378,-3.1453,-3.1453,-3.1482,-3.1452,-3.1452,-3.1452,-3.0883,-3.0569,-3.0597,-3.0537,-2.9968,-2.8801,-2.8727,-2.8397,-2.7899,-2.7705,-2.7974,-2.8532,-2.8517,-2.8487,-2.8472,-2.8487,-2.8274,-2.7764,-2.8248,-2.9131,-3.0238,-3.0462,-3.0733,-3.1406,-3.1496,-3.1496,-3.1496,-3.1555,-3.1869,-3.2512,-3.32,-3.3619,-3.3679,-3.3754,-3.3829,-3.3888,-3.4277,-3.4593,-3.4622,-3.513,-3.5489,-3.5489,-3.5415,-3.5489,-3.5474,-3.5489,-3.5489,-3.5489,-3.5489,-3.5489,-3.5489,-3.5489,-3.5489,-3.5489,-3.5489,-3.5489,-3.5489,-3.5489,-3.5489,-3.5489,-3.5489,-3.5489,-3.5489,-3.5489,-3.5489,-3.5489,-3.5489,-3.5489,-3.5489,-3.5489,-3.5459,-3.525,-3.4756,-3.4068,-3.3095,-3.2662,-3.2766,-3.4352,-3.422,-3.3922,-3.3292,-3.258,-3.2514,-3.2083,-3.1421,-3.1404,-3.1636,-3.2067,-3.2359,-3.3143,-3.4237,-3.4237,-3.4468,-3.4883,-3.4899,-3.4804,-3.4546,-3.4168,-3.3511,-3.2799,-3.2422,-3.1587,-3.0427,-3.0382,-3.0216,-2.9937,-3.0246,-3.06,-3.0913,-3.1301,-3.1496,-3.1466,-3.1107,-3.0883,-3.0883,-3.0283,-2.9774,-2.943,-2.9385,-2.9146,-2.8622,-2.8229,-2.7914,-2.763,-2.7585,-2.7735,-2.7989,-2.8019,-2.8019,-2.8019,-2.8019,-2.7899,-2.7645,-2.7854,-2.8397,-2.9325,-2.9744,-3.0238,-3.0868,-3.1271,-3.1496,-3.1496,-3.1496,-3.163,-3.1914,-3.2542,-3.3051,-3.341,-3.3499,-3.3499,-3.3529,-3.3754,-3.3919,-3.3903,-3.4143,-3.4442,-3.4816,-3.4891,-3.5085,-3.54,-3.5489,-3.5489,-3.5489,-3.5489,-3.5489,-3.5489,-3.5489,-3.5489,-3.5489,-3.5489,-3.5489,-3.5489,-3.5489,-3.5489,-3.5489,-3.5489,-3.5489,-3.5474,-3.5489,-3.5489,-3.5474,-3.5444,-3.5444,-3.5489,-3.5115,-3.4891,-3.4696,-3.3948,-3.3006,-3.2079,-3.1914,-3.2064,-3.3988,-3.3547,-3.3491,-3.2779,-3.1631,-3.1598,-3.1184,-3.0539,-3.0489,-3.0803,-3.1267,-3.13,-3.1995,-3.311,-3.3392,-3.3789,-3.427,-3.4502,-3.4584,-3.457,-3.4252,-3.3774,-3.3182,-3.2439,-3.1467,-3.0381,-3.0028,-2.9729,-2.9415,-2.9953,-3.0328,-3.0552,-3.0972,-3.1316,-3.1436,-3.0972,-3.0702,-3.0462,-2.9894,-2.9292,-2.8682,-2.8412,-2.8323,-2.8278,-2.7854,-2.7585,-2.7585,-2.7585,-2.7585,-2.76,-2.7585,-2.7585,-2.7585,-2.7585,-2.7585,-2.7585,-2.7585,-2.7899,-2.8562,-2.922,-2.9876,-3.0462,-3.1122,-3.1496,-3.1496,-3.1496,-3.1496,-3.1555,-3.1973,-3.2467,-3.2856,-3.2961,-3.2961,-3.2976,-3.3095,-3.3215,-3.323,-3.335,-3.3799,-3.4384,-3.4563,-3.4758,-3.5325,-3.5489,-3.5489,-3.5489,-3.5489,-3.5489,-3.5489,-3.5489,-3.5489,-3.5489,-3.5489,-3.5489,-3.5489,-3.5489,-3.5489,-3.5489,-3.5489,-3.5429,-3.5355,-3.5325,-3.51,-3.4846,-3.5085,-3.5026,-3.4711,-3.4399,-3.4114,-3.3799,-3.317,-3.2288,-3.1735,-3.1555,-3.1525,-3.2762,-3.2768,-3.2752,-3.2266,-3.1598,-3.1565,-3.1168,-3.0489,-3.0489,-3.0522,-3.0588,-3.0588,-3.0986,-3.1763,-3.2398,-3.2785,-3.2967,-3.3607,-3.3962,-3.3991,-3.408,-3.379,-3.3151,-3.2,-3.0838,-2.982,-2.9157,-2.8757,-2.8697,-2.931,-2.9924,-3.0447,-3.0552,-3.0896,-3.1346,-3.1361,-3.1135,-3.0432,-2.9819,-2.922,-2.8592,-2.7989,-2.769,-2.769,-2.7615,-2.7585,-2.7585,-2.7585,-2.7585,-2.7585,-2.7585,-2.7585,-2.7585,-2.7585,-2.7585,-2.7585,-2.7585,-2.7884,-2.8517,-2.9175,-2.9846,-3.0447,-3.1092,-3.1496,-3.1496,-3.1496,-3.1496,-3.1496,-3.1585,-3.166,-3.172,-3.1824,-3.1765,-3.178,-3.2228,-3.2482,-3.2557,-3.3006,-3.3739,-3.4264,-3.4384,-3.4651,-3.534,-3.5489,-3.5385,-3.5385,-3.5444,-3.5459,-3.54,-3.5444,-3.5489,-3.5489,-3.5489,-3.5489,-3.5474,-3.5489,-3.5489,-3.5444,-3.5385,-3.5265,-3.507,-3.4846,-3.4472,-3.4233,-3.4382,-3.4247,-3.3784,-3.3455,-3.3215,-3.2961,-3.2706,-3.2064,-3.16,-3.1525,-3.1496,-3.2415,-3.1967,-3.1504,-3.1118,-3.0903,-3.0886,-3.0737,-3.0506,-3.0489,-3.0489,-3.0489,-3.0489,-3.0654,-3.0903,-3.1168,-3.2067,-3.3342,-3.3673,-3.4038,-3.4445,-3.4576,-3.4308,-3.3684,-3.2503,-3.127,-3.0116,-2.9075,-2.8368,-2.8038,-2.8648,-2.9056,-2.94,-3.0118,-3.0642,-3.0836,-3.0866,-3.0552,-2.9924,-2.928,-2.8637,-2.8008,-2.772,-2.7585,-2.7585,-2.7585,-2.7585,-2.7585,-2.7585,-2.7585,-2.7585,-2.7585,-2.7585,-2.7585,-2.7585,-2.7585,-2.7585,-2.7585,-2.7705,-2.8049,-2.9007,-2.9669,-2.9953,-3.0913,-3.1496,-3.1496,-3.1496,-3.1496,-3.1496,-3.1496,-3.1496,-3.1496,-3.1496,-3.1496,-3.154,-3.172,-3.1884,-3.1884,-3.2093,-3.2467,-3.311,-3.3559,-3.4128,-3.4683,-3.4846,-3.4666,-3.4382,-3.4951,-3.522,-3.5026,-3.519,-3.5459,-3.5489,-3.5489,-3.534,-3.4846,-3.5265,-3.5459,-3.534,-3.5205,-3.4846,-3.4623,-3.4233,-3.3858,-3.3604,-3.3694,-3.3679,-3.329,-3.2946,-3.2647,-3.2183,-3.1944,-3.1914,-3.1555,-3.1511,-3.1496,-3.1851,-3.1515,-3.0803,-3.0489,-3.0489,-3.0489,-3.0489,-3.0489,-3.0489,-3.0489,-3.0489,-3.0489,-3.0489,-3.0489,-3.0489,-3.1553,-3.3259,-3.321,-3.3491,-3.4154,-3.4254,-3.3957,-3.329,-3.2338,-3.131,-3.0219,-2.9058,-2.8157,-2.769,-2.8064,-2.8408,-2.8682,-2.9505,-3.0118,-3.0387,-3.0328,-2.9968,-2.9562,-2.8936,-2.8278,-2.769,-2.7585,-2.7585,-2.7585,-2.7585,-2.7585,-2.7585,-2.7585,-2.7585,-2.7585,-2.7585,-2.7585,-2.7585,-2.7585,-2.7585,-2.7585,-2.7585,-2.7585,-2.772,-2.8663,-2.9355,-2.9636,-3.0552,-3.1241,-3.1451,-3.1496,-3.1496,-3.1496,-3.1496,-3.1496,-3.1496,-3.1496,-3.1496,-3.1496,-3.1496,-3.1496,-3.1496,-3.1511,-3.1839,-3.2482,-3.3155,-3.3694,-3.4084,-3.4143,-3.3963,-3.3529,-3.4337,-3.4637,-3.4638,-3.4831,-3.5295,-3.5444,-3.5489,-3.519,-3.4771,-3.4861,-3.4741,-3.4592,-3.4517,-3.4264,-3.3979,-3.3589,-3.329,-3.3051,-3.2976,-3.3006,-3.2826,-3.2482,-3.2049,-3.16,-3.1585,-3.1645,-3.1511,-3.1511,-3.1451,-3.0969,-3.1399,-3.0803,-3.0489,-3.0489,-3.0489,-3.0489,-3.0489,-3.0489,-3.0489,-3.0489,-3.0489,-3.0489,-3.0489,-3.0489,-3.1321,-3.2365,-3.2012,-3.2194,-3.2988,-3.3148,-3.2836,-3.2165,-3.1534,-3.0757,-2.9894,-2.8845,-2.8082,-2.7715,-2.7715,-2.7989,-2.8457,-2.8652,-2.931,-3.0417,-2.9879,-2.9636,-2.937,-2.8891,-2.8289,-2.769,-2.7585,-2.7585,-2.7585,-2.7585,-2.7585,-2.7585,-2.7585,-2.7585,-2.7585,-2.7585,-2.7585,-2.7585,-2.7585,-2.7585,-2.7585,-2.7585,-2.7585,-2.766,-2.8274,-2.8981,-2.9535,-3.0193,-3.0853,-3.1391,-3.1496,-3.1496,-3.1496,-3.1496,-3.1496,-3.1496,-3.1496,-3.1496,-3.1496,-3.1496,-3.1496,-3.1496,-3.1511,-3.1765,-3.2392,-3.2991,-3.341,-3.3484,-3.3499,-3.3425,-3.3425,-3.3604,-3.3963,-3.4369,-3.4533,-3.4756,-3.522,-3.516,-3.4711,-3.4562,-3.4444,-3.3993,-3.3664,-3.3604,-3.344,-3.32,-3.2871,-3.2557,-3.2333,-3.2363,-3.2378,-3.2183,-3.1884,-3.1809,-3.1496,-3.1496,-3.1466,-3.1481,-3.1451,-3.1331,-3.1101,-3.0837,-3.0605,-3.0489,-3.0489,-3.0489,-3.0489,-3.0489,-3.0489,-3.0489,-3.0489,-3.0489,-3.0489,-3.0489,-3.0506,-3.1019,-3.183,-3.125,-3.1769,-3.3187,-3.3495,-3.3129,-3.238,-3.1429,-3.0423,-2.9406,-2.8652,-2.8231,-2.8076,-2.776,-2.7735,-2.7944,-2.8408,-2.8771,-2.9235,-2.9415,-2.9427,-2.8921,-2.8727,-2.8263,-2.766,-2.7585,-2.7585,-2.7585,-2.7585,-2.7585,-2.7585,-2.7585,-2.7585,-2.7585,-2.7585,-2.7585,-2.7585,-2.7585,-2.7585,-2.7585,-2.7585,-2.7585,-2.7675,-2.8229,-2.8846,-2.952,-3.0133,-3.0778,-3.1376,-3.1496,-3.1496,-3.1496,-3.1496,-3.1496,-3.1496,-3.1496,-3.1496,-3.1496,-3.1496,-3.1496,-3.1496,-3.1496,-3.1824,-3.2273,-3.2302,-3.2318,-3.2691,-3.2826,-3.2826,-3.2856,-3.314,-3.3649,-3.4219,-3.4039,-3.4114,-3.4637,-3.4367,-3.4083,-3.3724,-3.3455,-3.3155,-3.2886,-3.2781,-3.2796,-3.2542,-3.2288,-3.1974,-3.1795,-3.1809,-3.169,-3.1511,-3.1421,-3.1361,-3.1406,-3.1376,-3.1376,-3.1421,-3.1241,-3.0943,-3.0919,-3.0506,-3.0489,-3.0489,-3.0489,-3.0489,-3.0489,-3.0489,-3.0489,-3.0489,-3.0489,-3.0489,-3.0489,-3.0489,-3.0489,-3.0919,-3.1515,-3.1085,-3.1648,-3.2829,-3.2994,-3.2829,-3.2541,-3.1648,-3.0528,-2.9505,-2.9035,-2.8764,-2.8567,-2.8125,-2.787,-2.7951,-2.8121,-2.8368,-2.8547,-2.8727,-2.8708,-2.8562,-2.8353,-2.8049,-2.769,-2.7585,-2.7585,-2.7585,-2.7585,-2.7585,-2.7585,-2.7585,-2.7585,-2.7585,-2.7585,-2.7585,-2.7585,-2.7585,-2.7585,-2.7585,-2.7585,-2.7585,-2.7645,-2.7974,-2.8502,-2.916,-2.9804,-3.0432,-3.1002,-3.1286,-3.1496,-3.1496,-3.1496,-3.1496,-3.1496,-3.1496,-3.1496,-3.1496,-3.1496,-3.1496,-3.1496,-3.1496,-3.163,-3.1914,-3.1795,-3.178,-3.1989,-3.2153,-3.2123,-3.2198,-3.2497,-3.3006,-3.3455,-3.338,-3.3604,-3.3829,-3.3858,-3.341,-3.2721,-3.2452,-3.2258,-3.2093,-3.1974,-3.2049,-3.2004,-3.1854,-3.1615,-3.1481,-3.1436,-3.1137,-3.0943,-3.0987,-3.1001,-3.1077,-3.1002,-3.0853,-3.0702,-3.0432,-3.0193,-3.0526,-3.0506,-3.0489,-3.0489,-3.0489,-3.0489,-3.0489,-3.0489,-3.0489,-3.0489,-3.0489,-3.0489,-3.0489,-3.0489,-3.0489,-3.0853,-3.1416,-3.1399,-3.1449,-3.1681,-3.173,-3.1863,-3.2144,-3.1715,-3.0904,-2.9978,-2.975,-2.9506,-2.9104,-2.8614,-2.8312,-2.8238,-2.7945,-2.794,-2.8289,-2.7929,-2.8004,-2.8308,-2.7929,-2.7645,-2.7585,-2.7585,-2.7585,-2.7585,-2.7585,-2.7585,-2.7585,-2.7585,-2.7585,-2.7585,-2.7585,-2.7585,-2.7585,-2.7585,-2.7585,-2.7585,-2.7585,-2.7585,-2.7585,-2.766,-2.7989,-2.8652,-2.9205,-2.9846,-3.0479,-3.1017,-3.1376,-3.1481,-3.1496,-3.1496,-3.1496,-3.1496,-3.1496,-3.1496,-3.1496,-3.1496,-3.1496,-3.1496,-3.1555,-3.1555,-3.1511,-3.1511,-3.16,-3.1585,-3.1615,-3.172,-3.178,-3.2093,-3.2632,-3.2916,-3.2871,-3.3006,-3.3185,-3.2811,-3.2153,-3.2093,-3.1929,-3.1824,-3.166,-3.1675,-3.169,-3.157,-3.1496,-3.1331,-3.1017,-3.0703,-3.0582,-3.0672,-3.0462,-3.0223,-3.0133,-3.0028,-2.9924,-2.9744,-2.952,-3.0716,-3.0489,-3.0489,-3.0489,-3.0489,-3.0489,-3.0489,-3.0489,-3.0489,-3.051,-3.0489,-3.0489,-3.0489,-3.0489,-3.0489,-3.0621,-3.0803,-3.082,-3.1135,-3.1449,-3.1002,-3.0886,-3.1168,-3.1466,-3.1153,-3.0361,-2.9984,-2.9744,-2.9589,-2.9127,-2.8693,-2.8288,-2.8183,-2.798,-2.7855,-2.7705,-2.769,-2.7824,-2.772,-2.76,-2.76,-2.7585,-2.7585,-2.7585,-2.7585,-2.7585,-2.7585,-2.7585,-2.7585,-2.7585,-2.7585,-2.7585,-2.7585,-2.7585,-2.7585,-2.7585,-2.7585,-2.7585,-2.7585,-2.7585,-2.7929,-2.8487,-2.8831,-2.934,-3.0402,-3.0657,-3.1002,-3.1331,-3.1496,-3.1496,-3.1496,-3.1496,-3.1496,-3.1496,-3.1496,-3.1496,-3.1496,-3.1496,-3.1496,-3.1496,-3.1496,-3.1496,-3.1496,-3.1525,-3.1645,-3.1914,-3.1854,-3.1795,-3.2407,-3.2273,-3.2138,-3.2303,-3.2378,-3.2049,-3.178,-3.175,-3.1675,-3.16,-3.1525,-3.1511,-3.1525,-3.1481,-3.1481,-3.1451,-3.0868,-3.0479,-3.0477,-3.0522,-3.0058,-2.9415,-2.9549,-2.9594,-2.946,-2.9322,-2.8966,-3.0834,-3.0671,-3.0671,-3.0688,-3.0671,-3.0654,-3.0671,-3.0671,-3.0671,-3.063,-3.0609,-3.0572,-3.0531,-3.0506,-3.0489,-3.0489,-3.0489,-3.0489,-3.0737,-3.1052,-3.1035,-3.0837,-3.0853,-3.1482,-3.1515,-3.0551,-3.022,-3.0113,-3.0027,-2.9617,-2.9219,-2.8904,-2.8504,-2.8158,-2.7934,-2.77,-2.7585,-2.76,-2.7585,-2.7625,-2.769,-2.7625,-2.769,-2.7715,-2.7725,-2.77,-2.775,-2.77,-2.77,-2.7725,-2.7675,-2.7625,-2.7675,-2.7625,-2.7585,-2.7585,-2.7585,-2.7585,-2.7585,-2.76,-2.7779,-2.8229,-2.8577,-2.9325,-3.0073,-3.0552,-3.1152,-3.1421,-3.1496,-3.1496,-3.1496,-3.1496,-3.1496,-3.1496,-3.1496,-3.1496,-3.1496,-3.1496,-3.1496,-3.1496,-3.1496,-3.1496,-3.1496,-3.1496,-3.169,-3.1869,-3.172,-3.1914,-3.2243,-3.1809,-3.157,-3.1809,-3.1929,-3.1735,-3.163,-3.1615,-3.16,-3.1511,-3.1331,-3.1331,-3.1301,-3.1286,-3.1137,-3.1002,-3.0599,-3.0255,-3.0073,-2.9774,-2.9232,-2.8873,-2.9056,-2.8996,-2.8813,-2.8783,-2.8453,-3.0972,-3.0912,-3.0912,-3.0912,-3.0892,-3.0912,-3.0871,-3.0892,-3.0892,-3.081,-3.0749,-3.0729,-3.0671,-3.0531,-3.0589,-3.0531,-3.0551,-3.0572,-3.0551,-3.0871,-3.1153,-3.1269,-3.0771,-3.1779,-3.1624,-3.0675,-3.0506,-3.0485,-3.0342,-3.0027,-2.9853,-2.955,-2.8857,-2.8496,-2.8328,-2.7968,-2.776,-2.7845,-2.775,-2.7825,-2.79,-2.781,-2.779,-2.7905,-2.7865,-2.789,-2.794,-2.7905,-2.7865,-2.8044,-2.779,-2.7775,-2.7825,-2.7735,-2.7735,-2.776,-2.7735,-2.761,-2.766,-2.7675,-2.76,-2.7824,-2.8708,-2.9442,-2.9636,-3.0372,-3.1047,-3.1241,-3.1436,-3.1496,-3.1553,-3.1524,-3.1568,-3.1568,-3.1539,-3.1524,-3.1496,-3.1496,-3.1496,-3.1496,-3.1496,-3.1496,-3.1496,-3.1496,-3.1525,-3.169,-3.1585,-3.172,-3.1884,-3.166,-3.1511,-3.157,-3.16,-3.154,-3.1511,-3.1511,-3.1525,-3.1481,-3.1197,-3.1077,-3.1032,-3.0943,-3.0702,-3.0449,-3.0404,-2.9836,-2.9086,-2.8682,-2.8408,-2.8229,-2.8364,-2.8139,-2.7899,-2.8034,-2.7884,-3.1389,-3.0912,-3.0912,-3.0912,-3.0912,-3.0912,-3.0912,-3.0912,-3.0912,-3.0892,-3.0871,-3.0851,-3.0831,-3.0794,-3.079,-3.0831,-3.081,-3.081,-3.0794,-3.0931,-3.1562,-3.1462,-3.1074,-3.1679,-3.1406,-3.0717,-3.0609,-3.0609,-3.0489,-3.0384,-3.0156,-2.981,-2.9579,-2.9287,-2.8912,-2.8543,-2.8504,-2.867,-2.8262,-2.8171,-2.8334,-2.8107,-2.7965,-2.8005,-2.798,-2.8054,-2.8088,-2.8029,-2.8094,-2.8192,-2.8118,-2.8073,-2.818,-2.7959,-2.8057,-2.831,-2.7968,-2.777,-2.8002,-2.781,-2.7585,-2.7685,-2.8055,-2.8274,-2.8816,-2.9636,-3.0283,-3.0687,-3.1167,-3.1567,-3.1683,-3.1727,-3.1712,-3.1712,-3.1653,-3.1625,-3.1539,-3.1496,-3.1496,-3.1496,-3.1496,-3.1496,-3.1496,-3.1496,-3.1496,-3.1496,-3.1496,-3.1496,-3.1496,-3.1496,-3.1496,-3.1496,-3.1496,-3.1496,-3.1496,-3.1466,-3.1376,-3.1197,-3.0898,-3.0702,-3.0657,-3.0462,-3.0148,-3.0223,-3.0432,-2.9624,-2.8487,-2.8442,-2.8334,-2.8004,-2.772,-2.7705,-2.7675,-2.76,-2.7585,-3.1523,-3.1052,-3.1052,-3.1032,-3.1032,-3.1052,-3.1015,-3.1052,-3.1052,-3.1012,-3.0952,-3.0952,-3.0932,-3.0912,-3.0912,-3.0912,-3.0912,-3.0912,-3.0892,-3.0975,-3.131,-3.1243,-3.1063,-3.1189,-3.1124,-3.0729,-3.077,-3.0753,-3.0729,-3.0688,-3.0551,-3.0284,-3.0075,-2.9799,-2.9534,-2.915,-2.9042,-2.9157,-2.8896,-2.874,-2.8701,-2.8503,-2.822,-2.8113,-2.8128,-2.8235,-2.859,-2.8259,-2.8486,-2.8779,-2.8708,-2.8438,-2.8374,-2.8262,-2.8407,-2.8374,-2.8431,-2.8057,-2.8107,-2.7949,-2.779,-2.7806,-2.8047,-2.8408,-2.8966,-2.9659,-3.0337,-3.0805,-3.1332,-3.1798,-3.1883,-3.152,-3.1537,-3.1679,-3.1468,-3.1353,-3.1435,-3.1496,-3.1496,-3.1496,-3.1496,-3.1496,-3.1496,-3.1496,-3.1496,-3.1496,-3.1496,-3.1496,-3.1496,-3.1496,-3.1496,-3.1496,-3.1496,-3.1496,-3.1496,-3.1421,-3.1241,-3.0898,-3.0447,-3.0223,-3.0073,-2.9804,-2.952,-2.9624,-2.9654,-2.8951,-2.8079,-2.8139,-2.8154,-2.7854,-2.7645,-2.76,-2.7585,-2.7585,-2.7585,-3.162,-3.1271,-3.1271,-3.1232,-3.121,-3.119,-3.1171,-3.119,-3.119,-3.1131,-3.1035,-3.1015,-3.1012,-3.0972,-3.0972,-3.0952,-3.0952,-3.0972,-3.0992,-3.1022,-3.1059,-3.1056,-3.1006,-3.1059,-3.1079,-3.0952,-3.0932,-3.0892,-3.0892,-3.0912,-3.0831,-3.0773,-3.0472,-3.0267,-3.0123,-2.9799,-2.9645,-2.9739,-2.9496,-2.9377,-2.9219,-2.9035,-2.8787,-2.8637,-2.859,-2.8764,-2.9044,-2.8858,-2.8897,-2.97,-2.9416,-2.8974,-2.8669,-2.863,-2.8748,-2.8389,-2.8606,-2.8479,-2.8244,-2.8063,-2.7955,-2.8025,-2.8545,-2.886,-2.9164,-2.9831,-3.0411,-3.0799,-3.1138,-3.1483,-3.166,-3.1177,-3.1091,-3.1235,-3.088,-3.0902,-3.1252,-3.1419,-3.1402,-3.1496,-3.1496,-3.1496,-3.1496,-3.1496,-3.1496,-3.1496,-3.1496,-3.1496,-3.1496,-3.1496,-3.1524,-3.1496,-3.1496,-3.1496,-3.1496,-3.1451,-3.1271,-3.0746,-3.0178,-2.9819,-2.9579,-2.928,-2.9026,-2.8742,-2.8517,-2.8038,-2.7839,-2.7809,-2.7764,-2.76,-2.7585,-2.7585,-2.7585,-2.7585,-2.7585,-3.2213,-3.162,-3.162,-3.1468,-3.123,-3.119,-3.121,-3.119,-3.119,-3.119,-3.1171,-3.1151,-3.1151,-3.1148,-3.1151,-3.1151,-3.1131,-3.1112,-3.1112,-3.1112,-3.1131,-3.1112,-3.1112,-3.1131,-3.1151,-3.1131,-3.1052,-3.0972,-3.0932,-3.0912,-3.0932,-3.0892,-3.0794,-3.0753,-3.0634,-3.041,-3.033,-3.0435,-3.0118,-2.9924,-2.9951,-2.9689,-2.9483,-2.9348,-2.9348,-2.9483,-2.9595,-2.9595,-2.9633,-2.9788,-2.9722,-2.9639,-2.955,-2.9512,-2.9556,-2.9461,-2.9058,-2.8772,-2.8646,-2.8244,-2.8054,-2.8094,-2.8568,-2.88,-2.901,-2.9515,-3.0167,-3.0258,-3.0396,-3.051,-3.0498,-3.0501,-3.0289,-3.0312,-3.0396,-3.0445,-3.0852,-3.1167,-3.1349,-3.1626,-3.1577,-3.1524,-3.1553,-3.1553,-3.1582,-3.1611,-3.1611,-3.1611,-3.1611,-3.1582,-3.1568,-3.1524,-3.1496,-3.1496,-3.1496,-3.1451,-3.1301,-3.0687,-3.0088,-2.9535,-2.9235,-2.8861,-2.8547,-2.8308,-2.8233,-2.8098,-2.7899,-2.7645,-2.7585,-2.7585,-2.7585,-2.7585,-2.7585,-2.7585,-2.7585,-3.2467,-3.2021,-3.2021,-3.1787,-3.1487,-3.1449,-3.1368,-3.121,-3.119,-3.119,-3.119,-3.119,-3.119,-3.119,-3.119,-3.119,-3.119,-3.119,-3.119,-3.119,-3.119,-3.119,-3.119,-3.119,-3.119,-3.1171,-3.1131,-3.1092,-3.1069,-3.1069,-3.1032,-3.1052,-3.1052,-3.1052,-3.1032,-3.0895,-3.0878,-3.0955,-3.0716,-3.0456,-3.0477,-3.0054,-2.9837,-2.9793,-2.9837,-2.9924,-3.0097,-2.9881,-3.007,-3.0389,-3.0288,-3.0347,-3.041,-3.0431,-3.0267,-2.9989,-2.955,-2.9264,-2.9196,-2.8858,-2.8708,-2.8935,-2.915,-2.9241,-2.9439,-2.9901,-3.0331,-3.0615,-3.0557,-3.0684,-3.1058,-3.0582,-3.0582,-3.0695,-3.0504,-3.0538,-3.1026,-3.1457,-3.1683,-3.1828,-3.1875,-3.1804,-3.1683,-3.1683,-3.1712,-3.1697,-3.1726,-3.1667,-3.1652,-3.1578,-3.1533,-3.1414,-3.1312,-3.124,-3.1225,-3.118,-3.0896,-3.034,-2.9948,-2.9394,-2.8824,-2.8374,-2.8139,-2.7974,-2.7959,-2.8045,-2.7854,-2.7585,-2.7585,-2.7585,-2.7585,-2.7585,-2.7585,-2.7585,-2.7585,-3.2821,-3.263,-3.2472,-3.2162,-3.186,-3.1841,-3.162,-3.1368,-3.1426,-3.1389,-3.131,-3.1406,-3.1426,-3.1308,-3.123,-3.119,-3.119,-3.119,-3.119,-3.119,-3.119,-3.119,-3.119,-3.119,-3.119,-3.119,-3.119,-3.119,-3.1171,-3.1171,-3.119,-3.1171,-3.119,-3.119,-3.1151,-3.1112,-3.119,-3.119,-3.119,-3.0958,-3.0638,-3.0305,-3.0092,-3.0075,-3.0075,-3.0305,-3.0576,-3.0389,-3.0514,-3.0838,-3.0878,-3.0801,-3.1095,-3.119,-3.0838,-3.022,-3.0027,-2.9903,-2.9683,-2.9461,-2.9341,-2.955,-2.9837,-2.9924,-3.0006,-3.0313,-3.0804,-3.1248,-3.1054,-3.0784,-3.0901,-3.0783,-3.0737,-3.0804,-3.0613,-3.0573,-3.1055,-3.146,-3.181,-3.1968,-3.2109,-3.2272,-3.2295,-3.2135,-3.2203,-3.2035,-3.2035,-3.1596,-3.1537,-3.1449,-3.1373,-3.1196,-3.1093,-3.0966,-3.0893,-3.0803,-3.0351,-2.9642,-2.944,-2.9106,-2.8463,-2.7876,-2.7791,-2.7876,-2.7846,-2.7901,-2.7705,-2.7585,-2.7585,-2.7585,-2.7585,-2.76,-2.76,-2.76,-2.7585,-3.353,-3.3727,-3.3032,-3.2535,-3.2266,-3.2231,-3.2003,-3.1695,-3.1967,-3.195,-3.1675,-3.1967,-3.1932,-3.1657,-3.1329,-3.123,-3.121,-3.119,-3.119,-3.119,-3.119,-3.119,-3.119,-3.119,-3.119,-3.119,-3.119,-3.119,-3.119,-3.119,-3.119,-3.119,-3.119,-3.119,-3.119,-3.119,-3.119,-3.119,-3.119,-3.1151,-3.1092,-3.0975,-3.0955,-3.0955,-3.0955,-3.0955,-3.1015,-3.0878,-3.1035,-3.1095,-3.1151,-3.1114,-3.119,-3.119,-3.1171,-3.0938,-3.0658,-3.023,-2.9968,-2.9793,-2.9793,-3.0011,-3.0225,-3.0356,-3.0443,-3.0413,-3.0478,-3.001,-3.0067,-3.0247,-3.0401,-3.003,-2.9877,-3.0035,-3.0243,-3.0322,-3.0716,-3.1564,-3.1883,-3.2187,-3.2393,-3.2878,-3.3138,-3.2909,-3.2695,-3.2504,-3.2278,-3.1763,-3.1369,-3.1232,-3.1013,-3.0791,-3.0688,-3.0591,-3.0554,-3.0463,-2.9994,-2.9177,-2.9033,-2.8904,-2.8319,-2.784,-2.7965,-2.7995,-2.7965,-2.7949,-2.791,-2.7795,-2.766,-2.7625,-2.765,-2.7625,-2.76,-2.7625,-2.7685,-3.3503,-3.3615,-3.3291,-3.2925,-3.2601,-3.2584,-3.2368,-3.2127,-3.2231,-3.2214,-3.2092,-3.2196,-3.2179,-3.1985,-3.1638,-3.1504,-3.143,-3.1291,-3.119,-3.119,-3.119,-3.119,-3.119,-3.119,-3.119,-3.119,-3.119,-3.119,-3.119,-3.119,-3.119,-3.119,-3.119,-3.119,-3.119,-3.119,-3.119,-3.119,-3.119,-3.119,-3.119,-3.119,-3.119,-3.119,-3.119,-3.119,-3.119,-3.119,-3.119,-3.119,-3.119,-3.119,-3.119,-3.119,-3.119,-3.1171,-3.1015,-3.0818,-3.0617,-3.033,-3.033,-3.0535,-3.076,-3.0878,-3.0858,-3.0658,-3.0617,-3.0634,-3.0347,-3.0326,-3.0493,-3.0518,-3.0535,-3.0493,-3.0351,-3.0504,-3.0884,-3.1464,-3.1998,-3.2337,-3.263,-3.3011,-3.327,-3.2999,-3.2704,-3.2544,-3.2107,-3.1514,-3.1109,-3.0889,-3.0593,-3.0243,-3.0186,-3.016,-3.014,-3.0114,-2.9792,-2.9197,-2.9082,-2.8834,-2.8283,-2.8005,-2.822,-2.8374,-2.8415,-2.8343,-2.8198,-2.8018,-2.786,-2.78,-2.77,-2.775,-2.7825,-2.7978,-2.81,-3.3592,-3.3393,-3.3393,-3.3223,-3.2972,-3.2957,-3.2731,-3.2435,-3.257,-3.2519,-3.2453,-3.2435,-3.2435,-3.2334,-3.2021,-3.1787,-3.1658,-3.1411,-3.1271,-3.123,-3.119,-3.119,-3.119,-3.119,-3.119,-3.119,-3.119,-3.119,-3.119,-3.119,-3.119,-3.119,-3.119,-3.119,-3.119,-3.119,-3.119,-3.119,-3.119,-3.119,-3.119,-3.119,-3.119,-3.119,-3.119,-3.119,-3.119,-3.119,-3.119,-3.119,-3.119,-3.119,-3.119,-3.119,-3.119,-3.119,-3.1131,-3.1131,-3.0995,-3.0878,-3.0898,-3.1055,-3.119,-3.1131,-3.1131,-3.0858,-3.0777,-3.1055,-3.0878,-3.0898,-3.1075,-3.1114,-3.1055,-3.1015,-3.1055,-3.1151,-3.1238,-3.1523,-3.1732,-3.1871,-3.2219,-3.2744,-3.2906,-3.2821,-3.2674,-3.2546,-3.2015,-3.1308,-3.0856,-3.052,-3.0061,-2.9689,-2.9419,-2.9393,-2.9387,-2.9377,-2.9185,-2.9317,-2.9158,-2.9061,-2.8713,-2.8637,-2.8834,-2.8912,-2.8927,-2.8966,-2.8966,-2.8527,-2.8097,-2.7965,-2.7865,-2.7974,-2.8082,-2.828,-2.8528,-3.4081,-3.3393,-3.3393,-3.3396,-3.3334,-3.3345,-3.3114,-3.2813,-3.3132,-3.3052,-3.2797,-3.2781,-3.2763,-3.2682,-3.2401,-3.2056,-3.1768,-3.1694,-3.1506,-3.1329,-3.119,-3.123,-3.121,-3.119,-3.119,-3.119,-3.119,-3.119,-3.119,-3.119,-3.119,-3.119,-3.119,-3.119,-3.119,-3.119,-3.119,-3.119,-3.119,-3.119,-3.119,-3.119,-3.119,-3.119,-3.119,-3.119,-3.119,-3.119,-3.119,-3.119,-3.119,-3.119,-3.119,-3.119,-3.119,-3.119,-3.119,-3.119,-3.1131,-3.1131,-3.1151,-3.1171,-3.119,-3.119,-3.1171,-3.119,-3.119,-3.1207,-3.1055,-3.1095,-3.1171,-3.119,-3.119,-3.119,-3.119,-3.119,-3.119,-3.1224,-3.1385,-3.1441,-3.1749,-3.2205,-3.2374,-3.2235,-3.2518,-3.2407,-3.1769,-3.1048,-3.0447,-3.0046,-2.9486,-2.906,-2.8658,-2.8495,-2.844,-2.8578,-2.9176,-2.9422,-2.9407,-2.9513,-2.9525,-2.9506,-2.9325,-2.9556,-2.9607,-2.9683,-2.9661,-2.9264,-2.8818,-2.8244,-2.8063,-2.8398,-2.8583,-2.8779,-2.9019,-3.3683,-3.3411,-3.3393,-3.3393,-3.3393,-3.3393,-3.3301,-3.3208,-3.3334,-3.3316,-3.3144,-3.316,-3.3178,-3.3086,-3.2797,-3.2535,-3.2351,-3.2144,-3.1841,-3.1601,-3.1506,-3.1389,-3.1291,-3.121,-3.119,-3.119,-3.119,-3.119,-3.119,-3.119,-3.119,-3.119,-3.119,-3.119,-3.119,-3.119,-3.119,-3.119,-3.119,-3.119,-3.119,-3.119,-3.119,-3.119,-3.119,-3.119,-3.119,-3.119,-3.119,-3.119,-3.119,-3.119,-3.119,-3.119,-3.119,-3.119,-3.119,-3.119,-3.119,-3.119,-3.119,-3.119,-3.119,-3.119,-3.119,-3.119,-3.119,-3.119,-3.119,-3.119,-3.119,-3.119,-3.119,-3.119,-3.119,-3.119,-3.119,-3.119,-3.1207,-3.1326,-3.136,-3.1582,-3.1633,-3.1627,-3.1961,-3.2224,-3.1499,-3.0866,-3.0362,-2.9945,-2.9557,-2.9287,-2.8982,-2.8904,-2.8881,-2.9159,-2.9454,-2.9572,-2.9683,-2.9859,-3.0011,-2.9772,-2.9683,-2.9989,-3.0225,-3.0225,-3.014,-2.9995,-2.9579,-2.8982,-2.8865,-2.9035,-2.9196,-2.9309,-2.9579,-3.3426,-3.3422,-3.3411,-3.3393,-3.3393,-3.3393,-3.3393,-3.3393,-3.3393,-3.3393,-3.3393,-3.3393,-3.3393,-3.3301,-3.3147,-3.2876,-3.2732,-3.2536,-3.2214,-3.2003,-3.1841,-3.1657,-3.1466,-3.1349,-3.1332,-3.1232,-3.119,-3.119,-3.119,-3.119,-3.119,-3.119,-3.119,-3.119,-3.119,-3.119,-3.119,-3.119,-3.119,-3.119,-3.119,-3.119,-3.119,-3.119,-3.119,-3.119,-3.119,-3.119,-3.119,-3.119,-3.119,-3.119,-3.119,-3.119,-3.119,-3.119,-3.119,-3.119,-3.119,-3.119,-3.119,-3.119,-3.119,-3.119,-3.119,-3.119,-3.119,-3.119,-3.119,-3.119,-3.119,-3.119,-3.119,-3.119,-3.119,-3.119,-3.119,-3.119,-3.119,-3.1224,-3.1241,-3.1275,-3.1309,-3.1396,-3.1526,-3.18,-3.1469,-3.0996,-3.0737,-3.034,-3.006,-2.9865,-2.9689,-2.9705,-2.975,-2.9859,-2.9989,-3.0075,-3.0204,-3.0309,-3.0351,-3.0145,-3.0166,-3.0535,-3.0699,-3.0716,-3.0658,-3.0539,-3.0149,-2.9695,-2.9629,-2.9556,-2.9805,-2.9951,-3.0204,-3.3437,-3.3477,-3.3422,-3.3426,-3.3408,-3.3393,-3.3393,-3.3393,-3.3393,-3.3393,-3.3393,-3.3393,-3.3393,-3.3378,-3.3301,-3.3162,-3.2923,-3.2829,-3.2601,-3.2334,-3.2179,-3.2003,-3.1768,-3.1564,-3.137,-3.1232,-3.119,-3.119,-3.119,-3.119,-3.119,-3.119,-3.119,-3.119,-3.119,-3.119,-3.119,-3.119,-3.119,-3.119,-3.119,-3.119,-3.119,-3.119,-3.119,-3.119,-3.119,-3.119,-3.119,-3.119,-3.119,-3.119,-3.119,-3.119,-3.119,-3.119,-3.119,-3.119,-3.119,-3.119,-3.119,-3.119,-3.119,-3.119,-3.119,-3.119,-3.119,-3.119,-3.119,-3.119,-3.119,-3.119,-3.119,-3.119,-3.119,-3.119,-3.119,-3.119,-3.119,-3.119,-3.119,-3.119,-3.119,-3.1207,-3.1224,-3.1272,-3.1241,-3.1075,-3.0918,-3.0777,-3.0497,-3.0435,-3.0309,-3.0267,-3.0267,-3.0393,-3.0497,-3.0617,-3.0679,-3.074,-3.0754,-3.0613,-3.0764,-3.1047,-3.087,-3.0603,-3.0853,-3.1098,-3.0662,-3.0251,-3.0054,-3.0032,-3.0309,-3.0456,-3.0555,-3.3534,-3.3563,-3.3534,-3.3534,-3.3506,-3.3455,-3.3393,-3.3393,-3.3393,-3.3393,-3.3393,-3.3393,-3.3393,-3.3393,-3.3393,-3.3301,-3.3208,-3.3178,-3.3006,-3.2651,-3.2469,-3.2056,-3.1787,-3.1562,-3.1368,-3.123,-3.119,-3.119,-3.119,-3.119,-3.119,-3.119,-3.119,-3.119,-3.119,-3.119,-3.119,-3.119,-3.119,-3.119,-3.119,-3.119,-3.119,-3.119,-3.119,-3.119,-3.119,-3.119,-3.119,-3.119,-3.119,-3.119,-3.119,-3.119,-3.119,-3.119,-3.119,-3.119,-3.119,-3.119,-3.119,-3.119,-3.119,-3.119,-3.119,-3.119,-3.119,-3.119,-3.119,-3.119,-3.119,-3.119,-3.119,-3.119,-3.119,-3.119,-3.119,-3.119,-3.119,-3.119,-3.119,-3.119,-3.119,-3.119,-3.119,-3.119,-3.119,-3.119,-3.1055,-3.1075,-3.0938,-3.0955,-3.0895,-3.0818,-3.0797,-3.0797,-3.0838,-3.0898,-3.0975,-3.1035,-3.1033,-3.0937,-3.0731,-3.0695,-3.0579,-3.048,-3.0768,-3.0985,-3.1041,-3.0838,-3.0593,-3.041,-3.0497,-3.0539,-3.0502,-3.3601,-3.3633,-3.3587,-3.3605,-3.3591,-3.3481,-3.3422,-3.3393,-3.3393,-3.3393,-3.3393,-3.3393,-3.3393,-3.3393,-3.3393,-3.3393,-3.3393,-3.3378,-3.3331,-3.2988,-3.2797,-3.2401,-3.2003,-3.1656,-3.1487,-3.131,-3.119,-3.119,-3.119,-3.119,-3.119,-3.119,-3.119,-3.119,-3.119,-3.119,-3.119,-3.119,-3.119,-3.119,-3.119,-3.119,-3.119,-3.119,-3.119,-3.119,-3.119,-3.119,-3.119,-3.119,-3.119,-3.119,-3.119,-3.119,-3.119,-3.119,-3.119,-3.119,-3.119,-3.119,-3.119,-3.119,-3.119,-3.119,-3.119,-3.119,-3.119,-3.119,-3.119,-3.119,-3.119,-3.119,-3.119,-3.119,-3.119,-3.119,-3.119,-3.119,-3.119,-3.119,-3.119,-3.119,-3.119,-3.119,-3.119,-3.119,-3.119,-3.119,-3.119,-3.119,-3.119,-3.1171,-3.1171,-3.1055,-3.1015,-3.1055,-3.1095,-3.1171,-3.119,-3.119,-3.114,-3.1021,-3.07,-3.0444,-3.0598,-3.07,-3.0717,-3.0813,-3.101,-3.1112,-3.1055,-3.0898,-3.0797,-3.072,-3.0662,-3.3643,-3.3684,-3.3647,-3.3601,-3.3605,-3.3534,-3.3462,-3.3408,-3.3408,-3.3408,-3.3408,-3.3422,-3.3422,-3.3408,-3.3408,-3.3408,-3.3408,-3.3393,-3.3364,-3.3301,-3.3132,-3.2732,-3.2418,-3.2127,-3.1731,-3.137,-3.121,-3.119,-3.119,-3.119,-3.119,-3.119,-3.119,-3.119,-3.119,-3.119,-3.119,-3.119,-3.119,-3.119,-3.119,-3.119,-3.119,-3.119,-3.119,-3.119,-3.119,-3.119,-3.119,-3.119,-3.119,-3.119,-3.119,-3.119,-3.119,-3.119,-3.119,-3.119,-3.119,-3.119,-3.119,-3.119,-3.119,-3.119,-3.119,-3.119,-3.119,-3.119,-3.119,-3.119,-3.119,-3.119,-3.119,-3.119,-3.119,-3.119,-3.119,-3.119,-3.119,-3.119,-3.119,-3.119,-3.119,-3.119,-3.119,-3.119,-3.119,-3.119,-3.119,-3.119,-3.119,-3.119,-3.119,-3.119,-3.119,-3.119,-3.119,-3.119,-3.119,-3.119,-3.114,-3.099,-3.0514,-3.0362,-3.0784,-3.0954,-3.092,-3.0987,-3.114,-3.119,-3.119,-3.1151,-3.0958,-3.1015,-3.0998,-3.3753,-3.378,-3.3734,-3.3734,-3.3739,-3.3671,-3.3587,-3.3549,-3.3549,-3.3553,-3.3534,-3.3534,-3.352,-3.3534,-3.3495,-3.3481,-3.3452,-3.3404,-3.3393,-3.3331,-3.3205,-3.2892,-3.2568,-3.2214,-3.1823,-3.1581,-3.137,-3.1252,-3.123,-3.121,-3.121,-3.119,-3.121,-3.121,-3.121,-3.119,-3.121,-3.121,-3.121,-3.119,-3.119,-3.119,-3.119,-3.119,-3.119,-3.119,-3.119,-3.119,-3.119,-3.119,-3.119,-3.119,-3.119,-3.119,-3.119,-3.119,-3.119,-3.119,-3.119,-3.119,-3.119,-3.119,-3.119,-3.119,-3.119,-3.119,-3.119,-3.119,-3.119,-3.119,-3.119,-3.119,-3.119,-3.119,-3.119,-3.119,-3.119,-3.119,-3.119,-3.119,-3.119,-3.119,-3.119,-3.119,-3.119,-3.119,-3.119,-3.119,-3.119,-3.119,-3.119,-3.119,-3.119,-3.119,-3.119,-3.119,-3.119,-3.119,-3.119,-3.1173,-3.1106,-3.0871,-3.0294,-3.0209,-3.0514,-3.0835,-3.1108,-3.1157,-3.119,-3.119,-3.119,-3.119,-3.119,-3.119,-3.119,-3.3959,-3.3934,-3.3847,-3.3807,-3.3793,-3.3753,-3.3712,-3.3671,-3.3633,-3.3605,-3.3605,-3.3591,-3.3605,-3.3591,-3.3549,-3.3534,-3.3534,-3.3524,-3.3495,-3.3415,-3.3202,-3.3081,-3.2781,-3.2485,-3.2265,-3.1985,-3.1731,-3.1581,-3.1466,-3.1366,-3.1327,-3.1327,-3.1325,-3.1325,-3.1344,-3.1327,-3.1327,-3.1288,-3.1266,-3.121,-3.119,-3.119,-3.119,-3.121,-3.121,-3.121,-3.119,-3.121,-3.119,-3.119,-3.119,-3.119,-3.119,-3.119,-3.119,-3.119,-3.119,-3.119,-3.119,-3.119,-3.119,-3.119,-3.119,-3.119,-3.119,-3.119,-3.119,-3.119,-3.119,-3.119,-3.119,-3.119,-3.119,-3.119,-3.119,-3.119,-3.119,-3.119,-3.119,-3.119,-3.119,-3.119,-3.119,-3.119,-3.119,-3.119,-3.119,-3.119,-3.119,-3.119,-3.119,-3.119,-3.119,-3.119,-3.119,-3.119,-3.119,-3.119,-3.119,-3.1157,-3.1089,-3.097,-3.0649,-3.0345,-3.0161,-3.0601,-3.1106,-3.1157,-3.119,-3.119,-3.119,-3.119,-3.119,-3.119,-3.119,-3.4233,-3.4209,-3.3934,-3.386,-3.3847,-3.382,-3.3807,-3.3793,-3.3671,-3.3615,-3.3633,-3.3633,-3.3633,-3.3629,-3.3601,-3.3619,-3.3605,-3.3577,-3.3563,-3.3605,-3.3516,-3.3368,-3.3202,-3.3047,-3.2715,-3.2485,-3.2231,-3.1932,-3.1877,-3.1711,-3.1559,-3.15,-3.1462,-3.146,-3.146,-3.1443,-3.1423,-3.1421,-3.1344,-3.1269,-3.1249,-3.123,-3.121,-3.123,-3.1249,-3.1249,-3.1247,-3.1247,-3.1227,-3.121,-3.121,-3.121,-3.119,-3.119,-3.119,-3.119,-3.119,-3.119,-3.119,-3.119,-3.119,-3.119,-3.119,-3.119,-3.119,-3.119,-3.119,-3.119,-3.119,-3.119,-3.119,-3.119,-3.119,-3.119,-3.119,-3.119,-3.119,-3.119,-3.119,-3.119,-3.119,-3.119,-3.119,-3.119,-3.119,-3.119,-3.119,-3.119,-3.119,-3.119,-3.119,-3.119,-3.119,-3.119,-3.119,-3.119,-3.119,-3.119,-3.119,-3.119,-3.114,-3.1123,-3.1089,-3.0734,-3.0412,-3.0734,-3.1106,-3.1157,-3.119,-3.119,-3.119,-3.119,-3.119,-3.119,-3.119,-3.442,-3.4398,-3.4172,-3.4111,-3.4074,-3.3881,-3.3807,-3.3807,-3.378,-3.3753,-3.3753,-3.3753,-3.3753,-3.3726,-3.3684,-3.3671,-3.3675,-3.3647,-3.3605,-3.3619,-3.3619,-3.3587,-3.3444,-3.3262,-3.3096,-3.2876,-3.2619,-3.2282,-3.2092,-3.1913,-3.1728,-3.1538,-3.1519,-3.1519,-3.1536,-3.1553,-3.1639,-3.1553,-3.1617,-3.156,-3.1543,-3.1457,-3.1423,-3.1472,-3.1506,-3.1572,-3.1572,-3.154,-3.1472,-3.1421,-3.1329,-3.1271,-3.121,-3.119,-3.119,-3.119,-3.119,-3.119,-3.119,-3.119,-3.119,-3.119,-3.119,-3.119,-3.119,-3.119,-3.119,-3.119,-3.119,-3.119,-3.119,-3.119,-3.119,-3.119,-3.119,-3.119,-3.119,-3.119,-3.119,-3.119,-3.119,-3.119,-3.119,-3.119,-3.119,-3.119,-3.119,-3.119,-3.119,-3.119,-3.119,-3.119,-3.119,-3.119,-3.119,-3.119,-3.119,-3.119,-3.119,-3.119,-3.119,-3.1038,-3.092,-3.0886,-3.0801,-3.092,-3.1021,-3.1157,-3.119,-3.119,-3.119,-3.119,-3.119,-3.119,-3.119,-3.4108,-3.4115,-3.4278,-3.4274,-3.4166,-3.4036,-3.3908,-3.382,-3.3807,-3.3807,-3.3807,-3.3807,-3.3807,-3.3807,-3.3766,-3.3739,-3.3758,-3.373,-3.3716,-3.3703,-3.3689,-3.3698,-3.3583,-3.3484,-3.3484,-3.3321,-3.3032,-3.2715,-3.2384,-3.2162,-3.1984,-3.1802,-3.1727,-3.1631,-3.1682,-3.1872,-3.1922,-3.1667,-3.1956,-3.2111,-3.2092,-3.2036,-3.2269,-3.2337,-3.2508,-3.2474,-3.2525,-3.2491,-3.2266,-3.1922,-3.1572,-3.1288,-3.1213,-3.119,-3.119,-3.119,-3.119,-3.119,-3.119,-3.121,-3.121,-3.121,-3.119,-3.121,-3.119,-3.119,-3.119,-3.119,-3.119,-3.119,-3.119,-3.119,-3.119,-3.119,-3.119,-3.119,-3.119,-3.119,-3.119,-3.119,-3.119,-3.119,-3.119,-3.119,-3.119,-3.119,-3.119,-3.119,-3.119,-3.119,-3.119,-3.119,-3.119,-3.119,-3.119,-3.119,-3.119,-3.119,-3.119,-3.119,-3.1157,-3.0903,-3.0717,-3.0734,-3.0734,-3.0734,-3.0852,-3.1055,-3.1173,-3.119,-3.119,-3.119,-3.119,-3.119,-3.119,-3.3561,-3.3723,-3.4163,-3.4367,-3.4286,-3.4239,-3.4111,-3.3881,-3.3855,-3.3847,-3.3807,-3.3807,-3.3807,-3.3807,-3.3807,-3.3807,-3.3793,-3.378,-3.378,-3.3793,-3.3793,-3.378,-3.378,-3.3766,-3.3739,-3.3652,-3.3437,-3.3139,-3.2844,-3.2569,-3.2352,-3.2231,-3.2037,-3.1852,-3.211,-3.2421,-3.259,-3.2572,-3.2762,-3.3091,-3.3033,-3.285,-3.3102,-3.3474,-3.385,-3.385,-3.3833,-3.3713,-3.3351,-3.261,-3.182,-3.1434,-3.1291,-3.1269,-3.1269,-3.1269,-3.1288,-3.1286,-3.1286,-3.1286,-3.1269,-3.1249,-3.123,-3.121,-3.121,-3.119,-3.119,-3.119,-3.119,-3.119,-3.119,-3.119,-3.119,-3.119,-3.119,-3.119,-3.119,-3.119,-3.119,-3.119,-3.119,-3.119,-3.119,-3.119,-3.119,-3.119,-3.119,-3.119,-3.119,-3.119,-3.119,-3.119,-3.119,-3.119,-3.119,-3.119,-3.119,-3.119,-3.119,-3.119,-3.1157,-3.0987,-3.0818,-3.0615,-3.0615,-3.0751,-3.0818,-3.0987,-3.1089,-3.119,-3.119,-3.119,-3.119,-3.119,-3.119,-3.3282,-3.3912,-3.3827,-3.413,-3.4648,-3.4518,-3.4344,-3.4148,-3.4124,-3.4011,-3.3842,-3.382,-3.3807,-3.3807,-3.3807,-3.3807,-3.3807,-3.3807,-3.3807,-3.3807,-3.3807,-3.3807,-3.3807,-3.3807,-3.3807,-3.3766,-3.368,-3.3508,-3.3199,-3.2876,-3.2553,-3.2318,-3.1984,-3.2113,-3.2662,-3.2955,-3.3162,-3.33,-3.3662,-3.4027,-3.4128,-3.3899,-3.3434,-3.3707,-3.4054,-3.4054,-3.4054,-3.4054,-3.3552,-3.2878,-3.2078,-3.1604,-3.1443,-3.1402,-3.1385,-3.1385,-3.1385,-3.1402,-3.1402,-3.1402,-3.1385,-3.1366,-3.1327,-3.1254,-3.1252,-3.121,-3.121,-3.119,-3.119,-3.119,-3.119,-3.119,-3.119,-3.119,-3.119,-3.119,-3.119,-3.119,-3.119,-3.119,-3.119,-3.119,-3.119,-3.119,-3.119,-3.119,-3.119,-3.119,-3.119,-3.119,-3.119,-3.119,-3.119,-3.119,-3.119,-3.119,-3.119,-3.119,-3.119,-3.119,-3.119,-3.119,-3.1004,-3.0632,-3.0784,-3.1021,-3.1055,-3.0886,-3.1108,-3.121,-3.119,-3.119,-3.119,-3.119,-3.119]},{"header":{"parameterUnit":"m.s-1","parameterCategory":1,"la1":31.0,"la2":29.5877,"lo1":-88.7671,"lo2":-86.6584,"dy":0.0162,"dx":0.0185,"nx":115,"ny":88,"refTime":"2024-06-27T06:00:00:Z","depth":0,"parameterNumber":3,"parameterNumberName":"V-component_of_WINDS"},"data":[0.0,0.0,0.0,0.0,0.0,0.0,0.0,0.0,0.0,0.0,0.0,0.0,0.0,0.0,0.0,0.0,0.0,0.0,0.0,0.0,0.0,0.0,0.0,0.0,0.0,0.0,0.0,0.0,0.0,0.0,0.0,0.0,0.0,0.0,0.0,0.0,0.0,0.0,0.0,0.0,0.0,0.0,0.0,0.0,0.0,0.0,0.0,0.0,0.0,0.0,0.0,0.0,0.0,0.0,0.0,0.0,0.0,0.0,0.0,0.0,0.0,0.0,0.0,0.0,0.0,0.0,0.0,0.0,0.0,0.0,0.0,0.0,0.0,0.0,0.0,0.0,0.0,0.0,0.0,0.0,0.0,0.0,0.0,0.0,0.0,0.0,0.0,0.0,0.0,0.0,0.0,0.0,0.0,0.0,0.0,0.0,0.0,0.0,0.0,0.0,0.0,0.0,0.0,0.0,0.0,0.0,0.0,0.0,0.0,0.0,0.0,0.0,0.0,0.0,0.0,0.0,0.0,0.0,0.0,0.0,0.0,0.0,0.0,0.0,0.0,0.0,0.0,0.0,0.0,0.0,0.0,0.0,0.0,0.0,0.0,0.0,0.0,0.0,0.0,0.0,0.0,0.0,0.0,0.0,0.0,0.0,0.0,0.0,0.0,0.0,0.0,0.0,0.0,0.0,0.0,0.0,0.0,0.0,0.0,0.0,0.0,0.0,0.0,0.0,0.0,0.0,0.0,0.0,0.0,0.0,0.0,0.0,0.0,0.0,0.0,0.0,0.0,0.0,0.0,0.0,0.0,0.0,0.0,0.0,0.0,0.0,0.0,0.0,0.0,0.0,0.0,0.0,0.0,0.0,0.0,0.0,0.0,0.0,0.0,0.0,0.0,0.0,0.0,0.0,0.0,0.0,0.0,0.0,0.0,0.0,0.0,0.0,0.0,0.0,0.0,0.0,0.0,0.0,0.0,0.0,0.0,0.0,0.0,0.0,0.0,0.0,0.0,0.0,0.0,0.0,0.0,0.0,0.0,0.0,0.0,0.0,0.0,0.0,0.0,0.0,0.0,0.0,0.0,0.0,0.0,0.0,0.0,0.0,0.0,0.0,0.0,0.0,0.0,0.0,0.0,0.0,0.0,0.0,0.0,0.0,0.0,0.0,0.0,0.0,0.0,0.0,0.0,0.0,0.0,0.0,0.0,0.0,0.0,0.0,0.0,0.0,0.0,0.0,0.0,0.0,0.0,0.0,0.0,0.0,0.0,0.0,0.0,0.0,0.0,0.0,0.0,0.0,0.0,0.0,0.0,0.0,0.0,0.0,0.0,0.0,0.0,0.0,0.0,0.0,0.0,0.0,0.0,0.0,0.0,0.0,0.0,0.0,0.0,0.0,0.0,0.0,0.0,0.0,0.0,0.0,0.0,0.0,0.0,0.0,0.0,0.0,0.0,0.0,0.0,0.0,0.0,0.0,0.0,0.0,0.0,0.0,0.0,0.0,0.0,0.0,0.0,0.0,0.0,0.0,0.0,0.0,0.0,0.0,0.0,0.0,0.0,0.0,0.0,0.0,0.0,0.0,0.0,0.0,0.0,0.0,0.0,0.0,0.0,0.0,0.0,0.0,0.0,0.0,0.0,0.0,0.0,0.0,0.0,0.0,0.0,0.0,0.0,0.0,0.0,0.0,0.0,0.0,0.0,0.0,0.0,0.0,0.0,0.0,0.0,0.0,0.0,0.0,0.0,0.0,0.0,0.0,0.0,0.0,0.0,0.0,0.0,0.0,0.0,0.0,0.0,0.0,0.0,0.0,0.0,0.0,0.0,0.0,0.0,0.0,0.0,0.0,0.0,0.0,0.0,0.0,0.0,0.0,0.0,0.0,0.0,0.0,0.0,0.0,0.0,0.0,0.0,0.0,0.0,0.0,0.0,0.0,0.0,0.0,0.0,0.0,0.0,0.0,0.0,0.0,0.0,0.0,0.0,0.0,0.0,0.0,0.0,0.0,0.0,0.0,0.0,0.0,0.0,0.0,0.0,0.0,0.0,0.0,0.0,0.0,0.0,0.0,0.0,0.0,0.0,0.0,0.0,0.0,0.0,0.0,0.0,0.0,0.0,0.0,0.0,0.0,0.0,0.0,0.0,0.0,0.0,0.0,0.0,0.0,0.0,0.0,0.0,0.0,0.0,0.0,0.0,0.0,0.0,0.0,0.0,0.0,0.0,0.0,0.0,0.0,0.0,0.0,0.0,0.0,0.0,0.0,0.0,0.0,0.0,0.0,0.0,0.0,0.0,0.0,0.0,0.0,0.0,0.0,0.0,0.0,0.0,0.0,0.0,0.0,0.0,0.0,0.0,0.0,0.0,0.0,0.0,0.0,0.0,0.0,0.0,0.0,0.0,0.0,0.0,0.0,0.0,0.0,0.0,0.0,0.0,0.0,0.0,0.0,0.0,0.0,0.0,0.0,0.0,0.0,0.0,0.0,0.0,0.0,0.0,0.0,0.0,0.0,0.0,0.0,0.0,0.0,0.0,0.0,0.0,0.0,0.0,0.0,0.0,0.0,0.0,0.0,0.0,0.0,0.0,0.0,0.0,0.0,0.0,0.0,0.0,0.0,0.0,0.0,0.0,0.0,0.0,0.0,0.0,0.0,0.0,0.0,0.0,0.0,0.0,0.0,0.0,0.0,0.0,0.0,0.0,0.0,0.0,0.0,0.0,0.0,0.0,0.0,0.0,0.0,0.0,0.0,0.0,0.0,0.0,0.0,0.0,0.0,0.0,0.0,0.0,0.0,0.0,0.0,0.0,0.0,0.0,0.0,0.0,0.0,0.0,0.0,0.0,0.0,0.0,0.0,0.0,0.0,0.0,0.0,0.0,0.0,0.0,0.0,0.0,0.0,0.0,0.0,0.0,0.0,0.0,0.0,0.0,0.0,0.0,0.0,0.0,0.0,0.0,0.0,0.0,0.0,0.0,0.0,0.0,0.0,0.0,0.0,0.0,0.0,0.0,0.0,0.0,0.0,0.0,0.0,0.0,0.0,0.0,0.0,0.0,0.0,0.0,0.0,0.0,0.0,0.0,0.0,0.0,0.0,0.0,0.0,0.0,0.0,0.0,0.0,0.0,0.0,0.0,0.0,0.0,0.0,0.0,0.0,0.0,0.0,0.0,0.0,0.0,0.0,0.0,0.0,0.0,0.0,0.0,0.0,0.0,0.0,0.0,0.0,0.0,0.0,0.0,0.0,0.0,0.0,0.0,0.0,0.0,0.0,0.0,0.0,0.0,0.0,0.0,0.0,0.0,0.0,0.0,0.0,0.0,0.0,0.0,0.0,0.0,0.0,0.0,0.0,0.0,0.0,0.0,0.0,0.0,0.0,0.0,0.0,0.0,0.0,0.0,0.0,0.0,0.0,0.0,0.0,0.0,0.0,0.0,0.0,0.0,0.0,0.0,0.0,0.0,0.0,0.0,0.0,0.0,0.0,0.0,0.0,0.0,0.0,0.0,0.0,0.0,0.0,0.0,0.0,0.0,0.0,0.0,0.0,0.0,0.0,0.0,0.0,0.0,0.0,0.0,0.0,0.0,0.0,0.0,0.0,0.0,0.0,0.0,0.0,0.0,0.0,0.0,0.0,0.0,0.0,0.0,0.0,0.0,0.0,0.0,0.0,0.0,0.0,0.0,0.0,0.0,0.0,0.0,0.0,0.0,0.0,0.0,0.0,0.0,0.0,0.0,0.0,0.0,0.0,0.0,0.0,0.0,0.0,0.0,0.0,0.0,0.0,0.0,0.0,0.0,0.0,0.0,0.0,0.0,0.0,0.0,0.0,0.0,0.0,0.0,0.0,0.0,0.0,0.0,0.0,0.0,0.0,0.0,0.0,0.0,0.0,0.0,0.0,0.0,0.0,0.0,0.0,0.0,0.0,0.0,0.0,0.0,0.0,0.0,0.0,0.0,0.0,0.0,0.0,0.0,0.0,0.0,0.0,0.0,0.0,0.0,0.0,0.0,0.0,0.0,0.0,0.0,0.0,0.0,0.0,0.0,0.0,0.0,0.0,0.0,0.0,0.0,0.0,0.0,0.0,0.0,0.0,0.0,0.0,0.0,0.0,0.0,0.0,0.0,0.0,0.0,0.0,0.0,0.0,0.0,0.0,0.0,0.0,0.0,0.0,0.0,0.0,0.0,0.0,0.0,0.0,0.0,0.0,0.0,0.0,0.0,0.0,0.0,0.0,0.0,0.0,0.0,0.0,0.0,0.0,0.0,0.0,0.0,0.0,-1.9823,0.0,0.0,0.0,0.0,0.0,0.0,0.0,0.0,0.0,0.0,0.0,0.0,0.0,0.0,0.0,0.0,0.0,0.0,0.0,0.0,0.0,0.0,0.0,0.0,0.0,0.0,0.0,0.0,0.0,0.0,0.0,0.0,0.0,0.0,0.0,0.0,0.0,0.0,0.0,0.0,0.0,0.0,0.0,0.0,0.0,0.0,0.0,0.0,0.0,0.0,0.0,0.0,0.0,0.0,0.0,0.0,0.0,0.0,0.0,0.0,0.0,0.0,0.0,0.0,0.0,0.0,0.0,0.0,0.0,0.0,0.0,0.0,0.0,0.0,0.0,0.0,0.0,0.0,0.0,0.0,0.0,0.0,0.0,0.0,0.0,0.0,0.0,0.0,0.0,0.0,0.0,0.0,0.0,0.0,0.0,0.0,0.0,0.0,0.0,0.0,0.0,0.0,0.0,0.0,0.0,0.0,0.0,0.0,0.0,0.0,-2.0566,-2.0302,-2.0246,-1.9934,-1.9406,0.0,0.0,0.0,0.0,0.0,0.0,0.0,0.0,0.0,0.0,0.0,0.0,0.0,0.0,0.0,0.0,0.0,0.0,0.0,0.0,0.0,0.0,0.0,0.0,0.0,0.0,0.0,0.0,0.0,0.0,0.0,0.0,0.0,0.0,0.0,0.0,0.0,0.0,0.0,0.0,0.0,0.0,0.0,0.0,0.0,0.0,0.0,0.0,0.0,0.0,0.0,0.0,0.0,0.0,0.0,0.0,0.0,0.0,0.0,0.0,0.0,0.0,0.0,0.0,0.0,0.0,0.0,0.0,0.0,0.0,0.0,0.0,0.0,0.0,0.0,0.0,0.0,0.0,0.0,0.0,0.0,0.0,0.0,0.0,0.0,0.0,0.0,0.0,0.0,0.0,0.0,0.0,0.0,0.0,0.0,0.0,0.0,0.0,0.0,0.0,0.0,0.0,0.0,0.0,0.0,0.0,0.0,0.0,0.0,0.0,0.0,0.0,-2.029,-1.9841,-1.9329,0.0,0.0,0.0,0.0,0.0,0.0,0.0,0.0,0.0,0.0,0.0,0.0,0.0,0.0,0.0,0.0,0.0,0.0,0.0,0.0,0.0,0.0,0.0,0.0,0.0,0.0,0.0,0.0,0.0,0.0,0.0,0.0,0.0,0.0,0.0,0.0,0.0,0.0,0.0,0.0,0.0,0.0,0.0,0.0,0.0,0.0,0.0,0.0,0.0,0.0,0.0,0.0,0.0,0.0,0.0,0.0,0.0,0.0,0.0,0.0,0.0,0.0,0.0,0.0,0.0,0.0,0.0,0.0,0.0,0.0,0.0,0.0,0.0,0.0,0.0,0.0,0.0,0.0,0.0,0.0,0.0,0.0,0.0,0.0,0.0,0.0,0.0,0.0,0.0,0.0,0.0,0.0,0.0,0.0,0.0,0.0,0.0,0.0,0.0,0.0,0.0,0.0,0.0,0.0,0.0,0.0,0.0,0.0,0.0,0.0,-2.0547,-2.0608,-2.0789,0.0,-2.0203,0.0,0.0,0.0,0.0,0.0,0.0,0.0,0.0,0.0,0.0,0.0,0.0,0.0,0.0,0.0,0.0,0.0,0.0,0.0,0.0,0.0,0.0,0.0,0.0,0.0,0.0,0.0,0.0,0.0,0.0,0.0,0.0,0.0,0.0,0.0,0.0,0.0,0.0,0.0,0.0,0.0,0.0,0.0,0.0,0.0,0.0,0.0,0.0,0.0,0.0,0.0,0.0,0.0,0.0,0.0,0.0,0.0,0.0,0.0,0.0,0.0,0.0,0.0,0.0,0.0,0.0,0.0,0.0,0.0,0.0,0.0,0.0,0.0,0.0,0.0,0.0,0.0,0.0,0.0,0.0,0.0,0.0,0.0,0.0,0.0,0.0,0.0,0.0,0.0,0.0,0.0,0.0,0.0,0.0,0.0,0.0,0.0,0.0,0.0,0.0,0.0,0.0,0.0,0.0,0.0,0.0,0.0,0.0,0.0,0.0,0.0,-2.0841,-2.0025,-1.9499,0.0,0.0,0.0,0.0,0.0,0.0,0.0,0.0,0.0,0.0,0.0,0.0,0.0,0.0,0.0,0.0,0.0,0.0,0.0,0.0,0.0,0.0,0.0,0.0,0.0,0.0,0.0,0.0,0.0,0.0,0.0,0.0,0.0,0.0,0.0,0.0,0.0,0.0,0.0,0.0,0.0,0.0,0.0,0.0,0.0,0.0,0.0,0.0,0.0,0.0,0.0,0.0,0.0,0.0,0.0,0.0,0.0,0.0,0.0,0.0,0.0,0.0,0.0,0.0,0.0,0.0,0.0,0.0,0.0,0.0,0.0,0.0,0.0,0.0,0.0,0.0,0.0,0.0,0.0,0.0,0.0,0.0,0.0,0.0,0.0,0.0,0.0,0.0,0.0,0.0,0.0,0.0,0.0,0.0,0.0,0.0,0.0,0.0,0.0,0.0,0.0,0.0,0.0,0.0,0.0,0.0,0.0,0.0,0.0,0.0,-2.0018,0.0,-2.0585,-1.9401,-1.8682,-1.8575,0.0,0.0,0.0,0.0,0.0,0.0,0.0,0.0,0.0,0.0,0.0,0.0,0.0,0.0,0.0,0.0,0.0,0.0,0.0,0.0,0.0,0.0,0.0,0.0,0.0,0.0,0.0,0.0,0.0,0.0,0.0,0.0,0.0,0.0,0.0,0.0,0.0,0.0,0.0,0.0,0.0,0.0,0.0,0.0,0.0,0.0,0.0,0.0,0.0,0.0,0.0,0.0,0.0,0.0,0.0,0.0,0.0,0.0,0.0,0.0,0.0,0.0,0.0,0.0,0.0,0.0,0.0,0.0,0.0,0.0,0.0,0.0,0.0,0.0,0.0,0.0,0.0,0.0,0.0,0.0,0.0,0.0,0.0,0.0,0.0,0.0,0.0,0.0,0.0,0.0,0.0,0.0,0.0,0.0,0.0,0.0,0.0,0.0,0.0,0.0,0.0,0.0,0.0,0.0,0.0,0.0,0.0,0.0,0.0,-1.9931,-1.9533,-1.9868,-1.9362,-1.8912,0.0,0.0,0.0,0.0,0.0,0.0,0.0,0.0,0.0,0.0,0.0,0.0,0.0,0.0,0.0,0.0,0.0,0.0,0.0,0.0,0.0,0.0,0.0,0.0,0.0,0.0,0.0,0.0,0.0,0.0,0.0,0.0,0.0,0.0,0.0,0.0,0.0,0.0,0.0,0.0,0.0,0.0,0.0,0.0,0.0,0.0,0.0,0.0,0.0,0.0,0.0,0.0,0.0,0.0,0.0,0.0,0.0,0.0,0.0,0.0,0.0,0.0,0.0,0.0,0.0,0.0,0.0,0.0,0.0,0.0,0.0,0.0,0.0,0.0,0.0,0.0,0.0,0.0,0.0,0.0,0.0,0.0,0.0,0.0,0.0,0.0,0.0,0.0,0.0,0.0,0.0,0.0,0.0,0.0,0.0,0.0,0.0,0.0,0.0,0.0,0.0,0.0,0.0,0.0,0.0,0.0,0.0,0.0,0.0,-1.8908,-1.9381,-1.9936,-2.0545,-1.9367,-1.8739,0.0,0.0,0.0,0.0,0.0,0.0,0.0,0.0,0.0,0.0,0.0,0.0,0.0,0.0,0.0,0.0,0.0,0.0,0.0,0.0,0.0,0.0,0.0,0.0,0.0,0.0,0.0,0.0,0.0,0.0,0.0,0.0,0.0,0.0,0.0,0.0,0.0,0.0,0.0,0.0,0.0,0.0,0.0,0.0,0.0,0.0,0.0,0.0,0.0,0.0,0.0,0.0,0.0,0.0,0.0,0.0,0.0,0.0,0.0,0.0,0.0,0.0,0.0,0.0,0.0,0.0,0.0,0.0,0.0,0.0,0.0,0.0,0.0,0.0,0.0,0.0,0.0,0.0,0.0,0.0,0.0,0.0,0.0,0.0,0.0,0.0,0.0,0.0,0.0,0.0,0.0,0.0,0.0,0.0,0.0,0.0,0.0,0.0,0.0,0.0,0.0,0.0,0.0,0.0,0.0,0.0,0.0,0.0,0.0,-1.8143,0.0,-2.0131,0.0,-1.9261,-1.8517,0.0,0.0,0.0,0.0,0.0,0.0,0.0,0.0,0.0,0.0,0.0,0.0,0.0,0.0,0.0,0.0,0.0,0.0,0.0,0.0,0.0,0.0,0.0,0.0,0.0,0.0,0.0,0.0,0.0,0.0,0.0,0.0,0.0,0.0,0.0,0.0,0.0,0.0,0.0,0.0,0.0,0.0,0.0,0.0,0.0,0.0,0.0,0.0,0.0,0.0,0.0,0.0,0.0,0.0,0.0,0.0,0.0,0.0,0.0,0.0,0.0,0.0,0.0,0.0,0.0,0.0,0.0,0.0,0.0,0.0,0.0,0.0,0.0,0.0,0.0,0.0,0.0,0.0,0.0,0.0,0.0,0.0,0.0,0.0,0.0,0.0,0.0,0.0,0.0,0.0,0.0,0.0,0.0,0.0,0.0,0.0,0.0,0.0,0.0,0.0,0.0,0.0,0.0,0.0,0.0,0.0,0.0,0.0,-1.7841,-1.9058,-1.9934,-2.0027,-1.9191,-1.9119,-1.8268,0.0,0.0,0.0,0.0,0.0,0.0,0.0,0.0,0.0,0.0,0.0,0.0,0.0,0.0,0.0,0.0,0.0,0.0,0.0,0.0,0.0,0.0,0.0,0.0,0.0,0.0,0.0,0.0,0.0,0.0,0.0,0.0,0.0,0.0,0.0,0.0,0.0,0.0,0.0,0.0,0.0,0.0,0.0,0.0,0.0,0.0,0.0,0.0,0.0,0.0,0.0,0.0,0.0,0.0,0.0,0.0,0.0,0.0,0.0,0.0,0.0,0.0,0.0,0.0,0.0,0.0,0.0,0.0,0.0,0.0,0.0,0.0,0.0,0.0,0.0,0.0,0.0,0.0,0.0,0.0,0.0,0.0,0.0,0.0,0.0,0.0,0.0,0.0,0.0,0.0,0.0,0.0,0.0,0.0,0.0,0.0,0.0,0.0,0.0,0.0,0.0,0.0,0.0,0.0,0.0,0.0,0.0,0.0,0.0,-1.9098,-1.9955,-2.0452,-2.0431,-1.9251,-1.8517,0.0,0.0,0.0,0.0,0.0,0.0,0.0,0.0,0.0,0.0,0.0,0.0,0.0,0.0,0.0,0.0,0.0,0.0,0.0,0.0,0.0,0.0,0.0,0.0,0.0,0.0,0.0,0.0,0.0,0.0,0.0,0.0,0.0,0.0,0.0,0.0,0.0,0.0,0.0,0.0,0.0,0.0,0.0,0.0,0.0,0.0,0.0,0.0,0.0,0.0,0.0,0.0,0.0,0.0,0.0,0.0,0.0,0.0,0.0,0.0,0.0,0.0,0.0,0.0,0.0,0.0,0.0,0.0,0.0,0.0,0.0,0.0,0.0,0.0,0.0,0.0,0.0,0.0,0.0,0.0,0.0,0.0,0.0,0.0,0.0,0.0,0.0,0.0,0.0,0.0,0.0,0.0,0.0,0.0,0.0,0.0,0.0,0.0,0.0,0.0,0.0,0.0,0.0,0.0,0.0,0.0,0.0,0.0,0.0,-1.9862,-2.0555,-2.0907,-2.0855,-1.9572,-1.8828,-1.8557,0.0,0.0,0.0,0.0,0.0,0.0,0.0,0.0,0.0,0.0,0.0,0.0,0.0,0.0,0.0,0.0,0.0,0.0,0.0,0.0,0.0,0.0,0.0,0.0,0.0,0.0,0.0,0.0,0.0,0.0,0.0,0.0,0.0,0.0,0.0,0.0,0.0,0.0,0.0,0.0,0.0,0.0,0.0,0.0,0.0,0.0,0.0,0.0,0.0,0.0,0.0,0.0,0.0,0.0,0.0,0.0,0.0,0.0,0.0,0.0,0.0,0.0,0.0,0.0,0.0,0.0,0.0,0.0,0.0,0.0,0.0,0.0,0.0,0.0,0.0,0.0,0.0,0.0,0.0,0.0,0.0,0.0,0.0,0.0,0.0,0.0,0.0,0.0,0.0,0.0,0.0,0.0,0.0,0.0,0.0,0.0,0.0,0.0,0.0,0.0,0.0,0.0,0.0,0.0,0.0,0.0,0.0,0.0,-2.1067,-2.1569,-2.1383,-2.0509,-2.0017,-1.9181,0.0,0.0,0.0,0.0,0.0,0.0,0.0,0.0,0.0,0.0,0.0,0.0,0.0,0.0,0.0,0.0,0.0,0.0,0.0,0.0,0.0,0.0,0.0,0.0,0.0,0.0,0.0,0.0,0.0,0.0,0.0,0.0,0.0,0.0,0.0,0.0,0.0,0.0,0.0,0.0,0.0,0.0,0.0,0.0,0.0,0.0,0.0,0.0,0.0,0.0,0.0,0.0,0.0,0.0,0.0,0.0,0.0,0.0,0.0,0.0,0.0,0.0,0.0,0.0,0.0,0.0,0.0,0.0,0.0,0.0,0.0,0.0,0.0,0.0,0.0,0.0,0.0,0.0,0.0,0.0,0.0,0.0,0.0,0.0,0.0,0.0,0.0,0.0,0.0,0.0,0.0,0.0,0.0,0.0,0.0,0.0,0.0,0.0,0.0,0.0,0.0,0.0,0.0,0.0,0.0,0.0,0.0,0.0,0.0,-2.1077,-2.1569,-2.1683,-2.1435,-2.0384,-1.9471,0.0,0.0,0.0,0.0,0.0,0.0,0.0,0.0,0.0,0.0,0.0,0.0,0.0,0.0,0.0,0.0,0.0,0.0,0.0,0.0,0.0,0.0,0.0,0.0,0.0,0.0,0.0,0.0,0.0,0.0,0.0,0.0,0.0,0.0,0.0,0.0,0.0,0.0,0.0,0.0,0.0,0.0,0.0,0.0,0.0,0.0,0.0,0.0,0.0,0.0,0.0,0.0,0.0,0.0,0.0,0.0,0.0,0.0,0.0,0.0,0.0,0.0,0.0,0.0,0.0,0.0,0.0,0.0,0.0,0.0,0.0,0.0,0.0,0.0,0.0,0.0,0.0,0.0,0.0,0.0,0.0,0.0,0.0,0.0,0.0,0.0,0.0,0.0,0.0,0.0,0.0,0.0,0.0,0.0,0.0,0.0,0.0,0.0,0.0,0.0,0.0,0.0,0.0,0.0,0.0,0.0,0.0,0.0,-2.1217,-2.1404,-2.1673,-2.1807,-2.1807,-2.0855,-2.0062,0.0,0.0,0.0,0.0,0.0,0.0,0.0,0.0,0.0,0.0,0.0,0.0,0.0,0.0,0.0,0.0,0.0,0.0,0.0,0.0,0.0,0.0,0.0,0.0,0.0,0.0,0.0,0.0,0.0,0.0,0.0,0.0,0.0,0.0,0.0,0.0,0.0,0.0,0.0,0.0,0.0,0.0,0.0,0.0,0.0,0.0,0.0,0.0,0.0,0.0,0.0,0.0,0.0,0.0,0.0,0.0,0.0,0.0,0.0,0.0,0.0,0.0,0.0,0.0,0.0,0.0,0.0,0.0,0.0,0.0,0.0,0.0,0.0,0.0,0.0,0.0,0.0,0.0,0.0,0.0,0.0,0.0,0.0,0.0,0.0,0.0,0.0,0.0,0.0,0.0,0.0,0.0,0.0,0.0,0.0,0.0,0.0,0.0,0.0,0.0,0.0,0.0,0.0,0.0,0.0,0.0,0.0,0.0,-2.1383,-2.1797,-2.1807,-2.1807,-2.1759,-2.1352,-2.069,0.0,0.0,0.0,0.0,0.0,0.0,0.0,0.0,0.0,0.0,0.0,0.0,0.0,0.0,0.0,0.0,0.0,0.0,0.0,0.0,0.0,0.0,0.0,0.0,0.0,0.0,0.0,0.0,0.0,0.0,0.0,0.0,0.0,0.0,0.0,0.0,0.0,0.0,0.0,0.0,0.0,0.0,0.0,0.0,0.0,0.0,0.0,0.0,0.0,0.0,0.0,0.0,0.0,0.0,0.0,0.0,0.0,0.0,0.0,0.0,0.0,0.0,0.0,0.0,0.0,0.0,0.0,0.0,0.0,0.0,0.0,0.0,0.0,0.0,0.0,0.0,0.0,0.0,0.0,0.0,0.0,0.0,0.0,0.0,0.0,0.0,0.0,0.0,0.0,0.0,0.0,0.0,0.0,0.0,0.0,0.0,0.0,0.0,0.0,0.0,0.0,0.0,0.0,0.0,0.0,0.0,0.0,0.0,-2.1704,-2.1807,-2.1807,-2.1807,-2.1797,-2.1362,-2.069,0.0,0.0,0.0,0.0,0.0,0.0,0.0,0.0,0.0,0.0,0.0,0.0,0.0,0.0,0.0,0.0,0.0,0.0,0.0,0.0,0.0,0.0,0.0,0.0,0.0,0.0,0.0,0.0,0.0,0.0,0.0,0.0,0.0,0.0,0.0,0.0,0.0,0.0,0.0,0.0,0.0,0.0,0.0,0.0,0.0,0.0,0.0,0.0,-2.5928,0.0,0.0,0.0,0.0,0.0,0.0,0.0,0.0,0.0,0.0,0.0,0.0,0.0,0.0,0.0,0.0,0.0,0.0,0.0,0.0,0.0,0.0,0.0,0.0,0.0,0.0,0.0,0.0,0.0,0.0,0.0,0.0,0.0,0.0,0.0,0.0,0.0,0.0,0.0,0.0,0.0,0.0,0.0,0.0,0.0,0.0,0.0,0.0,0.0,0.0,0.0,0.0,0.0,0.0,0.0,0.0,0.0,0.0,0.0,-2.1807,-2.1807,-2.1807,-2.1807,-2.1797,-2.1569,-2.101,0.0,0.0,0.0,0.0,0.0,0.0,0.0,0.0,0.0,0.0,0.0,0.0,0.0,0.0,0.0,0.0,0.0,0.0,0.0,0.0,0.0,0.0,0.0,0.0,0.0,0.0,0.0,0.0,0.0,0.0,0.0,0.0,0.0,0.0,0.0,0.0,0.0,0.0,0.0,0.0,0.0,0.0,0.0,0.0,0.0,0.0,0.0,0.0,0.0,0.0,0.0,0.0,0.0,0.0,0.0,0.0,0.0,0.0,0.0,0.0,0.0,0.0,0.0,0.0,0.0,0.0,0.0,0.0,0.0,0.0,0.0,0.0,0.0,0.0,0.0,0.0,0.0,0.0,0.0,0.0,0.0,0.0,0.0,0.0,0.0,0.0,0.0,0.0,0.0,0.0,0.0,0.0,0.0,0.0,0.0,0.0,0.0,0.0,0.0,0.0,0.0,0.0,0.0,0.0,0.0,0.0,0.0,-2.13,-2.1735,-2.1797,-2.1807,-2.1807,-2.1807,-2.1807,-2.1335,-2.0416,0.0,0.0,0.0,0.0,0.0,0.0,0.0,0.0,0.0,0.0,0.0,0.0,0.0,0.0,0.0,0.0,0.0,0.0,0.0,0.0,0.0,0.0,0.0,0.0,0.0,0.0,0.0,0.0,0.0,0.0,0.0,0.0,0.0,0.0,0.0,0.0,0.0,0.0,-2.4194,-2.443,0.0,0.0,0.0,0.0,0.0,0.0,0.0,0.0,-2.5241,0.0,0.0,0.0,0.0,0.0,0.0,0.0,0.0,0.0,0.0,0.0,0.0,0.0,0.0,0.0,0.0,0.0,0.0,0.0,0.0,0.0,0.0,0.0,0.0,0.0,0.0,0.0,0.0,0.0,0.0,0.0,0.0,0.0,0.0,0.0,0.0,0.0,0.0,0.0,0.0,0.0,0.0,0.0,0.0,0.0,0.0,0.0,0.0,0.0,0.0,0.0,0.0,0.0,0.0,0.0,0.0,-2.0953,-2.1118,-2.1414,-2.1797,-2.1807,-2.1807,-2.1807,-2.1807,-2.1373,-2.0426,0.0,0.0,0.0,0.0,0.0,0.0,0.0,0.0,0.0,0.0,0.0,0.0,0.0,0.0,0.0,0.0,0.0,0.0,0.0,0.0,0.0,0.0,0.0,0.0,0.0,0.0,0.0,0.0,0.0,0.0,0.0,0.0,0.0,0.0,0.0,0.0,0.0,0.0,0.0,-2.2388,-2.2739,0.0,0.0,0.0,0.0,0.0,0.0,0.0,0.0,-2.5347,0.0,0.0,0.0,0.0,0.0,0.0,0.0,0.0,0.0,0.0,0.0,0.0,0.0,0.0,0.0,0.0,0.0,0.0,0.0,0.0,0.0,0.0,0.0,0.0,0.0,0.0,0.0,0.0,0.0,0.0,0.0,0.0,0.0,0.0,0.0,0.0,0.0,0.0,0.0,0.0,0.0,0.0,0.0,0.0,0.0,0.0,0.0,0.0,0.0,0.0,0.0,0.0,0.0,0.0,0.0,-2.0715,-2.1228,-2.158,-2.1797,-2.1807,-2.1807,-2.1797,-2.1569,-2.1124,0.0,0.0,0.0,0.0,0.0,0.0,0.0,0.0,0.0,0.0,0.0,0.0,0.0,0.0,0.0,0.0,0.0,0.0,0.0,0.0,0.0,0.0,0.0,0.0,0.0,0.0,0.0,0.0,0.0,0.0,0.0,0.0,0.0,0.0,0.0,0.0,0.0,0.0,0.0,0.0,-2.229,-2.2563,-2.2402,0.0,0.0,0.0,0.0,0.0,0.0,-2.4168,-2.4826,0.0,0.0,0.0,0.0,0.0,0.0,0.0,0.0,0.0,0.0,0.0,0.0,0.0,0.0,0.0,0.0,0.0,0.0,0.0,0.0,0.0,0.0,0.0,0.0,0.0,0.0,0.0,0.0,0.0,0.0,0.0,0.0,0.0,0.0,0.0,0.0,0.0,0.0,0.0,0.0,0.0,0.0,0.0,0.0,0.0,0.0,0.0,0.0,0.0,0.0,0.0,0.0,0.0,0.0,0.0,-2.0416,-2.1248,-2.1714,-2.1797,-2.1807,-2.1807,-2.1797,-2.1352,-2.0892,0.0,0.0,0.0,0.0,0.0,0.0,0.0,0.0,0.0,0.0,0.0,0.0,0.0,0.0,0.0,0.0,0.0,0.0,0.0,0.0,0.0,0.0,0.0,0.0,0.0,0.0,0.0,0.0,0.0,0.0,0.0,0.0,0.0,0.0,0.0,0.0,0.0,0.0,0.0,0.0,0.0,-2.2569,-2.1897,-2.2128,0.0,0.0,0.0,0.0,-2.2665,-2.3375,0.0,0.0,0.0,0.0,0.0,0.0,0.0,0.0,0.0,0.0,0.0,0.0,0.0,0.0,0.0,0.0,0.0,0.0,0.0,0.0,0.0,0.0,0.0,0.0,0.0,0.0,0.0,0.0,0.0,0.0,0.0,0.0,0.0,0.0,0.0,0.0,0.0,0.0,0.0,0.0,0.0,0.0,0.0,0.0,0.0,0.0,0.0,0.0,0.0,0.0,0.0,0.0,0.0,0.0,0.0,0.0,-2.04,-2.0938,-2.1404,-2.1787,-2.1807,-2.1807,-2.1797,-2.1362,-2.0916,0.0,0.0,0.0,0.0,0.0,0.0,0.0,0.0,0.0,0.0,0.0,0.0,0.0,0.0,0.0,0.0,0.0,0.0,0.0,0.0,0.0,0.0,0.0,0.0,0.0,0.0,0.0,0.0,0.0,0.0,0.0,0.0,0.0,0.0,0.0,0.0,0.0,0.0,0.0,0.0,0.0,-2.1908,-2.1818,-2.1838,-2.1859,0.0,0.0,-2.1845,-2.1921,-2.2628,0.0,0.0,0.0,0.0,0.0,0.0,0.0,0.0,0.0,0.0,0.0,0.0,0.0,0.0,0.0,0.0,0.0,0.0,0.0,0.0,0.0,0.0,0.0,0.0,0.0,0.0,0.0,0.0,0.0,0.0,0.0,0.0,0.0,0.0,0.0,0.0,0.0,0.0,0.0,0.0,0.0,0.0,0.0,0.0,0.0,0.0,0.0,0.0,0.0,0.0,0.0,0.0,0.0,0.0,0.0,-1.9779,-2.0385,-2.1135,-2.1611,-2.1797,-2.1807,-2.1807,-2.1807,-2.1104,-2.0659,0.0,0.0,0.0,0.0,0.0,0.0,0.0,0.0,0.0,0.0,0.0,0.0,0.0,0.0,0.0,0.0,0.0,0.0,0.0,0.0,0.0,0.0,0.0,0.0,0.0,0.0,0.0,0.0,0.0,0.0,0.0,0.0,0.0,0.0,0.0,0.0,0.0,0.0,0.0,0.0,0.0,0.0,-2.1838,-2.2025,0.0,0.0,0.0,-2.1807,-2.1807,0.0,0.0,0.0,0.0,0.0,0.0,0.0,0.0,0.0,0.0,0.0,0.0,0.0,0.0,0.0,0.0,0.0,0.0,0.0,0.0,0.0,0.0,0.0,0.0,0.0,0.0,0.0,0.0,0.0,0.0,0.0,0.0,0.0,0.0,0.0,0.0,0.0,0.0,0.0,0.0,0.0,0.0,0.0,0.0,0.0,0.0,0.0,0.0,0.0,0.0,0.0,0.0,0.0,0.0,0.0,0.0,0.0,-2.042,-2.1304,-2.1807,-2.1807,-2.1807,-2.1794,-2.1734,-2.1088,0.0,0.0,0.0,0.0,0.0,0.0,0.0,0.0,0.0,0.0,0.0,0.0,0.0,0.0,0.0,0.0,0.0,0.0,0.0,0.0,0.0,0.0,0.0,0.0,0.0,0.0,0.0,-2.0124,0.0,0.0,0.0,0.0,0.0,0.0,0.0,0.0,0.0,0.0,0.0,0.0,0.0,0.0,-2.2201,-2.1859,-2.2108,-2.2201,0.0,0.0,-2.1807,-2.1807,-2.2279,-2.2777,0.0,0.0,0.0,0.0,0.0,0.0,0.0,0.0,0.0,0.0,0.0,0.0,0.0,0.0,0.0,0.0,0.0,0.0,0.0,0.0,0.0,0.0,0.0,0.0,0.0,0.0,0.0,0.0,0.0,0.0,0.0,0.0,0.0,0.0,0.0,0.0,0.0,0.0,0.0,0.0,0.0,0.0,0.0,0.0,0.0,0.0,0.0,0.0,0.0,0.0,0.0,0.0,0.0,0.0,0.0,-2.042,-2.1331,-2.1807,-2.1807,-2.1807,-2.1751,-2.1618,-2.1599,-2.1397,0.0,0.0,0.0,0.0,0.0,0.0,0.0,0.0,0.0,0.0,0.0,0.0,0.0,0.0,0.0,0.0,0.0,0.0,0.0,0.0,0.0,0.0,0.0,0.0,0.0,0.0,0.0,0.0,0.0,0.0,0.0,0.0,0.0,0.0,0.0,0.0,0.0,0.0,0.0,0.0,0.0,-2.1849,-2.1818,-2.1828,-2.1849,0.0,0.0,-2.1807,-2.1807,-2.1845,-2.2149,-2.2889,0.0,0.0,0.0,0.0,0.0,0.0,0.0,0.0,0.0,0.0,0.0,0.0,0.0,0.0,0.0,0.0,0.0,0.0,0.0,0.0,0.0,0.0,0.0,0.0,0.0,0.0,0.0,0.0,0.0,0.0,0.0,0.0,0.0,0.0,0.0,0.0,0.0,0.0,0.0,0.0,0.0,0.0,0.0,0.0,0.0,0.0,0.0,0.0,0.0,0.0,0.0,0.0,0.0,-1.9409,-2.0017,-2.1197,-2.1807,-2.1807,-2.1807,-2.1832,-2.1919,-2.1789,-2.1552,0.0,0.0,0.0,0.0,0.0,0.0,0.0,0.0,0.0,0.0,0.0,0.0,0.0,0.0,0.0,0.0,0.0,0.0,0.0,0.0,0.0,0.0,0.0,0.0,0.0,0.0,0.0,0.0,-2.1407,-2.1446,-2.1563,0.0,0.0,0.0,0.0,0.0,0.0,0.0,0.0,0.0,0.0,-2.2128,-2.1849,-2.2056,0.0,0.0,-2.2056,-2.2139,-2.1849,-2.2045,-2.2398,-2.2896,-2.3239,0.0,0.0,0.0,0.0,0.0,0.0,0.0,0.0,0.0,0.0,0.0,0.0,0.0,0.0,0.0,0.0,0.0,0.0,0.0,0.0,0.0,0.0,0.0,0.0,0.0,0.0,0.0,0.0,0.0,0.0,0.0,0.0,0.0,0.0,0.0,0.0,0.0,0.0,0.0,0.0,0.0,0.0,0.0,0.0,0.0,0.0,0.0,0.0,0.0,0.0,0.0,0.0,-1.9409,-1.9979,-2.1176,-2.1807,-2.1807,-2.1807,-2.1919,-2.2133,-2.2121,-2.1889,0.0,0.0,0.0,0.0,0.0,0.0,0.0,0.0,0.0,0.0,0.0,0.0,0.0,0.0,0.0,0.0,0.0,0.0,0.0,0.0,0.0,0.0,0.0,0.0,0.0,0.0,0.0,0.0,-2.2032,-2.2186,-2.2581,0.0,0.0,0.0,0.0,0.0,0.0,0.0,0.0,0.0,0.0,-2.2625,-2.1908,-2.2087,-2.2221,-2.2035,-2.217,-2.2221,-2.2035,-2.2294,-2.2727,-2.3477,0.0,0.0,0.0,0.0,0.0,0.0,0.0,0.0,0.0,0.0,0.0,0.0,0.0,0.0,0.0,0.0,0.0,0.0,0.0,0.0,0.0,0.0,0.0,0.0,0.0,0.0,0.0,0.0,0.0,0.0,-1.6402,0.0,0.0,0.0,0.0,0.0,0.0,0.0,0.0,0.0,0.0,0.0,0.0,0.0,0.0,0.0,0.0,0.0,0.0,0.0,0.0,0.0,0.0,-1.9544,-2.0389,-2.1358,-2.1807,-2.1845,-2.1807,-2.1971,-2.224,-2.2706,-2.2552,-2.1655,0.0,0.0,0.0,0.0,0.0,0.0,0.0,0.0,0.0,0.0,0.0,0.0,0.0,0.0,0.0,0.0,0.0,0.0,0.0,0.0,0.0,0.0,0.0,0.0,0.0,0.0,-2.1471,-2.1209,-2.1851,0.0,0.0,0.0,0.0,0.0,0.0,0.0,0.0,0.0,0.0,-2.3432,-2.3286,-2.2022,-2.1828,-2.2084,-2.2428,-2.2128,-2.1994,-2.2428,-2.2501,-2.3066,0.0,0.0,0.0,0.0,0.0,0.0,0.0,0.0,0.0,0.0,0.0,0.0,0.0,0.0,0.0,0.0,0.0,0.0,0.0,0.0,0.0,0.0,0.0,0.0,0.0,0.0,0.0,-1.7543,-1.7254,0.0,0.0,0.0,0.0,0.0,0.0,0.0,0.0,0.0,0.0,0.0,-1.9107,-1.9983,0.0,0.0,0.0,0.0,0.0,0.0,0.0,0.0,0.0,0.0,0.0,0.0,-1.9903,-2.0735,-2.1983,-2.2756,-2.3106,-2.3132,-2.3234,-2.3447,-2.3755,-2.3362,-2.2168,0.0,0.0,0.0,0.0,0.0,0.0,0.0,0.0,0.0,0.0,0.0,0.0,0.0,0.0,0.0,0.0,0.0,0.0,0.0,0.0,0.0,0.0,0.0,0.0,0.0,-2.283,0.0,0.0,0.0,0.0,0.0,0.0,0.0,0.0,0.0,0.0,0.0,-2.4757,-2.4385,-2.4565,-2.4316,-2.3225,-2.3616,-2.3812,0.0,0.0,0.0,0.0,0.0,0.0,0.0,0.0,0.0,0.0,0.0,0.0,0.0,0.0,-2.8988,-2.8247,-2.7946,-2.7883,-2.8059,0.0,0.0,0.0,0.0,0.0,0.0,0.0,0.0,0.0,0.0,0.0,0.0,0.0,0.0,-1.8309,0.0,-1.7998,0.0,0.0,0.0,0.0,0.0,0.0,0.0,0.0,-2.0468,-2.0974,-2.0756,-2.1407,-2.1709,0.0,-2.1496,-2.1059,0.0,0.0,0.0,0.0,0.0,0.0,0.0,0.0,-2.063,-2.1696,-2.2748,-2.3548,-2.4061,-2.3889,-2.3944,-2.4218,-2.4066,-2.3543,-2.2701,-2.1786,-2.1197,0.0,0.0,0.0,0.0,0.0,0.0,0.0,0.0,0.0,0.0,0.0,0.0,0.0,0.0,0.0,0.0,0.0,0.0,0.0,0.0,0.0,0.0,0.0,-2.3145,0.0,0.0,0.0,0.0,0.0,0.0,0.0,0.0,0.0,-2.6601,-2.6357,-2.6103,-2.569,-2.5643,-2.5236,-2.4116,0.0,0.0,0.0,0.0,0.0,0.0,0.0,-2.4906,-2.6382,-2.6734,-2.729,-2.8923,-2.9842,-3.0105,-2.9365,0.0,0.0,-2.8863,-2.8536,-2.8448,-2.8662,-2.8536,-2.8398,-2.8386,-2.8386,-2.8335,0.0,0.0,0.0,0.0,0.0,0.0,0.0,0.0,-1.8725,-1.8776,0.0,-1.8694,0.0,0.0,0.0,0.0,0.0,0.0,0.0,0.0,-2.214,-2.297,-2.2979,-2.2514,-2.2719,-2.3518,-2.3468,-2.3479,-2.3399,-2.0969,0.0,0.0,0.0,0.0,0.0,0.0,-2.1731,-2.3187,-2.3665,-2.4181,-2.472,-2.4213,-2.4036,-2.4384,-2.3667,-2.3248,-2.3169,-2.2688,-2.2139,-2.1538,-2.1485,0.0,0.0,0.0,0.0,0.0,0.0,0.0,0.0,0.0,0.0,0.0,0.0,0.0,0.0,0.0,0.0,0.0,0.0,0.0,0.0,-2.2562,0.0,0.0,0.0,0.0,0.0,0.0,0.0,0.0,0.0,0.0,-2.7444,-2.8186,-2.8362,-2.7123,0.0,0.0,0.0,0.0,-2.3554,-2.3992,-2.4033,-2.4492,-2.5806,-2.6359,-2.7082,-2.8351,0.0,0.0,-2.9838,-3.0633,-3.0947,-2.998,-3.0193,-3.0419,-2.9867,-2.9315,-2.9126,-2.9616,-2.9315,-2.895,-2.8913,-2.8925,-2.8825,-2.1135,0.0,0.0,0.0,0.0,-1.9893,-2.01,-2.0524,-2.0389,-2.0224,-2.0027,-1.9893,0.0,0.0,0.0,0.0,0.0,0.0,-2.2128,-2.2286,-2.3167,-2.3677,-2.3916,-2.3733,-2.4167,-2.52,-2.4754,-2.4789,-2.5152,-2.4056,-2.2968,-2.191,0.0,0.0,0.0,0.0,-2.3542,-2.4516,-2.5046,-2.5557,-2.6139,-2.5546,-2.5121,-2.4841,-2.4174,-2.3668,-2.3223,-2.3039,-2.249,-2.1538,-2.1472,0.0,0.0,0.0,0.0,0.0,0.0,0.0,0.0,0.0,0.0,0.0,0.0,0.0,0.0,0.0,0.0,0.0,0.0,0.0,-2.2598,-2.275,-2.3167,0.0,0.0,0.0,0.0,0.0,0.0,0.0,0.0,0.0,-2.8436,-2.8161,-2.8056,0.0,0.0,-2.7636,-2.6819,-2.6881,-2.6812,-2.627,0.0,0.0,0.0,-2.6653,-2.7002,-2.8295,-2.9258,-2.9856,-2.9803,-3.0043,-3.0156,-2.9842,-2.9917,-2.9967,-2.9829,-2.9666,-2.9603,-2.9741,-2.9654,-2.9541,-2.9541,-2.9541,-2.9503,-2.2283,-2.1497,-2.1135,-2.1036,-2.1238,-2.1211,-2.1518,-2.1911,-2.1745,-2.1497,-2.1228,-2.1052,-2.0462,-1.9603,-1.9461,0.0,0.0,0.0,-2.3328,-2.3928,-2.4559,-2.5004,-2.5213,-2.4991,-2.5347,-2.6139,-2.5652,-2.5784,-2.6567,-2.623,-2.5924,-2.549,0.0,0.0,-2.3774,-2.4168,-2.4829,-2.5722,-2.6058,-2.6461,-2.6973,-2.625,-2.5427,-2.4674,-2.4295,-2.3913,-2.3561,-2.3576,-2.3117,-2.2203,-2.1969,-2.159,0.0,0.0,0.0,0.0,0.0,0.0,0.0,0.0,0.0,0.0,0.0,-2.2401,-2.2414,0.0,0.0,0.0,-2.1847,-2.2642,-2.3151,-2.3748,0.0,0.0,0.0,0.0,0.0,0.0,0.0,-2.8034,-2.88,-2.9176,-2.8925,-2.8645,-2.8653,-2.9188,-2.8819,-2.8382,-2.8005,0.0,-2.777,-2.7191,-2.7282,-2.7531,-2.79,-2.7912,-2.8284,-2.9443,-2.9863,-3.0118,-3.0118,-3.0281,-3.0344,-3.0181,-3.0118,-3.0118,-3.0105,-2.9942,-2.9779,-2.9779,-2.9779,-2.9779,-2.9779,-2.9779,-2.9779,-2.3298,-2.3215,-2.2346,-2.218,-2.249,-2.2501,-2.2708,-2.3029,-2.2625,-2.2449,-2.2408,-2.1994,-2.1352,-2.0529,-2.0226,0.0,-2.2874,-2.3571,-2.44,-2.544,-2.6092,-2.653,-2.6692,-2.6139,-2.622,-2.676,-2.622,-2.6539,-2.7554,-2.7554,-2.8142,-2.903,-2.6139,-2.4735,-2.491,-2.517,-2.5777,-2.6735,-2.6748,-2.7007,-2.7411,-2.6367,-2.5271,-2.4187,-2.4109,-2.4096,-2.4083,-2.4083,-2.3783,-2.3143,-2.2676,-2.21,-2.1472,0.0,0.0,0.0,0.0,0.0,0.0,0.0,0.0,0.0,0.0,0.0,0.0,0.0,0.0,0.0,-2.2428,0.0,-2.3892,-2.521,0.0,0.0,0.0,-2.6587,-2.6688,-2.7557,-2.8185,-2.8222,0.0,0.0,-2.9038,0.0,-2.9779,-2.9779,-2.9118,-2.8581,-2.8621,-2.7919,-2.7313,-2.7435,-2.7694,-2.8285,-2.9088,-2.9518,-3.0019,-3.0832,-3.0859,-3.0507,-3.0507,-3.0834,-3.0984,-3.0557,-3.0545,-3.052,-3.0545,-3.0105,-2.9779,-2.9779,-2.9779,-2.9779,-2.9779,-2.9779,-2.9779,-2.4177,-2.4125,-2.3619,-2.3049,-2.2501,-2.2501,-2.2356,-2.2128,-2.2014,-2.1963,-2.1963,-2.1859,-2.1869,-2.2022,-2.2152,-2.3139,-2.4769,-2.5181,-2.5738,-2.6346,-2.6543,-2.6645,-2.6645,-2.6151,-2.638,-2.7222,-2.6769,-2.6879,-2.7496,-2.753,-2.7663,-2.7868,-2.7159,-2.6992,-2.7473,-2.7121,-2.7046,-2.7335,-2.7302,-2.7148,-2.687,-2.6063,-2.5299,-2.4585,-2.4157,-2.3949,-2.3936,-2.4067,-2.3642,-2.2663,-2.2467,-2.193,-2.0936,-2.0309,0.0,0.0,0.0,0.0,0.0,0.0,0.0,0.0,0.0,-2.2831,-2.2439,0.0,-2.281,0.0,-2.3186,-2.394,-2.5064,-2.5151,0.0,0.0,-2.6964,-2.7419,-2.8247,-2.8586,-2.89,-2.9352,-2.9628,-2.9741,-2.9591,-2.9704,-2.9779,-2.9779,-2.9624,-2.9495,-2.9456,-2.9339,-2.917,-2.9143,-2.9202,-2.9406,-2.9601,-2.9754,-2.9918,-3.0129,-3.008,-2.9993,-2.998,-3.008,-3.0118,-3.0005,-2.9993,-2.998,-3.0005,-2.9867,-2.9792,-2.9779,-2.9779,-2.9779,-2.9779,-2.9779,-2.9779,-2.3939,-2.3908,-2.367,-2.3163,-2.2511,-2.2718,-2.2656,-2.2418,-2.2418,-2.2304,-2.2097,-2.189,-2.1942,-2.2208,-2.2406,-2.3382,-2.4926,-2.5254,-2.5953,-2.6964,-2.7019,-2.7053,-2.7053,-2.6769,-2.6939,-2.7456,-2.7188,-2.7351,-2.7902,-2.7902,-2.8046,-2.8294,-2.8033,-2.8059,-2.8333,-2.7811,-2.7503,-2.7503,-2.7503,-2.7216,-2.6719,-2.5966,-2.5363,-2.484,-2.4145,-2.3819,-2.3979,-2.4008,-2.3608,-2.2792,-2.2477,-2.206,-2.1472,-2.0757,-2.0588,0.0,0.0,0.0,0.0,0.0,0.0,0.0,0.0,0.0,0.0,0.0,-2.3647,-2.3981,-2.4451,-2.5135,-2.6143,-2.6548,-2.7021,-2.7582,-2.8097,-2.8536,-2.8863,-2.9151,-2.944,-2.9754,-2.9779,-2.9779,-2.9779,-2.9779,-2.9779,-2.9779,-2.9779,-2.9779,-2.9779,-2.9779,-2.9779,-2.9779,-2.9779,-2.9779,-2.9779,-2.9779,-2.9779,-2.9779,-2.9779,-2.9779,-2.9779,-2.9779,-2.9779,-2.9779,-2.9779,-2.9779,-2.9779,-2.9779,-2.9779,-2.9779,-2.9779,-2.9779,-2.9779,-2.9779,-2.9779,-2.3194,-2.3184,-2.3122,-2.2863,-2.2522,-2.2873,-2.3008,-2.3018,-2.3008,-2.278,-2.2387,-2.1983,-2.1849,-2.189,-2.1866,-2.2852,-2.449,-2.4707,-2.5707,-2.7289,-2.7469,-2.7503,-2.7503,-2.7503,-2.7503,-2.7503,-2.7503,-2.7751,-2.8255,-2.8268,-2.8577,-2.9048,-2.8564,-2.8268,-2.8255,-2.7738,-2.7503,-2.7503,-2.7503,-2.7268,-2.6791,-2.6006,-2.5449,-2.4988,-2.4159,-2.3794,-2.3995,-2.3949,-2.3677,-2.3165,-2.2615,-2.2303,-2.2307,-2.1637,-2.1326,0.0,-2.1471,0.0,0.0,0.0,0.0,0.0,0.0,0.0,0.0,-2.4226,-2.4706,-2.5201,-2.5949,-2.6637,-2.719,-2.8399,-2.8936,-2.8411,-2.9189,-2.9591,-2.9126,-2.949,-2.9779,-2.9779,-2.9779,-2.9779,-2.9779,-2.9779,-2.9779,-2.9779,-2.9779,-2.9779,-2.9779,-2.9779,-2.9779,-2.9779,-2.9779,-2.9779,-2.9779,-2.9779,-2.9779,-2.9779,-2.9779,-2.9779,-2.9779,-2.9779,-2.9779,-2.9779,-2.9779,-2.9779,-2.9779,-2.9779,-2.9779,-2.9779,-2.9779,-2.9779,-2.9779,-2.9779,-2.9779,-2.3194,-2.3163,-2.278,-2.2584,-2.248,-2.219,-2.2066,-2.2066,-2.2066,-2.2014,-2.1932,-2.1838,-2.2004,-2.2364,-2.2307,-2.3374,-2.5198,-2.5183,-2.5998,-2.7469,-2.749,-2.7503,-2.7503,-2.7503,-2.7503,-2.7503,-2.7503,-2.7555,-2.7693,-2.7693,-2.7745,-2.7863,-2.7745,-2.7693,-2.7659,0.0,0.0,0.0,-2.7403,-2.7284,-2.7167,-2.6327,-2.5588,-2.5103,-2.4416,0.0,-2.3548,-2.376,-2.3577,-2.2935,-2.285,0.0,0.0,0.0,0.0,0.0,0.0,0.0,0.0,0.0,0.0,0.0,-2.4133,-2.3974,-2.3939,-2.556,-2.6528,-2.6437,-2.7354,-2.8136,-2.8484,-2.8762,-2.9101,-2.944,-2.9654,-2.9741,-2.9628,-2.9729,-2.9779,-2.9779,-2.9779,-2.9779,-2.9779,-2.9779,-2.9779,-2.9779,-2.9779,-2.9779,-2.9779,-2.9779,-2.9779,-2.9779,-2.9779,-2.9779,-2.9779,-2.9779,-2.9779,-2.9779,-2.9779,-2.9779,-2.9779,-2.9779,-2.9779,-2.9779,-2.9779,-2.9779,-2.9779,-2.9779,-2.9779,-2.9779,-2.9779,-2.9779,-2.9779,-2.9779,-2.9779,-2.2511,0.0,-2.2252,-2.2159,0.0,-2.1911,-2.1807,-2.1807,-2.1807,-2.1807,-2.1807,-2.1807,-2.1932,-2.2149,-2.214,-2.2886,-2.424,-2.4669,-2.551,-2.6676,-2.7188,-2.7436,-2.7503,-2.7503,-2.7503,-2.7503,-2.7503,-2.7503,-2.7503,-2.7503,-2.7503,-2.7503,-2.7503,-2.7503,-2.7503,-2.7369,-2.7268,-2.7248,-2.7268,-2.7248,-2.7121,-2.6314,-2.5815,-2.5588,0.0,0.0,0.0,0.0,0.0,0.0,0.0,0.0,0.0,0.0,0.0,-2.3096,-2.3134,-2.3364,-2.3919,-2.3892,-2.4073,-2.4658,-2.4995,-2.5084,-2.499,-2.6368,-2.7249,-2.7249,-2.8111,-2.8736,-2.9038,-2.9227,-2.9465,-2.9754,-2.9779,-2.9779,-2.9779,-2.9779,-2.9779,-2.9779,-2.9779,-2.9779,-2.9779,-2.9779,-2.9779,-2.9779,-2.9779,-2.9779,-2.9779,-2.9779,-2.9779,-2.9779,-2.9779,-2.9779,-2.9779,-2.9779,-2.9779,-2.9779,-2.9779,-2.9779,-2.9779,-2.9779,-2.9779,-2.9779,-2.9779,-2.9779,-2.9779,-2.9779,-2.9779,-2.9779,-2.9779,-2.9779,-2.9779,-2.9779,-2.9779,-2.1807,-2.1807,-2.1807,-2.1807,-2.1807,-2.1807,-2.1807,-2.1807,0.0,0.0,0.0,-2.1807,-2.1807,-2.1807,-2.1807,-2.2252,-2.3054,-2.3841,-2.4755,-2.5824,-2.6688,-2.7235,-2.7469,-2.7469,-2.7469,-2.7503,-2.7469,-2.7456,-2.7503,-2.7469,-2.7469,-2.7469,-2.7423,-2.7403,-2.7369,-2.7268,-2.7146,-2.6943,-2.7113,-2.7113,-2.693,-2.6349,-2.5973,-2.5868,-2.5176,-2.4848,-2.4892,-2.4347,-2.3941,-2.3675,-2.3157,-2.2916,-2.3003,-2.2757,-2.3081,-2.4048,-2.4208,-2.45,-2.516,-2.5153,-2.5158,-2.5246,-2.5722,-2.6075,-2.6194,-2.7,-2.7597,-2.7902,-2.8608,-2.9114,-2.929,-2.9605,-2.9779,-2.9779,-2.9779,-2.9779,-2.9779,-2.9779,-2.9779,-2.9779,-2.9779,-2.9779,-2.9779,-2.9779,-2.9779,-2.9779,-2.9779,-2.9779,-2.9779,-2.9779,-2.9779,-2.9779,-2.9779,-2.9779,-2.9779,-2.9779,-2.9779,-2.9779,-2.9779,-2.9779,-2.9779,-2.9779,-2.9779,-2.9779,-2.9779,-2.9779,-2.9779,-2.9779,-2.9779,-2.9779,-2.9779,-2.9779,-2.9779,-2.9704,-2.9654,-2.1807,-2.1807,-2.1807,-2.1807,-2.1807,-2.1807,-2.1807,-2.1807,-2.1807,-2.1807,-2.1807,-2.1807,-2.1807,-2.1807,-2.1807,-2.2306,-2.3158,-2.3294,-2.4241,0.0,-2.6114,-2.6654,-2.7302,-2.7335,-2.7403,-2.749,-2.7369,-2.7403,-2.7456,-2.7369,-2.7335,-2.7302,-2.7146,-2.7011,-2.6829,-2.6977,-2.6875,-2.6568,-2.6692,-2.676,-2.676,-2.6514,-2.5954,-2.5028,-2.487,-2.4343,-2.3444,-2.3477,-2.3647,-2.3946,-2.3945,-2.3938,-2.3815,-2.3869,-2.3755,-2.3374,-2.3869,-2.4375,-2.4847,-2.5267,-2.5732,-2.6231,-2.637,-2.6476,-2.6637,-2.7604,-2.8276,-2.8337,-2.9101,-2.9666,-2.9717,-2.9767,-2.9779,-2.9779,-2.9779,-2.9779,-2.9779,-2.9779,-2.9779,-2.9779,-2.9779,-2.9779,-2.9779,-2.9779,-2.9779,-2.9779,-2.9779,-2.9779,-2.9779,-2.9779,-2.9779,-2.9779,-2.9779,-2.9779,-2.9779,-2.9779,-2.9779,-2.9779,-2.9779,-2.9779,-2.9779,-2.9779,-2.9779,-2.9779,-2.9779,-2.9779,-2.9779,-2.9779,-2.9779,-2.9779,-2.9767,-2.9741,-2.9704,-2.939,-2.9202,-2.1807,-2.1807,-2.1807,-2.1807,-2.1787,-2.1538,-2.128,-2.1062,-2.1052,-2.1342,-2.1787,-2.1807,-2.1807,-2.1807,-2.1807,-2.2025,-2.2446,-2.2883,-2.3573,-2.4421,-2.5357,-2.6057,-2.6483,-2.6918,-2.718,-2.7201,-2.7167,-2.7167,-2.7214,-2.718,-2.7113,-2.7146,-2.7058,-2.6956,-2.6863,-2.6829,-2.6773,-2.6624,-2.6658,-2.6658,-2.6589,-2.6231,-2.5749,-2.5247,-2.4983,-2.4562,-2.4048,-2.384,-2.3802,-2.3991,-2.3752,-2.3576,-2.354,-2.3558,-2.3613,-2.3602,-2.3903,-2.4293,-2.475,-2.5297,-2.585,-2.6436,-2.6487,-2.6533,-2.6589,-2.7334,-2.7927,-2.8219,-2.89,-2.9465,-2.9741,-2.9779,-2.9779,-2.9779,-2.9779,-2.9779,-2.9779,-2.9779,-2.9779,-2.9779,-2.9779,-2.9779,-2.9779,-2.9779,-2.9779,-2.9779,-2.9779,-2.9779,-2.9779,-2.9779,-2.9779,-2.9779,-2.9779,-2.9779,-2.9779,-2.9779,-2.9779,-2.9779,-2.9779,-2.9779,-2.9779,-2.9779,-2.9779,-2.9779,-2.9779,-2.9779,-2.9779,-2.9779,-2.9779,-2.9754,-2.9503,-2.9365,-2.9252,-2.8838,-2.8624,-2.1714,-2.1807,-2.1694,-2.1652,-2.1621,-2.1269,-2.0819,-2.0395,-2.0385,-2.0788,-2.1455,-2.16,-2.1714,-2.1807,-2.1807,-2.1807,-2.1883,-2.244,-2.2905,-2.3268,-2.4469,-2.5287,-2.5802,-2.6393,-2.6731,-2.6811,-2.6764,-2.6785,-2.6785,-2.6764,-2.6794,-2.6897,-2.6875,-2.6888,-2.6875,-2.6726,-2.6645,-2.6645,-2.6531,-2.64,-2.6285,-2.5858,-2.5485,-2.5209,-2.4845,-2.4582,-2.4431,-2.4029,-2.3866,-2.3966,-2.3565,-2.3283,-2.3296,-2.3296,-2.3446,-2.3778,-2.3929,-2.4293,-2.4946,-2.536,-2.5837,-2.6436,-2.6487,-2.6487,-2.6524,-2.6876,-2.7354,-2.7871,-2.8411,-2.8925,-2.9264,-2.9365,-2.9402,-2.9415,-2.9528,-2.9566,-2.9603,-2.9704,-2.9779,-2.9779,-2.9779,-2.9779,-2.9779,-2.9779,-2.9779,-2.9779,-2.9779,-2.9779,-2.9779,-2.9779,-2.9779,-2.9779,-2.9779,-2.9779,-2.9779,-2.9779,-2.9779,-2.9779,-2.9779,-2.9779,-2.9779,-2.9779,-2.9779,-2.9779,-2.9779,-2.9779,-2.9779,-2.9779,-2.9779,-2.9754,-2.9339,-2.8838,-2.8499,-2.8222,-2.8009,-2.1435,-2.1714,-2.1373,-2.1186,-2.1155,-2.1077,-2.0777,-2.0385,-2.0364,-2.0416,-2.0607,-2.099,-2.1404,-2.1776,-2.1787,-2.1749,-2.1797,-2.1883,-2.2327,-2.2942,-2.3279,-2.4194,-2.5522,-2.5697,-2.5925,-2.622,-2.6103,-2.6115,-2.6209,-2.609,-2.6211,-2.6505,-2.6568,-2.6568,-2.6533,-2.6508,-2.6508,-2.6508,-2.5971,-2.5707,-2.5674,-2.5624,-2.5146,-2.4167,-2.4104,-2.3828,-2.3358,-2.3195,-2.3421,-2.3941,-2.3929,-2.3904,-2.3891,-2.3904,-2.3672,-2.3246,-2.3703,-2.4443,-2.5372,-2.5561,-2.5845,-2.6411,-2.6487,-2.6487,-2.6487,-2.6537,-2.6801,-2.7341,-2.7858,-2.821,-2.826,-2.8323,-2.8386,-2.8436,-2.8762,-2.8963,-2.9051,-2.9478,-2.9779,-2.9779,-2.9716,-2.9779,-2.9767,-2.9779,-2.9779,-2.9779,-2.9779,-2.9779,-2.9779,-2.9779,-2.9779,-2.9779,-2.9779,-2.9779,-2.9779,-2.9779,-2.9779,-2.9779,-2.9779,-2.9779,-2.9779,-2.9779,-2.9779,-2.9779,-2.9779,-2.9779,-2.9779,-2.9779,-2.9754,-2.9578,-2.9164,-2.8586,-2.777,-2.7406,-2.7494,-2.1466,-2.1383,-2.1197,-2.0803,-2.0358,-2.0317,-2.0048,-1.9634,-1.9624,-1.9768,-2.0038,-2.0269,-2.071,-2.1393,-2.1393,-2.1538,-2.1797,-2.1807,-2.1959,-2.2327,-2.283,-2.3683,-2.466,-2.5217,-2.5578,-2.5815,-2.5777,-2.558,-2.5456,-2.5605,-2.5791,-2.5996,-2.6323,-2.6487,-2.6461,-2.616,-2.5971,-2.5971,-2.541,-2.4983,-2.4695,-2.4657,-2.4456,-2.4017,-2.3634,-2.3371,-2.3133,-2.3095,-2.3221,-2.3434,-2.3459,-2.3459,-2.3459,-2.3459,-2.3358,-2.3145,-2.3321,-2.3828,-2.4607,-2.4958,-2.5372,-2.5959,-2.6298,-2.6487,-2.6487,-2.6487,-2.66,-2.6839,-2.7306,-2.7733,-2.8034,-2.8109,-2.8109,-2.8134,-2.8323,-2.8399,-2.8448,-2.8649,-2.89,-2.9214,-2.9277,-2.944,-2.9704,-2.9779,-2.9779,-2.9779,-2.9779,-2.9779,-2.9779,-2.9779,-2.9779,-2.9779,-2.9779,-2.9779,-2.9779,-2.9779,-2.9779,-2.9779,-2.9779,-2.9779,-2.9767,-2.9779,-2.9779,-2.9767,-2.9741,-2.9741,-2.9779,-2.9465,-2.9277,-2.9114,-2.8486,-2.7695,-2.6977,-2.6839,-2.6964,-2.1238,-2.0912,-2.0928,-2.0483,-1.9813,-1.9793,-1.9533,-1.9129,-1.9098,-1.9295,-1.9585,-1.9606,-2.0041,-2.069,-2.0866,-2.1114,-2.1414,-2.1559,-2.1611,-2.1707,-2.2563,-2.3375,-2.4108,-2.4779,-2.5198,-2.5323,-2.5197,-2.4946,-2.4682,-2.5134,-2.5448,-2.5636,-2.6047,-2.6336,-2.6436,-2.6047,-2.5762,-2.5561,-2.5084,-2.4525,-2.4067,-2.3841,-2.3766,-2.3728,-2.3321,-2.3095,-2.3095,-2.3095,-2.3095,-2.3108,-2.3095,-2.3095,-2.3095,-2.3095,-2.3095,-2.3095,-2.3095,-2.3358,-2.3966,-2.4519,-2.5013,-2.5561,-2.6172,-2.6487,-2.6487,-2.6487,-2.6487,-2.6537,-2.6829,-2.7243,-2.757,-2.7657,-2.7657,-2.767,-2.777,-2.7871,-2.7883,-2.7984,-2.836,-2.8787,-2.8938,-2.9101,-2.9641,-2.9779,-2.9779,-2.9779,-2.9779,-2.9779,-2.9779,-2.9779,-2.9779,-2.9779,-2.9779,-2.9779,-2.9779,-2.9779,-2.9779,-2.9779,-2.9779,-2.9729,-2.9666,-2.9641,-2.9453,-2.9239,-2.944,-2.939,-2.9126,-2.88,-2.8562,-2.836,-2.7833,-2.7153,-2.6688,-2.6537,-2.6512,-2.0472,-2.0426,-2.0416,-2.0162,-1.9793,-1.9772,-1.9523,-1.9098,-1.9098,-1.9119,-1.916,-1.916,-1.9409,-1.9896,-2.0245,-2.0436,-2.055,-2.1,-2.117,-2.1343,-2.2397,-2.3386,-2.4085,-2.4388,-2.464,-2.4746,-2.4412,-2.413,-2.4079,-2.4594,-2.5109,-2.5548,-2.5636,-2.5925,-2.6361,-2.6373,-2.6126,-2.5536,-2.5021,-2.4519,-2.3991,-2.3434,-2.3183,-2.3183,-2.312,-2.3095,-2.3095,-2.3095,-2.3095,-2.3095,-2.3095,-2.3095,-2.3095,-2.3095,-2.3095,-2.3095,-2.3095,-2.3346,-2.3929,-2.4481,-2.4988,-2.5548,-2.6147,-2.6487,-2.6487,-2.6487,-2.6487,-2.6487,-2.6562,-2.6625,-2.6675,-2.6763,-2.6713,-2.6725,-2.7042,-2.7316,-2.7318,-2.7695,-2.831,-2.8687,-2.8787,-2.9076,-2.9654,-2.9779,-2.9691,-2.9691,-2.9741,-2.9754,-2.9704,-2.9741,-2.9779,-2.9779,-2.9779,-2.9779,-2.9767,-2.9779,-2.9779,-2.9741,-2.9691,-2.9591,-2.9428,-2.9239,-2.8925,-2.8725,-2.885,-2.8737,-2.8348,-2.8072,-2.7871,-2.7657,-2.7505,-2.6964,-2.6575,-2.6512,-2.6487,-2.0255,-1.9975,-1.9686,-1.9492,-1.9357,-1.9347,-1.9253,-1.9108,-1.9098,-1.9098,-1.9098,-1.9098,-1.9202,-1.9357,-1.9523,-2.0038,-2.0834,-2.1041,-2.1269,-2.1576,-2.2027,-2.2654,-2.3368,-2.3615,-2.3832,-2.4009,-2.4021,-2.3803,-2.3527,-2.3985,-2.4381,-2.4669,-2.5272,-2.5711,-2.5875,-2.59,-2.5636,-2.5109,-2.4569,-2.4029,-2.3502,-2.3208,-2.3095,-2.3095,-2.3095,-2.3095,-2.3095,-2.3095,-2.3095,-2.3095,-2.3095,-2.3095,-2.3095,-2.3095,-2.3095,-2.3095,-2.3095,-2.3195,-2.3484,-2.4286,-2.4895,-2.5134,-2.5996,-2.6487,-2.6487,-2.6487,-2.6487,-2.6487,-2.6487,-2.6487,-2.6487,-2.6487,-2.6487,-2.6524,-2.6675,-2.6813,-2.6813,-2.6989,-2.7304,-2.7783,-2.816,-2.8637,-2.9038,-2.9239,-2.9089,-2.885,-2.9327,-2.9553,-2.939,-2.9528,-2.9754,-2.9779,-2.9779,-2.9654,-2.9239,-2.9591,-2.9754,-2.9654,-2.9541,-2.9239,-2.8988,-2.8725,-2.8411,-2.8197,-2.8273,-2.826,-2.7934,-2.7645,-2.7394,-2.7065,-2.6864,-2.6839,-2.6537,-2.6499,-2.6487,-1.9903,-1.9741,-1.9295,-1.9098,-1.9098,-1.9098,-1.9098,-1.9098,-1.9098,-1.9098,-1.9098,-1.9098,-1.9098,-1.9098,-1.9098,-1.9717,-2.0783,-2.0752,-2.0928,-2.1342,-2.1769,-2.2157,-2.256,-2.2907,-2.3062,-2.3084,-2.3269,-2.3262,-2.3183,-2.3496,-2.3785,-2.4067,-2.4757,-2.5272,-2.5498,-2.5448,-2.5146,-2.475,-2.428,-2.3728,-2.3183,-2.3095,-2.3095,-2.3095,-2.3095,-2.3095,-2.3095,-2.3095,-2.3095,-2.3095,-2.3095,-2.3095,-2.3095,-2.3095,-2.3095,-2.3095,-2.3095,-2.3095,-2.3208,-2.3998,-2.4632,-2.4813,-2.5636,-2.6273,-2.6449,-2.6487,-2.6487,-2.6487,-2.6487,-2.6487,-2.6487,-2.6487,-2.6487,-2.6487,-2.6487,-2.6487,-2.6487,-2.6499,-2.6776,-2.7316,-2.7821,-2.8273,-2.8537,-2.8649,-2.8499,-2.8134,-2.8812,-2.9063,-2.9001,-2.9227,-2.9616,-2.9741,-2.9779,-2.9528,-2.9176,-2.9252,-2.9151,-2.9026,-2.8963,-2.8687,-2.8449,-2.8185,-2.7934,-2.7733,-2.767,-2.7695,-2.7544,-2.7256,-2.6952,-2.6575,-2.6562,-2.6612,-2.6499,-2.6499,-2.6449,-1.9399,-1.9668,-1.9295,-1.9098,-1.9098,-1.9098,-1.9098,-1.9098,-1.9098,-1.9098,-1.9098,-1.9098,-1.9098,-1.9098,-1.9098,-1.9572,-2.0224,-2.0052,-2.0166,-2.0663,-2.1681,-2.1941,-2.1645,-2.2183,-2.2295,-2.202,-2.2084,-2.2488,-2.3,-2.3153,-2.3434,-2.3879,-2.4042,-2.4594,-2.5523,-2.5071,-2.4813,-2.4644,-2.4243,-2.3684,-2.3183,-2.3095,-2.3095,-2.3095,-2.3095,-2.3095,-2.3095,-2.3095,-2.3095,-2.3095,-2.3095,-2.3095,-2.3095,-2.3095,-2.3095,-2.3095,-2.3095,-2.3095,-2.3158,-2.3672,-2.4318,-2.4782,-2.5335,-2.5946,-2.6399,-2.6487,-2.6487,-2.6487,-2.6487,-2.6487,-2.6487,-2.6487,-2.6487,-2.6487,-2.6487,-2.6487,-2.6487,-2.6499,-2.6713,-2.7241,-2.7682,-2.8034,-2.8097,-2.8109,-2.8047,-2.8047,-2.8197,-2.8499,-2.8775,-2.8913,-2.9164,-2.9553,-2.9503,-2.9126,-2.9001,-2.8838,-2.8524,-2.8247,-2.8197,-2.8059,-2.7858,-2.7582,-2.7379,-2.719,-2.7216,-2.7228,-2.7065,-2.6813,-2.6751,-2.6487,-2.6487,-2.6461,-2.6474,-2.6449,-2.6348,-1.9482,-1.9316,-1.917,-1.9098,-1.9098,-1.9098,-1.9098,-1.9098,-1.9098,-1.9098,-1.9098,-1.9098,-1.9098,-1.9098,-1.9108,-1.943,-1.9938,-1.9575,-1.9851,-2.0788,-2.1288,-2.1207,-2.0928,-2.1199,-2.1352,-2.1463,-2.1886,-2.2206,-2.2433,-2.2884,-2.3221,-2.3396,-2.3785,-2.4142,-2.4531,-2.4682,-2.4637,-2.4268,-2.4104,-2.3715,-2.3158,-2.3095,-2.3095,-2.3095,-2.3095,-2.3095,-2.3095,-2.3095,-2.3095,-2.3095,-2.3095,-2.3095,-2.3095,-2.3095,-2.3095,-2.3095,-2.3095,-2.3095,-2.317,-2.3634,-2.4205,-2.477,-2.5285,-2.5883,-2.6386,-2.6487,-2.6487,-2.6487,-2.6487,-2.6487,-2.6487,-2.6487,-2.6487,-2.6487,-2.6487,-2.6487,-2.6487,-2.6487,-2.6763,-2.714,-2.7105,-2.7178,-2.7431,-2.7544,-2.7544,-2.757,-2.7808,-2.8235,-2.865,-2.8499,-2.8562,-2.9063,-2.8837,-2.8599,-2.8298,-2.8072,-2.7821,-2.7595,-2.7507,-2.7519,-2.7306,-2.7153,-2.6889,-2.6738,-2.6751,-2.665,-2.6499,-2.6424,-2.6373,-2.6411,-2.6386,-2.6386,-2.6424,-2.6273,-2.6021,-1.9367,-1.9108,-1.9098,-1.9098,-1.9098,-1.9098,-1.9098,-1.9098,-1.9098,-1.9098,-1.9098,-1.9098,-1.9098,-1.9098,-1.9098,-1.9367,-1.9741,-1.9471,-1.9824,-2.0514,-2.0617,-2.0514,-2.0384,-2.0406,-2.0543,-2.0756,-2.1144,-2.1479,-2.1772,-2.2372,-2.272,-2.2837,-2.3336,-2.3803,-2.3954,-2.4104,-2.4036,-2.3966,-2.3791,-2.3484,-2.3183,-2.3095,-2.3095,-2.3095,-2.3095,-2.3095,-2.3095,-2.3095,-2.3095,-2.3095,-2.3095,-2.3095,-2.3095,-2.3095,-2.3095,-2.3095,-2.3095,-2.3095,-2.3145,-2.3421,-2.3916,-2.4469,-2.5008,-2.5536,-2.6072,-2.6311,-2.6487,-2.6487,-2.6487,-2.6487,-2.6487,-2.6487,-2.6487,-2.6487,-2.6487,-2.6487,-2.6487,-2.6487,-2.66,-2.6839,-2.6738,-2.6725,-2.6901,-2.6979,-2.7014,-2.7077,-2.7268,-2.7695,-2.8072,-2.8009,-2.8197,-2.8386,-2.8411,-2.8034,-2.7517,-2.7291,-2.7128,-2.6989,-2.6889,-2.6952,-2.6914,-2.6788,-2.6587,-2.6474,-2.6436,-2.6185,-2.6021,-2.6059,-2.6013,-2.6135,-2.6072,-2.5946,-2.5762,-2.5536,-2.5335,-1.9075,-1.9108,-1.9098,-1.9098,-1.9098,-1.9098,-1.9098,-1.9098,-1.9098,-1.9098,-1.9098,-1.9098,-1.9098,-1.9098,-1.9098,-1.9326,-1.9679,-1.9668,-1.9699,-1.9844,-1.9876,-1.9958,-2.0135,-2.001,-1.9974,-2.0031,-2.0161,-2.0516,-2.1049,-2.171,-2.207,-2.2261,-2.2781,-2.3341,-2.3684,-2.3384,-2.3446,-2.3753,-2.3384,-2.3145,-2.3095,-2.3095,-2.3095,-2.3095,-2.3095,-2.3095,-2.3095,-2.3095,-2.3095,-2.3095,-2.3095,-2.3095,-2.3095,-2.3095,-2.3095,-2.3095,-2.3095,-2.3095,-2.3095,-2.3158,-2.3434,-2.4042,-2.4506,-2.4988,-2.5632,-2.6084,-2.6386,-2.6474,-2.6487,-2.6487,-2.6487,-2.6487,-2.6487,-2.6487,-2.6487,-2.6487,-2.6487,-2.6487,-2.6537,-2.6537,-2.6499,-2.6499,-2.6575,-2.6562,-2.6587,-2.6675,-2.6725,-2.6989,-2.7381,-2.762,-2.7582,-2.7695,-2.7846,-2.7532,-2.704,-2.6989,-2.6851,-2.6763,-2.6625,-2.6637,-2.665,-2.6549,-2.6487,-2.6348,-2.6084,-2.582,-2.5661,-2.5737,-2.5561,-2.536,-2.5285,-2.5197,-2.5109,-2.4958,-2.477,-1.8731,-1.9098,-1.9098,-1.9098,-1.9098,-1.9098,-1.9098,-1.9098,-1.9098,-1.9065,-1.9098,-1.9098,-1.9098,-1.9098,-1.9098,-1.9181,-1.9295,-1.9305,-1.9502,-1.9699,-1.9419,-1.9347,-1.9523,-1.971,-1.9656,-1.9482,-1.9846,-2.0204,-2.0431,-2.1017,-2.1573,-2.2101,-2.2267,-2.2708,-2.3167,-2.3195,-2.3183,-2.3296,-2.3208,-2.3108,-2.3108,-2.3095,-2.3095,-2.3095,-2.3095,-2.3095,-2.3095,-2.3095,-2.3095,-2.3095,-2.3095,-2.3095,-2.3095,-2.3095,-2.3095,-2.3095,-2.3095,-2.3095,-2.3095,-2.3095,-2.3384,-2.3904,-2.4192,-2.4619,-2.5511,-2.5724,-2.6072,-2.6348,-2.6487,-2.6487,-2.6487,-2.6487,-2.6487,-2.6487,-2.6487,-2.6487,-2.6487,-2.6487,-2.6487,-2.6487,-2.6487,-2.6487,-2.6487,-2.6512,-2.6612,-2.6839,-2.6788,-2.6738,-2.7193,-2.714,-2.7027,-2.7165,-2.7228,-2.6952,-2.6725,-2.67,-2.6637,-2.6575,-2.6512,-2.6499,-2.6512,-2.6474,-2.6474,-2.6449,-2.5959,-2.5632,-2.5573,-2.5611,-2.5222,-2.4682,-2.4795,-2.4833,-2.472,-2.455,-2.4305,-1.8573,-1.8841,-1.8841,-1.8852,-1.8841,-1.8831,-1.8841,-1.8841,-1.8841,-1.8908,-1.8942,-1.8965,-1.9031,-1.9108,-1.9098,-1.9098,-1.9098,-1.9098,-1.9253,-1.945,-1.944,-1.9316,-1.9326,-1.972,-1.9741,-1.9183,-1.9485,-1.9649,-1.9781,-2.0355,-2.089,-2.129,-2.1822,-2.2298,-2.2671,-2.2987,-2.3095,-2.3108,-2.3095,-2.3078,-2.303,-2.3078,-2.303,-2.3,-2.2957,-2.2987,-2.2927,-2.2987,-2.2987,-2.2957,-2.3017,-2.3078,-2.3017,-2.3078,-2.3095,-2.3095,-2.3095,-2.3095,-2.3095,-2.3108,-2.3258,-2.3634,-2.3979,-2.4607,-2.5234,-2.5636,-2.6197,-2.6424,-2.6487,-2.6487,-2.6487,-2.6487,-2.6487,-2.6487,-2.6487,-2.6487,-2.6487,-2.6487,-2.6487,-2.6487,-2.6487,-2.6487,-2.6487,-2.6487,-2.665,-2.6801,-2.6675,-2.6839,-2.7115,-2.6751,-2.6549,-2.6751,-2.6851,-2.6688,-2.66,-2.6587,-2.6575,-2.6499,-2.6348,-2.6348,-2.6323,-2.6311,-2.6185,-2.6072,-2.5732,-2.5443,-2.5234,-2.4983,-2.4474,-2.4173,-2.4381,-2.433,-2.4123,-2.4098,-2.3822,-1.8381,-1.8482,-1.8482,-1.8482,-1.8516,-1.8482,-1.8549,-1.8516,-1.8516,-1.865,-1.8751,-1.8785,-1.8841,-1.9031,-1.8975,-1.9031,-1.8998,-1.8965,-1.8998,-1.915,-1.9325,-1.9397,-1.9088,-1.9761,-1.9713,-1.9168,-1.9108,-1.9142,-1.933,-1.9781,-2.0042,-2.0452,-2.1353,-2.1865,-2.2082,-2.2598,-2.2884,-2.275,-2.2927,-2.2836,-2.2744,-2.2823,-2.2909,-2.28,-2.2818,-2.2787,-2.2726,-2.28,-2.2818,-2.2659,-2.2909,-2.2896,-2.2836,-2.2914,-2.2914,-2.2884,-2.2914,-2.3065,-2.3005,-2.3017,-2.3108,-2.3296,-2.4036,-2.465,-2.4813,-2.5485,-2.6109,-2.6273,-2.6436,-2.6487,-2.6418,-2.6452,-2.643,-2.643,-2.6465,-2.6452,-2.6487,-2.6487,-2.6487,-2.6487,-2.6487,-2.6487,-2.6487,-2.6487,-2.6512,-2.665,-2.6562,-2.6675,-2.6813,-2.6625,-2.6499,-2.6549,-2.6575,-2.6524,-2.6499,-2.6499,-2.6512,-2.6474,-2.6235,-2.6135,-2.6097,-2.6021,-2.5762,-2.5607,-2.5569,-2.5091,-2.4406,-2.4067,-2.3785,-2.3634,-2.3747,-2.3559,-2.3358,-2.3471,-2.3346,-1.7579,-1.8482,-1.8482,-1.8482,-1.8482,-1.8482,-1.8482,-1.8482,-1.8482,-1.8516,-1.8549,-1.8583,-1.8617,-1.864,-1.8684,-1.8617,-1.865,-1.865,-1.864,-1.8677,-1.9105,-1.9045,-1.8856,-1.9365,-1.9435,-1.9101,-1.8942,-1.8942,-1.9098,-1.9264,-1.9584,-2.0107,-2.0376,-2.0794,-2.1345,-2.1803,-2.1822,-2.1604,-2.223,-2.2408,-2.2137,-2.2457,-2.2696,-2.2678,-2.2708,-2.2616,-2.2543,-2.2647,-2.2598,-2.2475,-2.2567,-2.2531,-2.2365,-2.2641,-2.2519,-2.2168,-2.2598,-2.2841,-2.2525,-2.2823,-2.3095,-2.3128,-2.3385,-2.3672,-2.418,-2.4813,-2.541,-2.5749,-2.621,-2.6371,-2.6292,-2.627,-2.6258,-2.6258,-2.6267,-2.6302,-2.6465,-2.6487,-2.6487,-2.6487,-2.6487,-2.6487,-2.6487,-2.6487,-2.6487,-2.6487,-2.6487,-2.6487,-2.6487,-2.6487,-2.6487,-2.6487,-2.6487,-2.6487,-2.6487,-2.6461,-2.6386,-2.6235,-2.5984,-2.5762,-2.5724,-2.5561,-2.5297,-2.536,-2.5536,-2.4858,-2.3904,-2.3866,-2.3722,-2.3446,-2.3208,-2.3195,-2.317,-2.3108,-2.3095,-1.7339,-1.8245,-1.8245,-1.8279,-1.8279,-1.8245,-1.8269,-1.8245,-1.8245,-1.8313,-1.8414,-1.8414,-1.8448,-1.8482,-1.8482,-1.8482,-1.8482,-1.8482,-1.8516,-1.8566,-1.8767,-1.8727,-1.8572,-1.8741,-1.8887,-1.8785,-1.8717,-1.8707,-1.8785,-1.8852,-1.8998,-1.9386,-1.9671,-2.0053,-2.0441,-2.0985,-2.1101,-2.0942,-2.1333,-2.1608,-2.1628,-2.192,-2.2347,-2.2512,-2.2525,-2.2359,-2.1839,-2.2328,-2.2006,-2.1588,-2.1683,-2.2068,-2.2118,-2.223,-2.2044,-2.2118,-2.2013,-2.2519,-2.2457,-2.2684,-2.2909,-2.2921,-2.312,-2.3418,-2.3878,-2.4449,-2.5008,-2.5393,-2.5828,-2.6154,-2.605,-2.5753,-2.5825,-2.6114,-2.594,-2.6018,-2.6377,-2.6487,-2.6487,-2.6487,-2.6487,-2.6487,-2.6487,-2.6487,-2.6487,-2.6487,-2.6487,-2.6487,-2.6487,-2.6487,-2.6487,-2.6487,-2.6487,-2.6487,-2.6487,-2.6424,-2.6273,-2.5984,-2.5548,-2.536,-2.5234,-2.5008,-2.477,-2.4858,-2.4883,-2.4293,-2.3509,-2.3559,-2.3572,-2.3321,-2.3145,-2.3108,-2.3095,-2.3095,-2.3095,-1.7079,-1.7828,-1.7828,-1.7896,-1.7974,-1.8008,-1.8042,-1.8008,-1.8008,-1.811,-1.8236,-1.8269,-1.8313,-1.8381,-1.8381,-1.8414,-1.8414,-1.8381,-1.8347,-1.8411,-1.8387,-1.8431,-1.8401,-1.8387,-1.8353,-1.8414,-1.8448,-1.8516,-1.8516,-1.8482,-1.8617,-1.8674,-1.9088,-1.9375,-1.9562,-2.0053,-2.0279,-2.0107,-2.0462,-2.0666,-2.089,-2.1144,-2.1545,-2.1776,-2.1839,-2.1577,-2.1198,-2.1451,-2.1431,-2.0269,-2.0645,-2.1293,-2.1702,-2.1721,-2.1565,-2.213,-2.1753,-2.1951,-2.2316,-2.2574,-2.2739,-2.2745,-2.291,-2.3111,-2.3355,-2.3835,-2.4298,-2.4719,-2.5046,-2.5551,-2.5581,-2.5247,-2.529,-2.5577,-2.5455,-2.5644,-2.6108,-2.6305,-2.6233,-2.6487,-2.6487,-2.6487,-2.6487,-2.6487,-2.6487,-2.6487,-2.6487,-2.6487,-2.6487,-2.6487,-2.6452,-2.6487,-2.6487,-2.6487,-2.6487,-2.6449,-2.6298,-2.5799,-2.5322,-2.5021,-2.482,-2.4569,-2.4356,-2.4117,-2.3929,-2.3527,-2.3308,-2.3283,-2.3246,-2.3108,-2.3095,-2.3095,-2.3095,-2.3095,-2.3095,-1.5799,-1.7079,-1.7079,-1.7398,-1.794,-1.8008,-1.7974,-1.8008,-1.8008,-1.8008,-1.8042,-1.8076,-1.8076,-1.812,-1.8076,-1.8076,-1.811,-1.8144,-1.8144,-1.8144,-1.811,-1.8144,-1.8144,-1.811,-1.8076,-1.811,-1.8245,-1.8381,-1.8448,-1.8482,-1.8448,-1.8516,-1.864,-1.8707,-1.8865,-1.9187,-1.9276,-1.911,-1.9606,-1.9901,-1.9824,-2.0215,-2.0549,-2.0741,-2.0741,-2.0549,-2.0387,-2.0387,-2.0366,-2.0139,-2.0237,-2.0323,-2.0452,-2.0473,-2.0409,-2.0581,-2.1112,-2.1534,-2.1733,-2.2316,-2.2616,-2.2598,-2.2219,-2.195,-2.206,-2.2494,-2.2991,-2.3323,-2.3908,-2.4487,-2.4314,-2.4153,-2.4418,-2.4546,-2.4504,-2.4599,-2.5151,-2.5351,-2.5499,-2.584,-2.6146,-2.6452,-2.6418,-2.6418,-2.6383,-2.6349,-2.6349,-2.6349,-2.6349,-2.6383,-2.643,-2.6452,-2.6487,-2.6487,-2.6487,-2.6449,-2.6323,-2.5749,-2.5247,-2.4782,-2.4531,-2.4217,-2.3954,-2.3753,-2.369,-2.3577,-2.3358,-2.3145,-2.3095,-2.3095,-2.3095,-2.3095,-2.3095,-2.3095,-2.3095,-1.5269,-1.6271,-1.6271,-1.6724,-1.7364,-1.7432,-1.7657,-1.7974,-1.8008,-1.8008,-1.8008,-1.8008,-1.8008,-1.8008,-1.8008,-1.8008,-1.8008,-1.8008,-1.8008,-1.8008,-1.8008,-1.8008,-1.8008,-1.8008,-1.8008,-1.8042,-1.811,-1.8178,-1.8255,-1.8255,-1.8279,-1.8245,-1.8245,-1.8245,-1.8279,-1.8472,-1.8462,-1.8371,-1.8731,-1.9077,-1.9044,-1.9704,-2.0031,-2.0096,-2.0031,-1.9901,-1.9639,-1.9966,-1.9715,-1.922,-1.9342,-1.9287,-1.9187,-1.9154,-1.9375,-1.9802,-2.0452,-2.0826,-2.0921,-2.1451,-2.1683,-2.1313,-2.0985,-2.0858,-2.095,-2.1279,-2.1685,-2.2192,-2.2766,-2.328,-2.2877,-2.2733,-2.2733,-2.2973,-2.2934,-2.3117,-2.3539,-2.3812,-2.4256,-2.4867,-2.5469,-2.5869,-2.6292,-2.6292,-2.6258,-2.6245,-2.6211,-2.622,-2.6208,-2.6205,-2.6168,-2.6127,-2.6158,-2.6214,-2.6201,-2.6163,-2.5925,-2.5402,-2.5018,-2.4555,-2.4079,-2.3704,-2.3559,-2.3421,-2.3409,-2.3428,-2.3321,-2.3095,-2.3095,-2.3095,-2.3095,-2.3095,-2.3095,-2.3095,-2.3095,-1.4828,-1.5564,-1.5488,-1.5948,-1.6585,-1.6664,-1.7079,-1.7657,-1.7554,-1.7579,-1.7759,-1.7588,-1.7554,-1.7803,-1.794,-1.8008,-1.8008,-1.8008,-1.8008,-1.8008,-1.8008,-1.8008,-1.8008,-1.8008,-1.8008,-1.8008,-1.8008,-1.8008,-1.8042,-1.8042,-1.8008,-1.8042,-1.8008,-1.8008,-1.8076,-1.8144,-1.8008,-1.8008,-1.8008,-1.8327,-1.8821,-1.9353,-1.9682,-1.9671,-1.9671,-1.9353,-1.8921,-1.922,-1.9021,-1.8529,-1.8462,-1.8553,-1.8134,-1.8008,-1.8529,-1.9485,-1.9781,-1.9933,-2.0258,-2.0581,-2.0784,-2.0452,-2.0031,-1.9901,-1.9955,-2.0303,-2.0729,-2.1326,-2.1744,-2.1958,-2.1486,-2.1107,-2.1174,-2.142,-2.1386,-2.1308,-2.1947,-2.2388,-2.2638,-2.3386,-2.4471,-2.4932,-2.5062,-2.5676,-2.5558,-2.5769,-2.5769,-2.5815,-2.5825,-2.5809,-2.5747,-2.5716,-2.5688,-2.5811,-2.5807,-2.5732,-2.5298,-2.4653,-2.4377,-2.4046,-2.3567,-2.3081,-2.3062,-2.3081,-2.3056,-2.3051,-2.3042,-2.3095,-2.3095,-2.3095,-2.3095,-2.3108,-2.3108,-2.3108,-2.3095,-1.4233,-1.5149,-1.4836,-1.5171,-1.5781,-1.5851,-1.6306,-1.6897,-1.6376,-1.6411,-1.6975,-1.6376,-1.6446,-1.701,-1.7725,-1.794,-1.7974,-1.8008,-1.8008,-1.8008,-1.8008,-1.8008,-1.8008,-1.8008,-1.8008,-1.8008,-1.8008,-1.8008,-1.8008,-1.8008,-1.8008,-1.8008,-1.8008,-1.8008,-1.8008,-1.8008,-1.8008,-1.8008,-1.8008,-1.8076,-1.8178,-1.8337,-1.8371,-1.8371,-1.8371,-1.8371,-1.8269,-1.8462,-1.8236,-1.8134,-1.8076,-1.81,-1.8008,-1.8008,-1.8042,-1.8361,-1.8787,-1.9398,-1.9835,-2.0096,-2.0096,-1.977,-1.9441,-1.9199,-1.9208,-1.9328,-1.9698,-2.0194,-2.0424,-2.0402,-2.0313,-2.0303,-2.039,-2.0402,-2.0303,-2.05,-2.0963,-2.0892,-2.1153,-2.1507,-2.2419,-2.3021,-2.3365,-2.4185,-2.4862,-2.5111,-2.5275,-2.5265,-2.5289,-2.5178,-2.517,-2.5102,-2.5073,-2.5161,-2.5299,-2.5224,-2.478,-2.4052,-2.3827,-2.3615,-2.3189,-2.2848,-2.2696,-2.272,-2.2696,-2.2684,-2.2702,-2.2811,-2.3005,-2.3078,-2.3047,-2.3078,-2.3108,-2.3078,-2.2975,-1.3792,-1.4182,-1.4046,-1.4402,-1.5029,-1.5065,-1.5525,-1.6018,-1.5851,-1.5886,-1.6132,-1.5877,-1.5913,-1.6341,-1.7044,-1.7373,-1.7467,-1.7794,-1.8008,-1.8008,-1.8008,-1.8008,-1.8008,-1.8008,-1.8008,-1.8008,-1.8008,-1.8008,-1.8008,-1.8008,-1.8008,-1.8008,-1.8008,-1.8008,-1.8008,-1.8008,-1.8008,-1.8008,-1.8008,-1.8008,-1.8008,-1.8008,-1.8008,-1.8008,-1.8008,-1.8008,-1.8008,-1.8008,-1.8008,-1.8008,-1.8008,-1.8008,-1.8008,-1.8008,-1.8008,-1.8042,-1.8269,-1.8563,-1.8854,-1.9276,-1.9276,-1.8988,-1.862,-1.8462,-1.8496,-1.8787,-1.8854,-1.8865,-1.9287,-1.932,-1.9054,-1.8977,-1.8988,-1.9054,-1.9243,-1.9293,-1.9534,-1.9565,-1.9704,-2.001,-2.0389,-2.103,-2.1709,-2.2468,-2.3167,-2.3591,-2.3758,-2.3801,-2.3978,-2.4133,-2.4226,-2.4382,-2.439,-2.4423,-2.4571,-2.4604,-2.4287,-2.3749,-2.355,-2.3298,-2.2954,-2.2678,-2.2347,-2.2118,-2.2002,-2.2094,-2.2279,-2.2537,-2.2763,-2.2866,-2.2987,-2.2927,-2.2836,-2.2555,-2.2402,-1.3572,-1.3492,-1.3492,-1.3804,-1.4294,-1.433,-1.4744,-1.5384,-1.5188,-1.5251,-1.5392,-1.5384,-1.5384,-1.5596,-1.6228,-1.6724,-1.6966,-1.7501,-1.7828,-1.794,-1.8008,-1.8008,-1.8008,-1.8008,-1.8008,-1.8008,-1.8008,-1.8008,-1.8008,-1.8008,-1.8008,-1.8008,-1.8008,-1.8008,-1.8008,-1.8008,-1.8008,-1.8008,-1.8008,-1.8008,-1.8008,-1.8008,-1.8008,-1.8008,-1.8008,-1.8008,-1.8008,-1.8008,-1.8008,-1.8008,-1.8008,-1.8008,-1.8008,-1.8008,-1.8008,-1.8008,-1.811,-1.811,-1.8303,-1.8462,-1.8428,-1.8202,-1.8008,-1.811,-1.811,-1.8496,-1.863,-1.8202,-1.8462,-1.8428,-1.8168,-1.81,-1.8202,-1.8269,-1.8202,-1.8076,-1.8081,-1.8522,-1.8785,-1.9009,-1.9264,-1.9336,-2.0017,-2.0709,-2.1371,-2.1953,-2.221,-2.2332,-2.2624,-2.2946,-2.3066,-2.3195,-2.3506,-2.3538,-2.3639,-2.3683,-2.3423,-2.3163,-2.2986,-2.2603,-2.2032,-2.1776,-2.1482,-2.1345,-2.1259,-2.1239,-2.1239,-2.1889,-2.25,-2.2696,-2.2818,-2.2653,-2.2488,-2.2144,-2.1791,-1.377,-1.3492,-1.3492,-1.3535,-1.3637,-1.3557,-1.4013,-1.4609,-1.4021,-1.4158,-1.4645,-1.4681,-1.4673,-1.4851,-1.5455,-1.6158,-1.6802,-1.6941,-1.7329,-1.7725,-1.8008,-1.794,-1.7974,-1.8008,-1.8008,-1.8008,-1.8008,-1.8008,-1.8008,-1.8008,-1.8008,-1.8008,-1.8008,-1.8008,-1.8008,-1.8008,-1.8008,-1.8008,-1.8008,-1.8008,-1.8008,-1.8008,-1.8008,-1.8008,-1.8008,-1.8008,-1.8008,-1.8008,-1.8008,-1.8008,-1.8008,-1.8008,-1.8008,-1.8008,-1.8008,-1.8008,-1.8008,-1.8008,-1.811,-1.811,-1.8076,-1.8042,-1.8008,-1.8008,-1.8042,-1.8008,-1.8008,-1.8018,-1.8202,-1.8134,-1.8042,-1.8008,-1.8008,-1.8008,-1.8008,-1.8008,-1.8008,-1.8027,-1.8257,-1.8198,-1.833,-1.8594,-1.8691,-1.9465,-1.9976,-2.0596,-2.1077,-2.1239,-2.1419,-2.168,-2.1719,-2.1898,-2.239,-2.2565,-2.2572,-2.2428,-2.2036,-2.1771,-2.1562,-2.1149,-2.0625,-2.0516,-2.0773,-2.0409,-2.0301,-2.0258,-2.0291,-2.0826,-2.1471,-2.2316,-2.2574,-2.2087,-2.1784,-2.1491,-2.1132,-1.3609,-1.3499,-1.3492,-1.3492,-1.3492,-1.3492,-1.3666,-1.384,-1.3637,-1.363,-1.3941,-1.3905,-1.3912,-1.4129,-1.4645,-1.5171,-1.5561,-1.6026,-1.662,-1.7113,-1.7329,-1.7579,-1.7794,-1.7974,-1.8008,-1.8008,-1.8008,-1.8008,-1.8008,-1.8008,-1.8008,-1.8008,-1.8008,-1.8008,-1.8008,-1.8008,-1.8008,-1.8008,-1.8008,-1.8008,-1.8008,-1.8008,-1.8008,-1.8008,-1.8008,-1.8008,-1.8008,-1.8008,-1.8008,-1.8008,-1.8008,-1.8008,-1.8008,-1.8008,-1.8008,-1.8008,-1.8008,-1.8008,-1.8008,-1.8008,-1.8008,-1.8008,-1.8008,-1.8008,-1.8008,-1.8008,-1.8008,-1.8008,-1.8008,-1.8008,-1.8008,-1.8008,-1.8008,-1.8008,-1.8008,-1.8008,-1.8008,-1.8008,-1.8018,-1.8086,-1.8105,-1.8188,-1.8217,-1.8306,-1.878,-1.9219,-1.973,-2.014,-2.0335,-2.0533,-2.0648,-2.0794,-2.125,-2.1388,-2.142,-2.104,-2.0624,-2.042,-2.0258,-1.9998,-1.977,-2.0128,-2.0258,-1.9802,-1.9441,-1.9441,-1.9573,-1.9759,-2.0376,-2.125,-2.1408,-2.1144,-2.0921,-2.0762,-2.0376,-1.3463,-1.3419,-1.3499,-1.3492,-1.3492,-1.3492,-1.3492,-1.3492,-1.3492,-1.3492,-1.3492,-1.3492,-1.3492,-1.3666,-1.3985,-1.4466,-1.4788,-1.5215,-1.5842,-1.6263,-1.662,-1.701,-1.7442,-1.7691,-1.7681,-1.7896,-1.8008,-1.8008,-1.8008,-1.8008,-1.8008,-1.8008,-1.8008,-1.8008,-1.8008,-1.8008,-1.8008,-1.8008,-1.8008,-1.8008,-1.8008,-1.8008,-1.8008,-1.8008,-1.8008,-1.8008,-1.8008,-1.8008,-1.8008,-1.8008,-1.8008,-1.8008,-1.8008,-1.8008,-1.8008,-1.8008,-1.8008,-1.8008,-1.8008,-1.8008,-1.8008,-1.8008,-1.8008,-1.8008,-1.8008,-1.8008,-1.8008,-1.8008,-1.8008,-1.8008,-1.8008,-1.8008,-1.8008,-1.8008,-1.8008,-1.8008,-1.8008,-1.8008,-1.8008,-1.8027,-1.8037,-1.8057,-1.8076,-1.8081,-1.8247,-1.8592,-1.8768,-1.9134,-1.9253,-1.9515,-1.9802,-1.9955,-2.0215,-2.0226,-2.0161,-1.9998,-1.9802,-1.9671,-1.9474,-1.9309,-1.9243,-1.9529,-1.9497,-1.8988,-1.8721,-1.8731,-1.8787,-1.8944,-1.9486,-2.0171,-2.0268,-2.0409,-2.0009,-1.9824,-1.9474,-1.3382,-1.3229,-1.3419,-1.3463,-1.3455,-1.3492,-1.3492,-1.3492,-1.3492,-1.3492,-1.3492,-1.3492,-1.3492,-1.3528,-1.3666,-1.3949,-1.4358,-1.4573,-1.5029,-1.5596,-1.5956,-1.6306,-1.6802,-1.7182,-1.7613,-1.7896,-1.8008,-1.8008,-1.8008,-1.8008,-1.8008,-1.8008,-1.8008,-1.8008,-1.8008,-1.8008,-1.8008,-1.8008,-1.8008,-1.8008,-1.8008,-1.8008,-1.8008,-1.8008,-1.8008,-1.8008,-1.8008,-1.8008,-1.8008,-1.8008,-1.8008,-1.8008,-1.8008,-1.8008,-1.8008,-1.8008,-1.8008,-1.8008,-1.8008,-1.8008,-1.8008,-1.8008,-1.8008,-1.8008,-1.8008,-1.8008,-1.8008,-1.8008,-1.8008,-1.8008,-1.8008,-1.8008,-1.8008,-1.8008,-1.8008,-1.8008,-1.8008,-1.8008,-1.8008,-1.8008,-1.8008,-1.8008,-1.8008,-1.8018,-1.8027,-1.81,-1.8037,-1.8168,-1.8395,-1.863,-1.9011,-1.911,-1.9309,-1.9375,-1.9375,-1.9177,-1.9011,-1.8854,-1.8754,-1.8654,-1.8479,-1.8485,-1.8348,-1.8061,-1.8093,-1.8161,-1.8083,-1.809,-1.8744,-1.9365,-1.9704,-1.9737,-1.9309,-1.9077,-1.8954,-1.3083,-1.301,-1.3083,-1.3083,-1.3156,-1.339,-1.3492,-1.3492,-1.3492,-1.3492,-1.3492,-1.3492,-1.3492,-1.3492,-1.3492,-1.3666,-1.384,-1.3912,-1.4266,-1.4966,-1.5357,-1.6202,-1.6724,-1.7226,-1.7657,-1.794,-1.8008,-1.8008,-1.8008,-1.8008,-1.8008,-1.8008,-1.8008,-1.8008,-1.8008,-1.8008,-1.8008,-1.8008,-1.8008,-1.8008,-1.8008,-1.8008,-1.8008,-1.8008,-1.8008,-1.8008,-1.8008,-1.8008,-1.8008,-1.8008,-1.8008,-1.8008,-1.8008,-1.8008,-1.8008,-1.8008,-1.8008,-1.8008,-1.8008,-1.8008,-1.8008,-1.8008,-1.8008,-1.8008,-1.8008,-1.8008,-1.8008,-1.8008,-1.8008,-1.8008,-1.8008,-1.8008,-1.8008,-1.8008,-1.8008,-1.8008,-1.8008,-1.8008,-1.8008,-1.8008,-1.8008,-1.8008,-1.8008,-1.8008,-1.8008,-1.8008,-1.8008,-1.8008,-1.8202,-1.8168,-1.8361,-1.8371,-1.8472,-1.8563,-1.8596,-1.8596,-1.8529,-1.8428,-1.8337,-1.8236,-1.8007,-1.7861,-1.7787,-1.7811,-1.7699,-1.7598,-1.7764,-1.7934,-1.8148,-1.8529,-1.8931,-1.9187,-1.9011,-1.8944,-1.8967,-1.2856,-1.2826,-1.2893,-1.29,-1.2936,-1.3273,-1.3419,-1.3492,-1.3492,-1.3492,-1.3492,-1.3492,-1.3492,-1.3492,-1.3492,-1.3492,-1.3492,-1.3528,-1.3593,-1.4258,-1.4645,-1.5455,-1.6306,-1.7054,-1.7364,-1.7759,-1.8008,-1.8008,-1.8008,-1.8008,-1.8008,-1.8008,-1.8008,-1.8008,-1.8008,-1.8008,-1.8008,-1.8008,-1.8008,-1.8008,-1.8008,-1.8008,-1.8008,-1.8008,-1.8008,-1.8008,-1.8008,-1.8008,-1.8008,-1.8008,-1.8008,-1.8008,-1.8008,-1.8008,-1.8008,-1.8008,-1.8008,-1.8008,-1.8008,-1.8008,-1.8008,-1.8008,-1.8008,-1.8008,-1.8008,-1.8008,-1.8008,-1.8008,-1.8008,-1.8008,-1.8008,-1.8008,-1.8008,-1.8008,-1.8008,-1.8008,-1.8008,-1.8008,-1.8008,-1.8008,-1.8008,-1.8008,-1.8008,-1.8008,-1.8008,-1.8008,-1.8008,-1.8008,-1.8008,-1.8008,-1.8008,-1.8042,-1.8042,-1.8202,-1.8269,-1.8202,-1.8134,-1.8042,-1.8008,-1.8008,-1.7978,-1.791,-1.7725,-1.7621,-1.7666,-1.7725,-1.7734,-1.788,-1.8085,-1.8144,-1.8202,-1.8428,-1.8596,-1.8687,-1.8744,-1.2746,-1.2636,-1.279,-1.2856,-1.29,-1.3083,-1.3266,-1.3455,-1.3455,-1.3455,-1.3455,-1.3419,-1.3419,-1.3455,-1.3455,-1.3455,-1.3455,-1.3492,-1.3564,-1.3666,-1.4021,-1.4788,-1.5419,-1.6062,-1.6872,-1.7613,-1.7974,-1.8008,-1.8008,-1.8008,-1.8008,-1.8008,-1.8008,-1.8008,-1.8008,-1.8008,-1.8008,-1.8008,-1.8008,-1.8008,-1.8008,-1.8008,-1.8008,-1.8008,-1.8008,-1.8008,-1.8008,-1.8008,-1.8008,-1.8008,-1.8008,-1.8008,-1.8008,-1.8008,-1.8008,-1.8008,-1.8008,-1.8008,-1.8008,-1.8008,-1.8008,-1.8008,-1.8008,-1.8008,-1.8008,-1.8008,-1.8008,-1.8008,-1.8008,-1.8008,-1.8008,-1.8008,-1.8008,-1.8008,-1.8008,-1.8008,-1.8008,-1.8008,-1.8008,-1.8008,-1.8008,-1.8008,-1.8008,-1.8008,-1.8008,-1.8008,-1.8008,-1.8008,-1.8008,-1.8008,-1.8008,-1.8008,-1.8008,-1.8008,-1.8008,-1.8008,-1.8008,-1.8008,-1.8008,-1.8008,-1.7978,-1.7847,-1.7617,-1.7529,-1.7773,-1.7871,-1.7852,-1.7891,-1.7978,-1.8008,-1.8008,-1.8076,-1.8327,-1.8269,-1.8259,-1.2452,-1.2378,-1.2445,-1.2445,-1.2489,-1.2673,-1.2893,-1.3046,-1.3046,-1.309,-1.3083,-1.3083,-1.3119,-1.3083,-1.3236,-1.3273,-1.3346,-1.3411,-1.3492,-1.3593,-1.3796,-1.443,-1.51,-1.5842,-1.6655,-1.7192,-1.7613,-1.7862,-1.794,-1.7974,-1.7974,-1.8008,-1.7974,-1.7974,-1.7974,-1.8008,-1.7974,-1.7974,-1.7974,-1.8008,-1.8008,-1.8008,-1.8008,-1.8008,-1.8008,-1.8008,-1.8008,-1.8008,-1.8008,-1.8008,-1.8008,-1.8008,-1.8008,-1.8008,-1.8008,-1.8008,-1.8008,-1.8008,-1.8008,-1.8008,-1.8008,-1.8008,-1.8008,-1.8008,-1.8008,-1.8008,-1.8008,-1.8008,-1.8008,-1.8008,-1.8008,-1.8008,-1.8008,-1.8008,-1.8008,-1.8008,-1.8008,-1.8008,-1.8008,-1.8008,-1.8008,-1.8008,-1.8008,-1.8008,-1.8008,-1.8008,-1.8008,-1.8008,-1.8008,-1.8008,-1.8008,-1.8008,-1.8008,-1.8008,-1.8008,-1.8008,-1.8008,-1.8008,-1.8008,-1.7998,-1.7959,-1.7779,-1.749,-1.7441,-1.7617,-1.7803,-1.7915,-1.7988,-1.8008,-1.8008,-1.8008,-1.8008,-1.8008,-1.8008,-1.8008,-1.1818,-1.1892,-1.2194,-1.2305,-1.2342,-1.2452,-1.2562,-1.2673,-1.2826,-1.29,-1.29,-1.2936,-1.29,-1.2936,-1.3046,-1.3083,-1.3083,-1.3163,-1.3236,-1.3331,-1.3753,-1.4042,-1.4681,-1.5278,-1.5737,-1.6341,-1.6872,-1.7192,-1.7442,-1.7701,-1.7769,-1.7769,-1.7813,-1.7813,-1.7779,-1.7769,-1.7769,-1.7837,-1.7915,-1.7974,-1.8008,-1.8008,-1.8008,-1.7974,-1.7974,-1.7974,-1.8008,-1.7974,-1.8008,-1.8008,-1.8008,-1.8008,-1.8008,-1.8008,-1.8008,-1.8008,-1.8008,-1.8008,-1.8008,-1.8008,-1.8008,-1.8008,-1.8008,-1.8008,-1.8008,-1.8008,-1.8008,-1.8008,-1.8008,-1.8008,-1.8008,-1.8008,-1.8008,-1.8008,-1.8008,-1.8008,-1.8008,-1.8008,-1.8008,-1.8008,-1.8008,-1.8008,-1.8008,-1.8008,-1.8008,-1.8008,-1.8008,-1.8008,-1.8008,-1.8008,-1.8008,-1.8008,-1.8008,-1.8008,-1.8008,-1.8008,-1.8008,-1.8008,-1.8008,-1.7988,-1.7949,-1.7881,-1.7695,-1.7519,-1.7369,-1.7623,-1.7959,-1.7988,-1.8008,-1.8008,-1.8008,-1.8008,-1.8008,-1.8008,-1.8008,-1.0999,-1.1074,-1.1892,-1.2157,-1.2194,-1.2268,-1.2305,-1.2342,-1.2673,-1.282,-1.2826,-1.2826,-1.2826,-1.2783,-1.2856,-1.2863,-1.29,-1.2973,-1.301,-1.29,-1.3076,-1.3397,-1.3753,-1.407,-1.478,-1.5278,-1.5807,-1.6446,-1.6594,-1.695,-1.7314,-1.7461,-1.7529,-1.7573,-1.7573,-1.7564,-1.7598,-1.7642,-1.7779,-1.7872,-1.7906,-1.794,-1.7974,-1.794,-1.7906,-1.7906,-1.7949,-1.7949,-1.7983,-1.7974,-1.7974,-1.7974,-1.8008,-1.8008,-1.8008,-1.8008,-1.8008,-1.8008,-1.8008,-1.8008,-1.8008,-1.8008,-1.8008,-1.8008,-1.8008,-1.8008,-1.8008,-1.8008,-1.8008,-1.8008,-1.8008,-1.8008,-1.8008,-1.8008,-1.8008,-1.8008,-1.8008,-1.8008,-1.8008,-1.8008,-1.8008,-1.8008,-1.8008,-1.8008,-1.8008,-1.8008,-1.8008,-1.8008,-1.8008,-1.8008,-1.8008,-1.8008,-1.8008,-1.8008,-1.8008,-1.8008,-1.8008,-1.8008,-1.8008,-1.8008,-1.7978,-1.7969,-1.7949,-1.7744,-1.7559,-1.7744,-1.7959,-1.7988,-1.8008,-1.8008,-1.8008,-1.8008,-1.8008,-1.8008,-1.8008,-1.0196,-1.0271,-1.1062,-1.1372,-1.1484,-1.204,-1.2305,-1.2305,-1.2378,-1.2452,-1.2452,-1.2452,-1.2452,-1.2526,-1.2636,-1.2673,-1.2716,-1.279,-1.29,-1.2863,-1.2863,-1.2893,-1.3258,-1.3608,-1.4006,-1.4466,-1.5037,-1.5702,-1.6132,-1.6524,-1.6959,-1.7392,-1.7426,-1.7426,-1.7436,-1.7445,-1.7492,-1.7445,-1.7571,-1.7674,-1.7665,-1.7617,-1.7598,-1.767,-1.769,-1.7772,-1.7772,-1.7709,-1.767,-1.7642,-1.7725,-1.7828,-1.7974,-1.8008,-1.8008,-1.8008,-1.8008,-1.8008,-1.8008,-1.8008,-1.8008,-1.8008,-1.8008,-1.8008,-1.8008,-1.8008,-1.8008,-1.8008,-1.8008,-1.8008,-1.8008,-1.8008,-1.8008,-1.8008,-1.8008,-1.8008,-1.8008,-1.8008,-1.8008,-1.8008,-1.8008,-1.8008,-1.8008,-1.8008,-1.8008,-1.8008,-1.8008,-1.8008,-1.8008,-1.8008,-1.8008,-1.8008,-1.8008,-1.8008,-1.8008,-1.8008,-1.8008,-1.8008,-1.8008,-1.8008,-1.8008,-1.792,-1.7852,-1.7832,-1.7783,-1.7852,-1.791,-1.7988,-1.8008,-1.8008,-1.8008,-1.8008,-1.8008,-1.8008,-1.8008,-0.9219,-0.9341,-1.0194,-1.0807,-1.1143,-1.1595,-1.1966,-1.2268,-1.2305,-1.2305,-1.2305,-1.2305,-1.2305,-1.2305,-1.2415,-1.2489,-1.2496,-1.2569,-1.2606,-1.2643,-1.268,-1.2599,-1.2849,-1.3105,-1.3105,-1.3462,-1.4106,-1.478,-1.549,-1.6035,-1.6429,-1.6821,-1.7003,-1.7263,-1.7292,-1.735,-1.7423,-1.7238,-1.7441,-1.7525,-1.7561,-1.7621,-1.7887,-1.7925,-1.8019,-1.8,-1.8029,-1.801,-1.7931,-1.7786,-1.7772,-1.7837,-1.793,-1.8008,-1.8008,-1.8008,-1.8008,-1.8008,-1.8008,-1.7974,-1.7974,-1.7974,-1.8008,-1.7974,-1.8008,-1.8008,-1.8008,-1.8008,-1.8008,-1.8008,-1.8008,-1.8008,-1.8008,-1.8008,-1.8008,-1.8008,-1.8008,-1.8008,-1.8008,-1.8008,-1.8008,-1.8008,-1.8008,-1.8008,-1.8008,-1.8008,-1.8008,-1.8008,-1.8008,-1.8008,-1.8008,-1.8008,-1.8008,-1.8008,-1.8008,-1.8008,-1.8008,-1.8008,-1.8008,-1.8008,-1.7988,-1.7842,-1.7734,-1.7744,-1.7744,-1.7744,-1.7812,-1.793,-1.7998,-1.8008,-1.8008,-1.8008,-1.8008,-1.8008,-1.8008,-0.8212,-0.8369,-0.9314,-1.0099,-1.0769,-1.0919,-1.1372,-1.204,-1.2114,-1.2194,-1.2305,-1.2305,-1.2305,-1.2305,-1.2305,-1.2305,-1.2342,-1.2378,-1.2378,-1.2342,-1.2342,-1.2378,-1.2378,-1.2415,-1.2489,-1.2666,-1.3171,-1.3854,-1.4537,-1.5144,-1.5648,-1.5895,-1.6412,-1.6936,-1.7073,-1.7238,-1.742,-1.741,-1.7512,-1.7641,-1.7749,-1.7883,-1.8114,-1.8412,-1.8619,-1.8619,-1.8609,-1.8544,-1.8392,-1.8076,-1.7729,-1.7739,-1.7794,-1.7872,-1.7872,-1.7872,-1.7837,-1.7881,-1.7881,-1.7881,-1.7872,-1.7906,-1.794,-1.7974,-1.7974,-1.8008,-1.8008,-1.8008,-1.8008,-1.8008,-1.8008,-1.8008,-1.8008,-1.8008,-1.8008,-1.8008,-1.8008,-1.8008,-1.8008,-1.8008,-1.8008,-1.8008,-1.8008,-1.8008,-1.8008,-1.8008,-1.8008,-1.8008,-1.8008,-1.8008,-1.8008,-1.8008,-1.8008,-1.8008,-1.8008,-1.8008,-1.8008,-1.8008,-1.8008,-1.8008,-1.7988,-1.7891,-1.7793,-1.7676,-1.7676,-1.7754,-1.7793,-1.7891,-1.7949,-1.8008,-1.8008,-1.8008,-1.8008,-1.8008,-1.8008,-0.734,-0.7479,-0.8356,-0.8906,-0.9243,-0.9857,-1.0582,-1.126,-1.1335,-1.1669,-1.215,-1.2268,-1.2305,-1.2305,-1.2305,-1.2305,-1.2305,-1.2305,-1.2305,-1.2305,-1.2305,-1.2305,-1.2305,-1.2305,-1.2305,-1.2415,-1.2592,-1.2989,-1.3709,-1.4466,-1.518,-1.5719,-1.6473,-1.6985,-1.7367,-1.7523,-1.7633,-1.7706,-1.7899,-1.8045,-1.8146,-1.8119,-1.7871,-1.8064,-1.8202,-1.8202,-1.8202,-1.8202,-1.7981,-1.7666,-1.7462,-1.7474,-1.7564,-1.7676,-1.7666,-1.7666,-1.7666,-1.7676,-1.7676,-1.7676,-1.7666,-1.7701,-1.7769,-1.7818,-1.7862,-1.7974,-1.7974,-1.8008,-1.8008,-1.8008,-1.8008,-1.8008,-1.8008,-1.8008,-1.8008,-1.8008,-1.8008,-1.8008,-1.8008,-1.8008,-1.8008,-1.8008,-1.8008,-1.8008,-1.8008,-1.8008,-1.8008,-1.8008,-1.8008,-1.8008,-1.8008,-1.8008,-1.8008,-1.8008,-1.8008,-1.8008,-1.8008,-1.8008,-1.8008,-1.8008,-1.8008,-1.8008,-1.79,-1.7686,-1.7773,-1.791,-1.793,-1.7832,-1.7915,-1.7974,-1.8008,-1.8008,-1.8008,-1.8008,-1.8008]}]]